[[{"header":{"parameterUnit":"m.s-1","parameterCategory":1,"la1":30.6,"la2":29.2853,"lo1":-89.7004,"lo2":-87.6739,"dy":0.0162,"dx":0.0183,"nx":112,"ny":82,"refTime":"2023-06-19T12:00:00:Z","depth":0,"parameterNumber":2,"parameterNumberName":"U-component_of_WINDS"},"data":[0.0,0.0,0.0,0.0,0.0,0.0,0.0,0.0,0.0,0.0,0.0,0.0,0.0,0.0,0.0,0.0,0.0,0.0,0.0,0.0,0.0,0.0,0.0,0.0,0.0,0.0,0.0,0.0,0.0,0.0,0.0,0.0,0.0,0.0,0.0,0.0,0.0,0.0,0.0,0.0,0.0,0.0,0.0,0.0,0.0,0.0,0.0,0.0,0.0,0.0,0.0,0.0,0.0,0.0,0.0,0.0,0.0,0.0,0.0,0.0,0.0,0.0,0.0,0.0,0.0,0.0,0.0,0.0,0.0,0.0,0.0,0.0,0.0,0.0,0.0,0.0,0.0,0.0,0.0,0.0,0.0,0.0,0.0,0.0,0.0,0.0,0.0,0.0,0.0,0.0,0.0,-2.9108,-3.1836,-3.3335,-3.3398,-3.3581,-3.151,-2.6405,0.0,0.0,0.0,0.0,0.0,0.0,0.0,0.0,0.0,0.0,0.0,0.0,0.0,0.0,0.0,0.0,0.0,0.0,0.0,0.0,0.0,0.0,0.0,0.0,0.0,0.0,0.0,0.0,0.0,0.0,0.0,0.0,0.0,0.0,0.0,0.0,0.0,0.0,0.0,0.0,0.0,0.0,0.0,0.0,0.0,0.0,0.0,0.0,0.0,0.0,0.0,0.0,0.0,0.0,0.0,0.0,0.0,0.0,0.0,0.0,0.0,0.0,0.0,0.0,0.0,0.0,0.0,0.0,0.0,0.0,0.0,0.0,0.0,0.0,0.0,0.0,0.0,0.0,0.0,0.0,0.0,0.0,0.0,0.0,0.0,0.0,0.0,0.0,0.0,0.0,0.0,0.0,0.0,0.0,0.0,0.0,0.0,0.0,0.0,0.0,0.0,0.0,0.0,0.0,-2.7462,-3.2013,-3.2977,-3.3229,-3.3005,-3.3424,-3.1485,-2.626,0.0,0.0,0.0,0.0,0.0,0.0,0.0,0.0,0.0,0.0,0.0,0.0,0.0,0.0,0.0,0.0,0.0,0.0,0.0,0.0,0.0,0.0,0.0,0.0,0.0,0.0,0.0,0.0,0.0,0.0,0.0,0.0,0.0,0.0,0.0,0.0,0.0,0.0,0.0,0.0,0.0,0.0,0.0,0.0,0.0,0.0,0.0,0.0,0.0,0.0,0.0,0.0,0.0,0.0,0.0,0.0,0.0,0.0,0.0,0.0,0.0,0.0,0.0,0.0,0.0,0.0,0.0,0.0,0.0,0.0,0.0,0.0,0.0,0.0,0.0,0.0,0.0,0.0,0.0,0.0,0.0,0.0,0.0,0.0,0.0,0.0,0.0,0.0,0.0,0.0,0.0,0.0,0.0,0.0,0.0,0.0,0.0,0.0,0.0,0.0,0.0,0.0,0.0,-2.762,-3.1575,-3.3643,-3.3705,-3.3519,-3.329,-3.3184,-3.1016,-2.5982,-2.5449,0.0,0.0,0.0,0.0,0.0,0.0,0.0,0.0,0.0,0.0,0.0,0.0,0.0,0.0,0.0,0.0,0.0,0.0,0.0,0.0,0.0,0.0,0.0,0.0,0.0,0.0,0.0,0.0,0.0,0.0,0.0,0.0,0.0,0.0,0.0,0.0,0.0,0.0,0.0,0.0,0.0,0.0,0.0,0.0,0.0,0.0,0.0,0.0,0.0,0.0,0.0,0.0,0.0,0.0,0.0,0.0,0.0,0.0,0.0,0.0,0.0,0.0,0.0,0.0,0.0,0.0,0.0,0.0,0.0,0.0,0.0,0.0,0.0,0.0,0.0,0.0,0.0,0.0,0.0,0.0,0.0,0.0,0.0,0.0,0.0,0.0,0.0,0.0,0.0,0.0,0.0,0.0,0.0,0.0,0.0,0.0,0.0,0.0,0.0,0.0,0.0,0.0,-3.1025,-3.3995,-3.4527,-3.4282,-3.406,-3.3925,-3.3543,-3.1235,-2.6359,-2.6092,0.0,0.0,0.0,0.0,0.0,0.0,0.0,0.0,0.0,0.0,0.0,0.0,0.0,0.0,0.0,0.0,0.0,0.0,0.0,0.0,0.0,0.0,0.0,0.0,0.0,0.0,0.0,0.0,0.0,0.0,0.0,0.0,0.0,0.0,0.0,0.0,0.0,0.0,0.0,0.0,0.0,0.0,0.0,0.0,0.0,0.0,0.0,0.0,0.0,0.0,0.0,0.0,0.0,0.0,0.0,0.0,0.0,0.0,0.0,0.0,0.0,0.0,0.0,0.0,0.0,0.0,0.0,0.0,0.0,0.0,0.0,0.0,0.0,0.0,0.0,0.0,0.0,0.0,0.0,0.0,0.0,0.0,0.0,0.0,0.0,0.0,0.0,0.0,0.0,0.0,0.0,0.0,0.0,0.0,0.0,0.0,0.0,0.0,0.0,0.0,0.0,0.0,-2.9776,-3.271,-3.4662,-3.4736,-3.4691,-3.4804,-3.5003,-3.2987,-2.7958,-2.7827,0.0,0.0,0.0,0.0,0.0,0.0,0.0,0.0,0.0,0.0,0.0,0.0,0.0,0.0,0.0,0.0,0.0,0.0,0.0,0.0,0.0,0.0,0.0,0.0,0.0,0.0,0.0,0.0,0.0,0.0,0.0,0.0,0.0,0.0,0.0,0.0,0.0,0.0,0.0,0.0,0.0,0.0,0.0,0.0,0.0,0.0,0.0,0.0,0.0,0.0,0.0,0.0,0.0,0.0,0.0,0.0,0.0,0.0,0.0,0.0,0.0,0.0,0.0,0.0,0.0,0.0,0.0,0.0,0.0,0.0,0.0,0.0,0.0,0.0,0.0,0.0,0.0,0.0,0.0,0.0,0.0,0.0,0.0,0.0,0.0,0.0,0.0,0.0,0.0,0.0,0.0,0.0,0.0,0.0,0.0,0.0,0.0,0.0,0.0,0.0,0.0,0.0,-3.1566,-3.4527,0.0,-3.4872,-3.4389,-3.423,-3.3897,-3.1532,-2.6553,0.0,0.0,0.0,0.0,0.0,0.0,0.0,0.0,0.0,0.0,0.0,0.0,0.0,0.0,0.0,0.0,0.0,0.0,0.0,0.0,0.0,0.0,0.0,0.0,0.0,0.0,0.0,0.0,0.0,0.0,0.0,0.0,0.0,0.0,0.0,0.0,0.0,0.0,0.0,0.0,0.0,0.0,0.0,0.0,0.0,0.0,0.0,0.0,0.0,0.0,0.0,0.0,0.0,0.0,0.0,0.0,0.0,0.0,0.0,0.0,0.0,0.0,0.0,0.0,0.0,0.0,0.0,0.0,0.0,0.0,0.0,0.0,0.0,0.0,0.0,0.0,0.0,0.0,0.0,0.0,0.0,0.0,0.0,0.0,0.0,0.0,0.0,0.0,0.0,0.0,0.0,0.0,0.0,0.0,0.0,0.0,0.0,0.0,0.0,0.0,0.0,0.0,-2.8613,-3.2848,-3.5845,0.0,-3.5142,-3.4467,-3.4275,-3.3818,-3.1427,-2.6424,0.0,0.0,0.0,0.0,0.0,0.0,0.0,0.0,0.0,0.0,0.0,0.0,0.0,0.0,0.0,0.0,0.0,0.0,0.0,0.0,0.0,0.0,0.0,0.0,0.0,0.0,0.0,0.0,0.0,0.0,0.0,0.0,0.0,0.0,0.0,0.0,0.0,0.0,0.0,0.0,0.0,0.0,0.0,0.0,0.0,0.0,0.0,0.0,0.0,0.0,0.0,0.0,0.0,0.0,0.0,0.0,0.0,0.0,0.0,0.0,0.0,0.0,0.0,0.0,0.0,0.0,0.0,0.0,0.0,0.0,0.0,0.0,0.0,0.0,0.0,0.0,0.0,0.0,0.0,0.0,0.0,0.0,0.0,0.0,0.0,0.0,0.0,0.0,0.0,0.0,0.0,0.0,0.0,0.0,0.0,0.0,0.0,0.0,0.0,0.0,0.0,0.0,-2.8602,-3.3043,-3.6196,-3.6196,-3.5514,-3.5112,-3.5276,-3.5265,-3.3153,0.0,0.0,0.0,0.0,0.0,0.0,0.0,0.0,0.0,0.0,0.0,0.0,0.0,0.0,0.0,0.0,0.0,0.0,0.0,0.0,0.0,0.0,0.0,0.0,0.0,0.0,0.0,0.0,0.0,0.0,0.0,0.0,0.0,0.0,0.0,0.0,0.0,0.0,0.0,0.0,0.0,0.0,0.0,0.0,0.0,0.0,0.0,0.0,0.0,0.0,0.0,0.0,0.0,0.0,0.0,0.0,0.0,0.0,0.0,0.0,0.0,0.0,0.0,0.0,0.0,0.0,0.0,0.0,0.0,0.0,0.0,0.0,0.0,0.0,0.0,0.0,0.0,0.0,0.0,0.0,0.0,0.0,0.0,0.0,0.0,0.0,0.0,0.0,0.0,0.0,0.0,0.0,0.0,0.0,0.0,0.0,0.0,0.0,0.0,0.0,0.0,0.0,0.0,-2.9452,-3.308,-3.5625,-3.5625,-3.4428,-3.364,-3.3684,-3.3663,-3.1532,-2.6509,0.0,0.0,0.0,0.0,0.0,0.0,0.0,0.0,0.0,0.0,0.0,0.0,0.0,0.0,0.0,0.0,0.0,0.0,0.0,0.0,0.0,0.0,0.0,0.0,0.0,0.0,0.0,0.0,0.0,0.0,0.0,0.0,0.0,0.0,0.0,0.0,0.0,0.0,0.0,0.0,0.0,0.0,0.0,0.0,0.0,0.0,0.0,0.0,0.0,0.0,0.0,0.0,0.0,0.0,0.0,0.0,0.0,0.0,0.0,0.0,0.0,0.0,0.0,0.0,0.0,0.0,0.0,0.0,0.0,0.0,0.0,0.0,0.0,0.0,0.0,0.0,0.0,0.0,0.0,0.0,0.0,0.0,0.0,0.0,0.0,0.0,0.0,0.0,0.0,0.0,0.0,0.0,0.0,0.0,0.0,0.0,0.0,0.0,0.0,0.0,0.0,0.0,-2.9394,-3.2658,-3.496,-3.496,-3.3865,-3.3108,-3.3108,-3.3108,-3.1397,-2.7313,0.0,0.0,0.0,0.0,0.0,0.0,0.0,0.0,0.0,0.0,0.0,0.0,0.0,0.0,0.0,0.0,0.0,0.0,0.0,0.0,0.0,0.0,0.0,0.0,0.0,0.0,0.0,0.0,0.0,0.0,0.0,0.0,0.0,0.0,0.0,0.0,0.0,0.0,0.0,0.0,0.0,0.0,0.0,0.0,0.0,0.0,0.0,0.0,0.0,0.0,0.0,0.0,0.0,0.0,0.0,0.0,0.0,0.0,0.0,0.0,0.0,0.0,0.0,0.0,0.0,0.0,0.0,0.0,0.0,0.0,0.0,0.0,0.0,0.0,0.0,0.0,0.0,0.0,0.0,0.0,0.0,0.0,0.0,0.0,0.0,0.0,0.0,0.0,0.0,0.0,0.0,0.0,0.0,0.0,0.0,0.0,0.0,0.0,0.0,0.0,0.0,0.0,-2.8675,-3.198,-3.4312,-3.4312,-3.3687,-3.3276,-3.3276,-3.3276,-3.2176,-2.9572,0.0,0.0,0.0,0.0,0.0,0.0,0.0,0.0,0.0,0.0,0.0,0.0,0.0,0.0,0.0,0.0,0.0,0.0,0.0,0.0,0.0,0.0,0.0,0.0,0.0,0.0,0.0,0.0,0.0,0.0,0.0,0.0,0.0,0.0,0.0,0.0,0.0,0.0,0.0,0.0,0.0,0.0,0.0,0.0,0.0,0.0,0.0,0.0,0.0,0.0,0.0,0.0,0.0,0.0,0.0,0.0,0.0,0.0,0.0,0.0,-2.5627,0.0,0.0,0.0,0.0,0.0,0.0,0.0,0.0,0.0,0.0,0.0,0.0,0.0,0.0,0.0,0.0,0.0,0.0,0.0,0.0,0.0,0.0,0.0,0.0,0.0,0.0,0.0,0.0,0.0,0.0,0.0,0.0,0.0,0.0,0.0,0.0,0.0,0.0,0.0,0.0,0.0,-2.7935,-3.1658,-3.4312,-3.4312,-3.3555,-3.3072,-3.3072,-3.3072,-3.1991,-2.9473,-2.9005,0.0,0.0,0.0,0.0,0.0,0.0,0.0,0.0,0.0,0.0,0.0,0.0,0.0,0.0,0.0,0.0,0.0,0.0,0.0,0.0,0.0,0.0,0.0,0.0,0.0,0.0,0.0,0.0,0.0,0.0,0.0,0.0,0.0,0.0,0.0,0.0,0.0,0.0,0.0,0.0,0.0,0.0,0.0,0.0,0.0,0.0,0.0,0.0,0.0,0.0,0.0,0.0,0.0,0.0,0.0,0.0,0.0,0.0,0.0,0.0,-2.5499,0.0,0.0,0.0,0.0,0.0,0.0,0.0,0.0,0.0,0.0,0.0,0.0,0.0,0.0,0.0,0.0,0.0,0.0,0.0,0.0,0.0,0.0,0.0,0.0,0.0,0.0,0.0,0.0,0.0,0.0,0.0,0.0,0.0,0.0,0.0,0.0,0.0,0.0,0.0,0.0,-2.7281,-3.1114,-3.3811,-3.3811,-3.3409,-3.3143,-3.3143,-3.3143,-3.2563,-3.1177,-3.0135,0.0,0.0,0.0,0.0,0.0,0.0,0.0,0.0,0.0,0.0,0.0,0.0,0.0,0.0,0.0,0.0,0.0,0.0,0.0,0.0,0.0,0.0,0.0,0.0,0.0,0.0,0.0,0.0,0.0,0.0,0.0,0.0,0.0,0.0,0.0,0.0,0.0,0.0,0.0,0.0,0.0,0.0,0.0,0.0,0.0,0.0,0.0,0.0,0.0,0.0,0.0,0.0,0.0,-2.8641,-2.8925,-2.9078,-2.8925,-2.9139,-2.963,-2.9184,-2.9422,-2.9947,0.0,0.0,0.0,0.0,0.0,0.0,0.0,0.0,0.0,0.0,0.0,0.0,0.0,0.0,0.0,0.0,0.0,0.0,0.0,0.0,0.0,0.0,0.0,0.0,0.0,-3.0881,-3.1056,0.0,0.0,0.0,0.0,0.0,0.0,0.0,0.0,0.0,0.0,0.0,0.0,-2.6596,-3.0479,-3.3241,-3.3241,-3.3206,-3.3206,-3.3206,-3.3206,-3.3122,-3.2952,-3.1127,-2.9766,0.0,0.0,0.0,0.0,0.0,0.0,0.0,0.0,0.0,0.0,0.0,0.0,0.0,0.0,0.0,0.0,0.0,0.0,0.0,0.0,0.0,0.0,0.0,0.0,0.0,0.0,0.0,0.0,0.0,0.0,0.0,0.0,-2.161,-2.297,0.0,0.0,0.0,0.0,0.0,0.0,0.0,0.0,0.0,0.0,0.0,0.0,0.0,-2.5256,-2.5437,-2.8475,-3.0038,-3.0143,-3.2368,-3.3839,-3.4541,-3.3782,-3.3895,-3.4528,-3.262,0.0,-3.0914,-3.0773,0.0,0.0,0.0,0.0,0.0,0.0,0.0,0.0,0.0,0.0,0.0,0.0,0.0,0.0,0.0,0.0,0.0,0.0,0.0,0.0,0.0,0.0,-3.6038,-3.6337,-3.5046,-3.4274,0.0,-3.1281,-2.7178,-2.891,-2.7096,0.0,0.0,0.0,0.0,0.0,0.0,0.0,-2.5855,-3.0071,-3.3023,-3.3023,-3.2881,-3.2775,-3.2775,-3.2775,-3.2775,-3.2739,-3.2435,-3.1349,-2.9245,-3.1183,0.0,0.0,0.0,0.0,0.0,0.0,0.0,0.0,0.0,0.0,0.0,0.0,0.0,0.0,0.0,0.0,0.0,0.0,0.0,0.0,0.0,0.0,0.0,0.0,0.0,0.0,0.0,0.0,0.0,-2.062,-2.2117,-2.3643,-2.2881,-2.1861,0.0,0.0,0.0,0.0,0.0,0.0,0.0,0.0,0.0,-2.6091,-2.7131,-2.8096,-2.8955,-3.1412,-3.3021,-3.3816,-3.4941,-3.5898,-3.665,-3.6254,-3.6328,-3.6616,-3.564,-3.4785,-3.3964,-3.2425,-3.1635,-3.1156,0.0,0.0,0.0,0.0,-2.567,-2.7007,-2.7701,-2.9468,0.0,-3.0922,0.0,0.0,0.0,0.0,0.0,0.0,0.0,0.0,0.0,0.0,0.0,-3.7137,-3.6474,-3.5741,-3.6689,-3.3213,-3.0319,0.0,-2.9746,-2.7074,-2.4851,0.0,0.0,0.0,0.0,0.0,-2.775,-3.0895,-3.3122,-3.3023,-3.3037,-3.3051,-3.3051,-3.3051,-3.3002,-3.2881,-3.2881,-3.2361,-3.1205,-3.2137,-3.1094,0.0,0.0,0.0,0.0,0.0,0.0,0.0,0.0,0.0,0.0,0.0,0.0,0.0,0.0,0.0,0.0,0.0,0.0,0.0,0.0,0.0,0.0,0.0,0.0,0.0,0.0,0.0,0.0,-2.1522,-2.3066,-2.4831,-2.4311,-2.3579,0.0,0.0,0.0,0.0,0.0,0.0,-2.6365,-2.6559,-2.7159,-2.8284,-2.9565,-3.0816,-3.1953,-3.3478,-3.478,-3.5866,-3.5866,-3.6259,-3.6952,-3.6784,-3.6784,-3.6952,-3.6952,-3.6517,-3.571,-3.3865,-3.3426,-3.3654,-3.1969,-3.0514,-2.9373,-2.9003,-2.9521,-3.0546,-3.1265,-3.3101,-3.5011,-3.447,0.0,-3.1911,-3.0551,0.0,0.0,0.0,0.0,-2.9441,-3.1551,-3.3016,-3.4479,-3.6503,-3.6538,-3.6134,-3.6134,-3.4075,-3.2602,0.0,-3.2042,-2.9262,-2.627,0.0,0.0,0.0,0.0,-2.9665,-2.9415,-3.1632,-3.3213,-3.3232,-3.3324,-3.3479,-3.3633,-3.3647,-3.3561,-3.3426,-3.3272,-3.3118,-3.2974,-3.2751,-3.1792,-2.9986,0.0,0.0,0.0,0.0,0.0,0.0,0.0,0.0,0.0,0.0,0.0,0.0,0.0,0.0,0.0,0.0,0.0,0.0,0.0,0.0,0.0,0.0,0.0,0.0,0.0,0.0,0.0,0.0,0.0,-2.7324,-2.8906,0.0,0.0,0.0,0.0,-2.5356,-2.5978,-2.7214,-2.9011,-2.9714,-3.0875,-3.2647,-3.2758,-3.2849,-3.2919,-3.3711,-3.4197,-3.4413,-3.4413,-3.478,-3.5497,-3.478,-3.4846,-3.5497,-3.5497,-3.506,-3.4397,-3.566,-3.563,-3.4516,-3.2344,-3.1559,-3.1471,-3.0072,-3.1135,-3.3382,-3.4065,-3.5637,-3.7352,-3.7293,-3.4682,-3.1047,-2.8402,-2.6732,0.0,0.0,-2.8365,-3.0601,-3.1145,-3.3274,-3.5344,-3.5467,-3.5464,-3.5464,-3.5464,-3.3423,-3.2348,0.0,-3.3136,-3.1137,-3.0573,0.0,-2.8679,-2.6269,-2.8017,-2.9602,-2.9571,-3.1584,-3.3246,-3.3782,-3.377,-3.391,-3.4491,-3.4533,-3.4533,-3.4533,-3.3993,-3.3675,-3.3638,-3.2841,-3.247,-3.2524,-3.0207,0.0,0.0,0.0,0.0,0.0,0.0,0.0,0.0,0.0,0.0,0.0,0.0,0.0,0.0,0.0,0.0,0.0,0.0,0.0,0.0,0.0,0.0,0.0,0.0,0.0,0.0,0.0,0.0,-2.8124,-2.901,0.0,0.0,-2.8197,-2.8261,-2.8239,-2.9633,-3.1009,-3.2187,-3.2486,-3.3156,-3.4377,-3.399,-3.378,-3.378,-3.3635,-3.3825,-3.4312,-3.4225,-3.4528,-3.519,-3.4798,-3.4765,-3.5011,-3.5011,-3.4658,-3.4174,-3.4712,-3.4709,-3.4439,-3.4577,-3.4696,-3.4745,-3.4707,-3.5276,-3.6111,-3.6358,-3.6582,-3.6784,-3.6784,-3.5523,-3.3936,-3.3501,-3.2706,-3.1982,-3.2211,-3.2954,-3.3711,-3.3868,-3.4665,-3.54,-3.54,-3.5026,-3.4681,-3.4681,-3.3638,-3.2958,-3.3867,-3.2674,-3.1371,-3.076,-3.1763,-3.1786,-2.9287,-3.0993,-3.2666,-3.2975,-3.3822,-3.4453,-3.4515,-3.4631,-3.4766,-3.499,-3.5004,-3.5004,-3.5004,-3.4794,-3.4463,-3.4036,-3.359,-3.3212,-3.2881,-3.2034,-3.0081,0.0,0.0,0.0,0.0,0.0,0.0,0.0,0.0,0.0,0.0,0.0,0.0,0.0,0.0,0.0,0.0,0.0,0.0,0.0,0.0,0.0,0.0,0.0,0.0,0.0,0.0,-2.8627,-2.8802,-2.9719,-3.0263,-3.0052,-3.0181,-3.0644,-3.1557,-3.2826,-3.3796,-3.431,-3.4323,-3.4556,-3.5064,-3.4685,-3.4439,-3.4439,-3.4032,-3.4094,-3.46,-3.4509,-3.4718,-3.5151,-3.5,-3.4699,-3.4293,-3.4428,-3.3922,-3.3042,-3.3439,-3.3506,-3.3499,-3.535,-3.6138,-3.6402,-3.7202,-3.7345,-3.7089,-3.6861,-3.6476,-3.603,-3.5758,-3.5546,-3.5464,-3.5787,-3.5499,-3.5059,-3.5142,-3.4927,-3.4677,-3.4677,-3.4677,-3.4735,-3.4955,-3.4467,-3.4083,-3.4513,-3.3419,-3.2679,-3.3733,-3.3146,-3.2119,-3.1101,-3.2263,-3.2539,-3.0178,-3.1101,-3.2134,-3.2402,-3.3325,-3.395,-3.3944,-3.4822,-3.5447,-3.5581,-3.4901,-3.4848,-3.5752,-3.4764,-3.4335,-3.4843,-3.3581,-3.2701,-3.2298,-3.1533,-2.9951,-2.7572,0.0,0.0,0.0,0.0,0.0,0.0,0.0,0.0,0.0,0.0,0.0,0.0,0.0,0.0,0.0,0.0,0.0,0.0,0.0,0.0,0.0,0.0,0.0,-2.4544,-2.7371,-2.9611,-2.9553,-3.1405,-3.2862,-3.3376,-3.373,-3.4259,-3.511,-3.5189,-3.5189,-3.5217,-3.5175,-3.5101,-3.4915,-3.4901,-3.4864,-3.4864,-3.4915,-3.5004,-3.5189,-3.5189,-3.5189,-3.5189,-3.5189,-3.4506,-3.3339,-3.372,-3.2812,-3.1102,-3.2275,-3.2333,-3.1924,-3.4422,-3.5676,-3.6198,-3.7164,-3.7043,-3.6337,-3.5627,-3.5393,-3.5309,-3.4585,-3.482,-3.5249,-3.4572,-3.4337,-3.4337,-3.4337,-3.3868,-3.3382,-3.3382,-3.3382,-3.3501,-3.409,-3.3768,-3.3705,-3.4936,-3.2792,-3.1555,-3.4612,-3.4688,-3.3683,-3.1907,-3.1612,-3.0961,-2.9041,-2.8362,0.0,-2.7909,-3.0101,-3.1825,-3.2208,-3.4325,-3.5892,-3.6389,-3.4289,-3.4133,-3.6824,-3.4002,-3.3393,-3.5967,-3.2812,-3.104,-3.1026,-2.8782,-2.8809,-3.1129,0.0,0.0,0.0,0.0,0.0,0.0,0.0,0.0,0.0,0.0,0.0,0.0,0.0,0.0,0.0,0.0,0.0,0.0,0.0,0.0,0.0,0.0,-2.9607,-2.89,-3.0925,-3.2597,-3.2981,-3.3649,-3.4115,-3.4073,-3.4254,-3.451,-3.4766,-3.478,-3.5012,-3.5595,-3.4757,-3.4514,-3.5101,-3.4657,-3.4383,-3.4383,-3.4854,-3.5152,-3.5189,-3.5041,-3.4966,-3.4966,-3.4667,-3.4375,-3.4034,-3.3923,-3.3666,-3.3316,-3.3645,-3.3651,-3.3623,-3.4747,-3.5262,-3.5554,-3.6991,-3.7375,-3.6951,-3.5273,-3.5272,-3.6004,-3.5746,-3.5488,-3.5289,-3.558,-3.5346,-3.4945,-3.4945,-3.4814,-3.4683,-3.4683,-3.4683,-3.4725,-3.4894,-3.4809,-3.4781,-3.5119,-3.4514,-3.4162,-3.502,-3.5414,-3.5264,-3.4345,-3.4176,-3.4162,-3.402,-3.3902,0.0,-3.4357,-3.492,-3.5372,-3.5639,-3.4178,-3.4125,-3.6434,-3.4033,-3.3623,-3.6408,-3.572,-3.5322,-3.5592,-3.4689,-3.415,-3.4148,-3.1895,-3.1219,0.0,0.0,0.0,0.0,0.0,0.0,0.0,0.0,0.0,0.0,0.0,0.0,0.0,0.0,0.0,0.0,0.0,0.0,0.0,0.0,0.0,0.0,-2.9217,-3.2019,-3.1995,-3.3365,-3.4461,-3.465,-3.4987,-3.511,-3.4966,-3.5063,-3.5214,-3.5593,-3.5607,-3.5798,-3.6277,-3.5605,-3.5069,-3.4787,-3.5321,-3.5269,-3.4449,-3.5781,-3.6479,-3.6465,-3.6097,-3.5895,-3.5895,-3.5399,-3.4884,0.0,-3.441,-3.4194,-3.382,-3.399,-3.4061,0.0,0.0,0.0,0.0,0.0,-3.6743,-3.6626,-3.5093,-3.5132,-3.583,-3.5769,-3.5711,-3.5711,-3.6079,-3.5388,-3.4455,-3.4455,-3.3506,-3.2728,-3.3769,-3.3853,-3.398,-3.5273,-3.5372,-3.533,-3.5836,-3.495,-3.4379,-3.5573,-3.5354,0.0,-3.5699,-3.5045,-3.4239,-3.3732,-3.3487,-3.3459,-3.3667,-3.4557,-3.5137,-3.5072,-3.433,-3.4481,-3.6146,-3.3808,0.0,0.0,0.0,-3.4554,-3.4146,-3.4132,0.0,0.0,0.0,-3.1682,-3.2972,0.0,0.0,0.0,-2.8874,-2.7441,0.0,0.0,0.0,0.0,0.0,0.0,0.0,0.0,0.0,0.0,0.0,0.0,0.0,0.0,0.0,0.0,-3.097,-3.3658,-3.4164,-3.5061,-3.5522,-3.5276,-3.5657,-3.5959,-3.6101,-3.6,-3.6249,-3.695,-3.6978,-3.7021,-3.7091,0.0,0.0,0.0,0.0,-3.6654,-3.4928,-3.7064,-3.8104,-3.8035,-3.7495,-3.7206,-3.7178,-3.66,-3.5758,-3.4713,-3.5084,-3.4637,-3.3591,-3.3971,-3.4111,-3.4199,-3.5212,-3.553,-3.5465,-3.5518,-3.572,-3.5879,-3.5048,0.0,0.0,-3.5337,-3.5815,-3.6389,-3.6389,-3.5305,-3.4039,-3.3972,-3.1958,-3.0295,-3.239,-3.2559,-3.2875,-3.5606,-3.5831,-3.5733,-3.6778,-3.488,-3.3662,-3.6217,-3.5088,-3.4363,-3.6345,-3.5008,-3.3066,-3.128,-3.0667,-3.0252,-2.9946,-3.1924,-3.3232,-3.2869,0.0,0.0,-3.5736,-3.366,-3.3504,-3.616,-3.4098,-3.2759,-3.2759,-3.2759,-3.1891,-3.0021,-3.0467,-3.1815,-3.4009,-3.4476,-3.5353,-3.649,-3.0971,-2.9438,0.0,0.0,0.0,0.0,0.0,0.0,0.0,0.0,0.0,0.0,0.0,0.0,0.0,0.0,0.0,-2.9768,-3.1926,-3.4121,-3.6107,-3.6348,-3.6281,-3.6242,-3.6488,-3.6887,-3.7359,-3.702,-3.6813,-3.6978,-3.6978,-3.7203,-3.7695,-3.6782,0.0,-3.6217,-3.6638,-3.6431,-3.5516,-3.6976,-3.7476,-3.699,0.0,0.0,-3.6571,-3.6301,-3.6029,-3.577,-3.5666,-3.5465,-3.5247,-3.533,-3.5331,-3.5355,-3.555,-3.6,-3.6456,-3.5501,-3.5809,-3.6527,-3.5132,-3.5352,-3.6242,-3.6175,-3.6767,-3.7506,-3.7506,-3.7799,0.0,-3.7441,-3.6947,-3.6526,-3.6193,-3.6274,-3.6532,-3.6977,-3.6995,-3.6967,-3.7169,-3.6644,-3.6276,-3.6841,-3.6613,-3.6354,-3.6638,-3.6317,-3.5924,-3.5523,-3.5256,-3.5059,-3.4996,-3.5281,-3.5544,-3.5623,-3.3733,-3.343,-3.5827,-3.3684,-3.3265,-3.5667,-3.5369,-3.5071,-3.5071,-3.5071,-3.5347,-3.5955,-3.5881,-3.664,-3.8204,-3.7842,-3.7813,-3.8022,-3.5726,-3.4569,0.0,0.0,0.0,0.0,0.0,0.0,0.0,0.0,0.0,0.0,0.0,-2.5403,0.0,0.0,-2.9276,-3.0808,-3.2741,-3.4502,-3.5754,-3.7119,-3.78,-3.7266,-3.7438,-3.7653,-3.7733,-3.748,-3.7438,-3.7746,-3.7639,-3.7779,-3.8167,-3.7235,-3.6376,-3.5609,-3.6389,-3.6239,-3.5124,-3.6753,-3.7469,-3.7234,-3.685,-3.6577,-3.6496,-3.6075,-3.5898,-3.5898,-3.5764,-3.571,-3.571,-3.571,-3.571,-3.5696,-3.5814,-3.6009,-3.6235,-3.5736,-3.5943,-3.6442,-3.6165,-3.6367,-3.6849,-3.7291,-3.7582,-3.7682,-3.7682,-3.738,-3.6973,-3.6606,-3.5695,-3.4952,-3.5707,-3.5807,-3.6053,-3.7158,-3.7457,-3.7457,-3.7457,-3.738,-3.7226,-3.7017,-3.7148,-3.7187,-3.6889,-3.6929,-3.6889,-3.6603,-3.6484,-3.6365,-3.6246,-3.6166,-3.6166,-3.6365,-3.4961,-3.4696,-3.6411,-3.5348,-3.5111,-3.6292,-3.635,-3.635,-3.635,-3.635,-3.6652,-3.7275,-3.7596,-3.8089,-3.8811,-3.8686,-3.8649,-3.8649,-3.7734,-3.7043,0.0,0.0,0.0,0.0,0.0,0.0,0.0,0.0,-2.5241,-2.5735,-2.6218,-2.7006,-2.8487,-2.9343,-3.0395,-3.2005,-3.3739,-3.5083,-3.5656,-3.7929,-3.9207,-3.8375,-3.851,-3.8504,-3.804,-3.7752,-3.7777,-3.8227,-3.7993,-3.7979,-3.8269,-3.7647,-3.6627,-3.5223,-3.644,-3.64,-3.4978,-3.6579,-3.741,-3.7468,-3.6825,-3.6483,-3.6415,-3.5927,-3.571,-3.571,-3.571,-3.571,-3.571,-3.571,-3.571,-3.571,-3.6058,-3.6018,-3.5723,-3.5992,-3.6234,-3.6477,-3.7222,-3.7438,-3.7473,-3.8178,-3.8187,-3.7921,-3.7792,-3.6857,-3.5759,-3.5632,-3.4162,-3.3085,-3.4867,-3.5152,-3.5458,-3.7411,-3.7863,-3.7863,-3.7863,-3.7725,-3.7495,-3.7187,-3.738,-3.7457,-3.7109,-3.7187,-3.7148,-3.6668,-3.6549,-3.647,-3.6312,-3.6272,-3.6351,-3.651,-3.651,-3.6749,-3.7278,-3.7239,-3.7256,-3.7447,-3.7422,-3.7383,-3.7383,-3.7383,-3.7405,-3.7448,-3.8012,-3.837,-3.8389,-3.8575,-3.8671,-3.8686,-3.8352,-3.8089,-2.1788,-1.9983,-1.948,-2.1329,-2.3137,-2.4761,0.0,0.0,-3.0685,-3.0009,-3.1291,-3.2601,-3.281,-3.2866,-3.3381,-3.4807,-3.5307,-3.6255,-3.8485,-3.9198,-3.956,-3.9651,-3.9858,-3.9766,-3.9172,-3.8189,-3.7565,-3.7425,-3.6902,-3.6847,-3.7412,-3.733,-3.7373,-3.7496,-3.7688,-3.7441,-3.6633,-3.6853,-3.6729,-3.6277,-3.6209,-3.6047,-3.5818,-3.575,-3.571,-3.571,-3.571,-3.571,-3.571,-3.571,-3.571,-3.575,-3.6389,-3.623,-3.5723,-3.5992,-3.6682,-3.7433,-3.7353,-3.7903,-3.8605,-3.8136,-3.8527,-3.9104,-3.8573,-3.8845,-3.9204,-3.8516,-3.8288,-3.8068,-3.7451,-3.7981,-3.8731,-3.8832,-3.8855,-3.8855,-3.8855,-3.8211,-3.7586,-3.7534,-3.7586,-3.7534,-3.7303,-3.7303,-3.7264,-3.7226,-3.707,-3.6915,-3.6915,-3.6915,-3.6915,-3.6915,-3.6915,-3.7335,-3.8357,-3.8046,-3.8192,-3.9159,-3.8906,-3.8689,-3.8689,-3.8689,-3.8771,-3.8948,-3.8881,-3.8859,-3.8995,-3.8501,-3.8277,-3.8277,-3.8202,-3.8089,-2.4029,-2.4001,0.0,0.0,-2.7552,-2.8957,-2.9787,-3.1094,-3.2176,-3.2229,-3.2901,-3.3619,-3.3993,-3.3901,-3.4273,0.0,-3.6337,-3.7087,-3.8721,-3.9699,-4.0205,-4.0085,-3.9486,-3.8737,-3.7797,-3.7397,-3.7059,-3.675,-3.6907,-3.7236,-3.7648,-3.7496,-3.7316,-3.7152,-3.7152,-3.6907,-3.6442,-3.6293,-3.6184,-3.6086,-3.5938,-3.5938,-3.6098,-3.6098,-3.6437,-3.6995,-3.6995,-3.7189,-3.7534,-3.7147,-3.6995,-3.6953,-3.6884,-3.6928,-3.6953,-3.6858,-3.686,-3.699,-3.7721,-3.8304,-3.8763,-3.9049,-3.9545,-4.001,-3.9743,-3.9985,-4.0278,-3.9999,-3.9889,-3.9642,-3.8826,-3.9269,-3.9682,-3.8738,-3.8884,-3.9052,-3.8642,-3.8568,-3.8568,-3.8457,-3.8884,-3.916,-3.8949,-3.9037,-3.9243,-3.9689,-3.855,-3.7791,-3.8235,-3.8207,-3.8239,-3.8456,-3.8642,-3.8993,-3.9448,-3.9305,-3.938,-3.9812,-3.9707,-3.9613,-3.9613,-3.9613,-3.9618,-3.9726,-3.9765,-3.9789,-3.9856,-3.9488,-3.9412,-3.9642,-3.9412,-3.932,-2.5167,0.0,0.0,-2.907,-3.0295,-3.1299,-3.2437,-3.2691,-3.2908,-3.3631,-3.3769,-3.3994,-3.4779,-3.4711,-3.5061,-3.6712,-3.7347,-3.8022,-3.9038,-4.0181,-4.0508,-3.9402,-3.8622,-3.735,-3.5324,-3.5941,-3.6595,-3.677,-3.6948,-3.7135,-3.7522,-3.7204,-3.6904,-3.6605,-3.6605,-3.6566,-3.6439,-3.6415,-3.6538,-3.6888,-3.6632,-3.6673,-3.7023,-3.7023,-3.7405,-3.8092,-3.8159,-3.8452,-3.8858,-3.8382,-3.8199,-3.8143,-3.7825,-3.7884,-3.8183,-3.8086,-3.7848,-3.766,-3.8717,-3.9266,-3.9693,-4.0391,-4.0793,-4.1009,-4.107,-4.098,-4.0881,-4.0881,-4.0775,-4.0563,-4.0004,-4.0599,-4.1055,-3.9967,-4.0097,-4.0385,-3.9822,-3.9817,-3.9862,-3.9703,-4.0086,-4.0409,-4.0473,-4.0624,-4.1029,-4.1984,-4.0679,-3.9674,-3.9783,-3.9524,-3.9382,-3.9664,-3.9946,-4.0176,-4.035,-4.0379,-4.0452,-4.0641,-4.0655,-4.0655,-4.0655,-4.0655,-4.0608,-4.0459,-4.0577,-4.0583,-4.0315,-4.0211,-4.029,-4.0446,-4.0211,-4.0172,0.0,0.0,-2.3715,-2.804,-2.9188,-2.9992,-3.2849,-3.3469,-3.3648,-3.4339,-3.4474,-3.4778,-3.5758,-3.5959,-3.6417,-3.7903,-3.8494,-3.9152,-4.0305,-4.083,-4.0086,-3.7327,-3.7485,-3.6103,0.0,-3.3829,-3.6174,-3.7929,-3.6641,-3.6022,-3.6605,-3.609,-3.6022,-3.6578,-3.6605,-3.6798,-3.726,-3.7841,-3.8352,-3.8804,-3.8627,-3.8518,-3.8518,-3.8518,-3.8532,-3.8587,-3.8805,-3.8873,-3.8901,-3.8873,-3.8873,-3.8913,-3.9264,-3.9197,-3.894,-3.9729,-4.0187,-4.0381,-4.0408,-4.1126,-4.2012,-4.2198,-4.2231,-4.2264,-4.2487,-4.1995,-4.1378,-4.1378,-4.1378,-4.134,-4.134,-4.2453,-4.3598,-4.3529,-4.3564,-4.3564,-4.3529,-4.2424,-4.1437,-4.1452,-4.0863,-4.0632,-4.1329,-4.1472,-4.1965,-4.3416,-4.3579,-4.2989,-4.1513,-4.0592,-4.0075,-4.0089,-4.0089,-4.0365,-4.1004,-4.1062,-4.1337,-4.199,-4.2034,-4.2034,-4.2034,-4.2034,-4.1826,-4.1372,-4.1372,-4.0931,-4.0108,-4.0275,-4.0197,-3.9816,-4.0025,-4.0104,0.0,0.0,-2.8017,-2.9419,-3.1157,-3.2828,-3.3913,-3.4174,-3.4337,-3.5026,-3.4098,-3.3275,-3.3622,-3.3561,-3.3876,-3.5077,-3.6168,-3.7576,-3.9573,-3.9068,-3.8841,-3.9705,-3.8111,0.0,0.0,0.0,0.0,-3.5119,-3.5865,-3.6388,-3.6592,-3.7175,-3.7355,-3.7071,-3.784,-3.8269,-3.8347,-3.9095,-3.9541,-3.9715,-3.9913,-3.9704,-3.9254,-4.005,-4.07,-4.1081,-4.1106,-4.1696,-4.2536,-4.1558,-4.1483,-4.1925,-4.1656,-4.1708,-4.197,-4.2251,-4.2689,-4.286,-4.0913,-4.1109,-4.2243,-4.2303,-4.3075,-4.4039,-4.4106,-4.3974,-4.3767,-4.3767,-4.3714,-4.3523,-4.3051,-4.3661,-4.4172,-4.3192,-4.3333,-4.3558,-4.3087,-4.297,-4.2953,-4.2953,-4.3158,-4.3382,-4.3671,-4.3703,-4.401,-4.4952,-4.4712,-4.4008,-4.2879,-4.2925,-4.2885,-4.2292,-4.2689,-4.3113,-4.3354,-4.2877,-4.2678,-4.286,-4.2392,-4.2092,-4.2092,-4.2092,-4.2032,-4.1855,-4.184,-4.1738,-4.1439,-4.1314,-4.1273,-4.1317,-4.1232,-4.1273,-2.5249,-2.7388,-2.9723,-3.1079,-3.2579,-3.3944,-3.469,-3.462,-3.4528,-3.4944,-3.3794,-3.2512,-3.2016,-3.2059,-3.2529,-3.3572,-3.5024,-3.6814,-3.9272,-3.9007,-3.8872,-3.9643,-3.8352,0.0,0.0,0.0,0.0,-3.4751,-3.5753,-3.6631,-3.7127,-3.7805,-3.8357,-3.8831,-3.9747,-4.0112,-3.9888,-4.0925,-4.1459,-4.1522,-4.1214,-4.1032,-4.1061,-4.1352,-4.1617,-4.1806,-4.2093,-4.2476,-4.2902,-4.2739,-4.296,-4.3411,-4.3334,-4.3538,-4.387,-4.387,-4.4125,-4.4235,-4.2336,-4.2306,-4.3152,-4.3404,-4.4262,-4.5246,-4.5527,-4.5431,-4.5248,-4.5248,-4.5196,-4.4992,-4.456,-4.4992,-4.5314,-4.4354,-4.451,-4.4718,-4.4248,-4.4304,-4.4455,-4.4455,-4.4633,-4.4868,-4.5111,-4.537,-4.5694,-4.6115,-4.5824,-4.522,-4.4362,-4.4424,-4.4353,-4.3773,-4.4167,-4.451,-4.451,-4.4013,-4.36,-4.3324,-4.2795,-4.2392,-4.2092,-4.2092,-4.2092,-4.2092,-4.2092,-4.2051,-4.1953,-4.1883,-4.1883,-4.1953,-4.1897,-4.1939,-2.8461,-2.8917,-2.8979,-3.2814,-3.3364,-3.3473,-3.51,-3.4807,-3.4144,-3.4012,-3.3293,-3.2257,0.0,0.0,-3.2139,-3.3349,-3.4875,-3.6778,-3.9346,-4.0362,-3.9902,0.0,0.0,0.0,0.0,0.0,0.0,-3.6895,0.0,-3.6961,-3.8285,-3.8142,-3.9129,-4.1607,-4.2061,-4.2145,-4.1829,-4.3193,-4.3998,-4.4152,-4.264,-4.2574,-4.3782,-4.2493,-4.1652,-4.1176,-4.1957,-4.1577,-4.0614,-4.2584,-4.3442,-4.3545,-4.432,-4.4624,-4.4624,-4.4624,-4.4624,-4.4624,-4.4624,-4.4586,-4.4699,-4.5442,-4.5733,-4.5877,-4.6668,-4.6372,-4.5769,-4.5769,-4.5769,-4.5769,-4.5769,-4.6321,-4.6876,-4.6876,-4.6876,-4.6876,-4.6876,-4.6342,-4.5856,-4.5856,-4.5338,-4.5095,-4.5743,-4.6439,-4.6876,-4.6876,-4.6876,-4.6617,-4.5805,-4.5073,-4.4586,-4.4548,-4.4586,-4.4624,-4.4624,-4.4601,-4.4205,-4.3403,-4.3324,-4.2955,-4.2133,-4.2092,-4.2092,-4.2092,-4.2092,-4.198,-4.1744,-4.1995,-4.1953,-4.1744,-4.1995,-4.2092,-2.7611,-2.9549,-3.1795,-3.2853,-3.3862,-3.4661,-3.4848,-3.4528,-3.3568,-3.1357,-2.9836,-2.823,0.0,0.0,0.0,-3.0803,-3.2255,0.0,-3.7951,-3.7764,0.0,0.0,0.0,-3.9534,-3.8948,-4.0861,0.0,0.0,-3.9839,-4.0347,-4.0709,-4.1353,-4.1991,-4.2531,-4.3121,-4.3539,-4.3777,-4.4741,-4.5227,-4.53,-4.4893,-4.4555,-4.4343,-4.4555,-4.4598,-4.4476,-4.4676,-4.4909,-4.5151,-4.5097,-4.5426,-4.602,-4.6214,-4.6301,-4.6301,-4.6301,-4.6301,-4.6301,-4.6301,-4.5893,-4.5442,-4.5624,-4.6108,-4.6617,-4.6842,-4.6772,-4.6582,-4.6582,-4.6582,-4.6582,-4.6582,-4.6738,-4.6876,-4.6876,-4.6876,-4.6876,-4.6876,-4.6747,-4.6601,-4.6601,-4.6471,-4.6407,-4.6585,-4.6763,-4.6876,-4.6876,-4.6876,-4.6617,-4.5805,-4.6036,-4.6072,-4.5478,-4.5913,-4.6301,-4.6301,-4.5733,-4.5073,-4.4243,-4.3639,-4.2955,-4.2133,-4.2092,-4.2092,-4.2092,-4.2092,-4.2051,-4.1995,-4.2051,-4.2051,-4.1995,-4.2092,-4.2092,-3.0349,-3.1959,-3.3483,-3.3824,-3.4451,-3.4622,-3.3276,-3.2317,-3.102,-2.8486,-2.6991,0.0,0.0,0.0,0.0,0.0,0.0,0.0,-3.7297,-3.7204,-3.7281,0.0,-3.9522,0.0,-4.098,-4.2494,-4.3169,0.0,-4.1908,-4.1803,-4.2151,-4.2827,-4.3546,-4.4366,-4.4903,-4.5285,-4.5551,-4.5295,-4.5515,-4.6214,-4.5515,-4.5295,-4.5551,-4.5295,-4.5047,-4.4819,0.0,-4.5104,-4.5008,-4.5496,-4.5965,-4.6407,-4.6772,-4.6876,-4.6876,-4.6876,-4.6876,-4.6876,-4.6876,-4.6582,-4.6214,-4.6214,-4.6547,-4.6876,-4.6876,-4.6876,-4.6876,-4.6876,-4.6876,-4.6876,-4.6876,-4.6876,-4.6876,-4.6876,-4.6876,-4.6876,-4.6876,-4.6876,-4.6876,-4.6876,-4.6876,-4.6876,-4.6876,-4.6876,-4.6876,-4.6876,-4.6876,-4.6738,-4.6285,-4.6617,-4.6582,-4.5785,-4.6108,-4.6214,-4.5877,-4.5442,-4.4849,-4.4013,-4.356,-4.2955,-4.2133,-4.2092,-4.2092,-4.2092,-4.2092,-4.2092,-4.2092,-4.2092,-4.2092,-4.2092,-4.2092,-4.2092,-3.4073,-3.4515,-3.4352,-3.4964,-3.4891,-3.4029,-3.1575,-2.9853,-2.8139,-2.6,0.0,-2.3977,-2.3234,0.0,-2.6531,-2.937,0.0,-3.3165,-3.6599,-3.7374,-3.7761,-3.8256,-3.9122,-4.0214,-4.1657,-4.2901,-4.4157,-4.5383,-4.3737,-4.2964,-4.3602,-4.3839,-4.4677,-4.6343,-4.6738,-4.6876,-4.6876,-4.5515,-4.5515,-4.6876,-4.5478,-4.5551,-4.6842,-4.5442,-4.4575,-4.4172,0.0,0.0,-4.3223,-4.5096,-4.5841,-4.5929,-4.6617,-4.6876,-4.6876,-4.6876,-4.6876,-4.6892,-4.6876,-4.6876,-4.6876,-4.6876,-4.6876,-4.6876,-4.6876,-4.6876,-4.6876,-4.6876,-4.6876,-4.6876,-4.6876,-4.6876,-4.6876,-4.6876,-4.6876,-4.6876,-4.6876,-4.6876,-4.6876,-4.6876,-4.6876,-4.6876,-4.6876,-4.6876,-4.6876,-4.6876,-4.6876,-4.6876,-4.6876,-4.6876,-4.6617,-4.5913,-4.5841,-4.5588,-4.4887,-4.4812,-4.4434,-4.3521,-4.3482,-4.3061,-4.2133,-4.2092,-4.2092,-4.2092,-4.2092,-4.2092,-4.2092,-4.2092,-4.2092,-4.2092,-4.2051,-4.2051,-3.3063,-3.349,-3.4152,-3.467,-3.461,-3.4146,-3.3012,-3.1079,0.0,0.0,0.0,-2.3315,-2.3545,-2.5596,0.0,-3.1092,0.0,0.0,0.0,0.0,-3.677,0.0,0.0,0.0,0.0,0.0,0.0,0.0,0.0,-4.7693,-4.7549,-4.7291,-4.7082,-4.6807,-4.6842,-4.6876,-4.6876,-4.6617,-4.6617,-4.6876,-4.6633,-4.6617,-4.6876,-4.6617,-4.6424,-4.6358,-4.6421,0.0,-4.6171,-4.6542,-4.6703,-4.6703,-4.6842,-4.6876,-4.6876,-4.6703,-4.6772,-4.6876,-4.6703,-4.6772,-4.6876,-4.6876,-4.6876,-4.6876,-4.6876,-4.6876,-4.6876,-4.6876,-4.6876,-4.6876,-4.6876,-4.6876,-4.6876,-4.6876,-4.6876,-4.6876,-4.6876,-4.6876,-4.6876,-4.6876,-4.6876,-4.6876,-4.6876,-4.6876,-4.6876,-4.6876,-4.6876,-4.6876,-4.6876,-4.6876,-4.6842,-4.6703,-4.6703,-4.6633,-4.6512,-4.6477,-4.5841,-4.4396,-4.4282,-4.3639,-4.2175,-4.2092,-4.2092,-4.2092,-4.2092,-4.2092,-4.2092,-4.2092,-4.2092,-4.2092,-4.1883,-4.1744,-3.2916,-3.326,-3.3978,-3.4211,-3.4016,-3.2926,-2.9729,0.0,0.0,0.0,-2.1409,-2.1337,-2.2001,0.0,0.0,0.0,0.0,0.0,0.0,0.0,0.0,0.0,0.0,0.0,0.0,0.0,0.0,0.0,0.0,-4.7934,-4.8707,-4.8275,-4.7848,-4.7475,-4.7087,-4.6876,-4.6876,-4.6876,-4.6876,-4.6876,-4.6876,-4.6876,-4.6876,-4.6876,-4.6876,-4.6876,-4.6876,0.0,-4.5322,-4.632,-4.616,-4.5338,-4.6336,-4.6738,-4.6738,-4.6633,-4.6598,-4.658,-4.6474,-4.6509,-4.6615,-4.6703,-4.6807,-4.6876,-4.6876,-4.6876,-4.6876,-4.6876,-4.6876,-4.6876,-4.6876,-4.6876,-4.6876,-4.6876,-4.6876,-4.6876,-4.6876,-4.6876,-4.6876,-4.6876,-4.6876,-4.6876,-4.6876,-4.6876,-4.6876,-4.6876,-4.6876,-4.6876,-4.6876,-4.6876,-4.6738,-4.6321,-4.6285,-4.6108,-4.5697,-4.566,-4.5332,-4.4548,-4.451,-4.4143,-4.3379,-4.3354,-4.3354,-4.3354,-4.3354,-4.3354,-4.3354,-4.3235,-4.2955,-4.2511,-4.2293,-4.1937,-3.302,-3.3261,-3.3774,-3.3787,-3.3479,-3.19,-2.6948,-2.5617,0.0,0.0,-1.948,-2.0073,-2.1523,0.0,0.0,0.0,0.0,0.0,0.0,0.0,0.0,0.0,0.0,0.0,0.0,0.0,0.0,0.0,0.0,0.0,-4.9172,-4.8754,-4.8317,-4.8026,-4.7443,-4.7054,-4.6876,-4.6876,-4.6876,-4.6876,-4.6876,-4.6876,-4.6876,-4.6876,-4.6876,-4.6876,-4.6876,0.0,0.0,-4.5798,-4.5411,-4.3816,-4.5778,-4.6528,-4.6528,-4.6493,-4.6404,-4.6314,-4.6278,-4.6278,-4.6333,-4.6493,-4.6668,-4.6842,-4.6892,-4.6876,-4.6876,-4.6876,-4.6876,-4.6876,-4.6876,-4.6876,-4.6876,-4.6876,-4.6876,-4.6876,-4.6876,-4.6876,-4.6876,-4.6876,-4.6876,-4.6876,-4.6876,-4.6876,-4.6876,-4.6876,-4.6876,-4.6876,-4.6876,-4.6876,-4.6668,-4.6036,-4.5965,-4.5697,-4.5073,-4.5036,-4.4962,-4.4774,-4.4774,-4.4662,-4.451,-4.451,-4.451,-4.451,-4.451,-4.4488,-4.445,-4.4297,-4.3819,-4.3096,-4.271,-4.2211,-3.2926,-3.3335,-3.3653,-3.35,-3.3317,-3.2295,-2.8885,0.0,0.0,-2.2757,-2.1241,-2.1418,-2.4724,-2.5341,0.0,0.0,0.0,0.0,0.0,0.0,0.0,0.0,0.0,0.0,0.0,0.0,0.0,0.0,0.0,0.0,-5.0034,-4.9936,-4.9321,-4.8058,-4.7945,-4.7572,-4.6927,-4.6876,-4.6876,-4.6876,-4.6876,-4.6876,-4.6876,-4.6876,-4.6876,-4.6876,-4.6876,0.0,0.0,-4.5798,-4.5343,-4.362,-4.5587,-4.6333,-4.6298,-4.6187,-4.6223,-4.6262,-4.6168,-4.6187,-4.6298,-4.6333,-4.6458,-4.6668,-4.6842,-4.6876,-4.6876,-4.6876,-4.6876,-4.6876,-4.6876,-4.6876,-4.6876,-4.6876,-4.6876,-4.6876,-4.6876,-4.6876,-4.6876,-4.6876,-4.6876,-4.6876,-4.6876,-4.6876,-4.6876,-4.6876,-4.6876,-4.6876,-4.6876,-4.6876,-4.6876,-4.6807,-4.6772,-4.6772,-4.6703,-4.6687,-4.6372,-4.5624,-4.5588,-4.5258,-4.451,-4.451,-4.451,-4.451,-4.451,-4.4412,-4.422,-4.422,-4.4066,-4.3756,-4.2776,-4.229,-3.1117,-3.1796,-3.2551,-3.2551,-3.2575,-3.1503,-2.7354,0.0,0.0,-2.1501,-2.062,-2.0967,-2.2506,-2.2773,-2.3802,0.0,0.0,0.0,0.0,0.0,0.0,0.0,0.0,0.0,0.0,0.0,0.0,0.0,0.0,0.0,-5.0681,-5.0341,-4.9645,-4.8605,-4.822,-4.7653,-4.6892,-4.6876,-4.6876,-4.6876,-4.6876,-4.6876,-4.6876,-4.6876,-4.6876,-4.6876,-4.6772,0.0,0.0,-4.506,-4.4401,-4.1787,-4.4968,-4.6187,-4.6152,-4.6096,-4.606,-4.5972,-4.5952,-4.5952,-4.6008,-4.6152,-4.6223,-4.6314,-4.6474,-4.6545,-4.6545,-4.6545,-4.6649,-4.6738,-4.6738,-4.6807,-4.6876,-4.6876,-4.6876,-4.6876,-4.6876,-4.6876,-4.6876,-4.6876,-4.6876,-4.6876,-4.6876,-4.6876,-4.6876,-4.6876,-4.6876,-4.6876,-4.6876,-4.6876,-4.6876,-4.6876,-4.6876,-4.6876,-4.6876,-4.6876,-4.6772,-4.6442,-4.6442,-4.6285,-4.5965,-4.5949,-4.5949,-4.5949,-4.5841,-4.5733,-4.566,-4.5452,-4.503,-4.4434,-4.3881,-4.3358,-2.9939,-3.0978,-3.2186,-3.2313,-3.1998,-3.0505,0.0,0.0,0.0,-1.9775,-1.9623,-2.036,-2.0663,-2.0778,-2.1739,-2.4518,0.0,-2.6473,0.0,0.0,0.0,0.0,0.0,0.0,0.0,0.0,0.0,0.0,0.0,0.0,0.0,-5.0066,-4.9548,-4.901,-4.8524,-4.7848,-4.6892,-4.6876,-4.6876,-4.6876,-4.6876,-4.6552,-4.5969,-4.6601,-4.6502,-4.5902,0.0,0.0,0.0,-4.474,-4.4068,-4.1341,-4.4681,-4.6004,-4.6004,-4.6004,-4.5916,-4.5807,-4.5807,-4.5807,-4.5807,-4.5968,-4.6004,-4.6024,-4.61,-4.6207,-4.6298,-4.6298,-4.6388,-4.6528,-4.6582,-4.6703,-4.6807,-4.6892,-4.6876,-4.6876,-4.6876,-4.6876,-4.6876,-4.6876,-4.6876,-4.6876,-4.6876,-4.6876,-4.6876,-4.6876,-4.6876,-4.6876,-4.6876,-4.6876,-4.6876,-4.6876,-4.6876,-4.6876,-4.6876,-4.6876,-4.6876,-4.6876,-4.6876,-4.6876,-4.6876,-4.6842,-4.6807,-4.6807,-4.6598,-4.6528,-4.6528,-4.6223,-4.5776,-4.5179,-4.4715,-4.4036,-2.9936,-3.1463,-3.3012,-3.3156,-3.1784,-2.9475,0.0,0.0,0.0,-1.8238,-1.8639,-1.9877,-2.0403,-2.0729,-2.1933,-2.5082,-2.5601,0.0,0.0,0.0,0.0,0.0,0.0,0.0,0.0,0.0,0.0,0.0,0.0,0.0,0.0,-4.901,-4.8994,-4.8994,-4.8977,-4.8333,-4.6892,-4.6876,-4.6876,-4.6876,-4.6876,-4.5775,-4.3816,-4.5921,-4.5625,0.0,0.0,0.0,0.0,-4.5276,-4.4805,-4.3055,-4.5057,-4.5807,-4.5807,-4.5807,-4.5807,-4.5807,-4.5807,-4.5807,-4.5807,-4.5807,-4.5807,-4.5807,-4.5807,-4.6044,-4.6298,-4.6298,-4.6298,-4.6333,-4.6563,-4.6582,-4.6652,-4.6842,-4.6876,-4.6876,-4.6876,-4.6876,-4.6876,-4.6876,-4.6876,-4.6876,-4.6876,-4.6876,-4.6876,-4.6876,-4.6876,-4.6876,-4.6876,-4.6876,-4.6876,-4.6876,-4.6876,-4.6876,-4.6876,-4.6876,-4.6876,-4.6876,-4.6876,-4.6876,-4.6876,-4.6703,-4.6582,-4.6582,-4.6404,-4.6298,-4.6298,-4.6168,-4.6112,-4.6076,-4.4993,-4.4036,-2.6956,-2.7667,-2.812,-2.764,-2.7215,-2.612,-2.3061,0.0,0.0,0.0,-1.8936,-1.9751,-1.9923,-2.0462,-2.1793,-2.4534,-2.4978,0.0,0.0,0.0,0.0,0.0,0.0,0.0,0.0,0.0,0.0,0.0,0.0,0.0,0.0,-4.8994,-4.8767,-4.835,-4.8333,-4.7864,-4.6892,-4.6876,-4.6876,-4.6876,-4.6876,-4.5775,-4.3783,-4.5769,0.0,0.0,0.0,0.0,0.0,-4.51,-4.4716,-4.3087,-4.5021,-4.5807,-4.5807,-4.5807,-4.5807,-4.5807,-4.5807,-4.5807,-4.5807,-4.5807,-4.5807,-4.5807,-4.5807,-4.588,-4.5972,-4.6116,-4.6152,-4.6223,-4.6528,-4.6582,-4.6652,-4.6842,-4.6876,-4.6876,-4.6876,-4.6876,-4.6876,-4.6876,-4.6876,-4.6876,-4.6876,-4.6876,-4.6876,-4.6876,-4.6876,-4.6876,-4.6876,-4.6876,-4.6876,-4.6876,-4.6876,-4.6876,-4.6876,-4.6876,-4.6876,-4.6876,-4.6772,-4.6687,-4.6687,-4.6493,-4.6388,-4.6388,-4.6259,-4.6152,-4.6152,-4.5988,-4.588,-4.588,-4.5573,-4.5247,0.0,-2.5735,-2.6274,-2.5841,-2.5321,0.0,0.0,0.0,0.0,0.0,0.0,0.0,0.0,-2.0982,-2.2596,0.0,0.0,0.0,0.0,0.0,0.0,0.0,0.0,0.0,0.0,0.0,0.0,0.0,0.0,0.0,0.0,-4.822,-4.8026,-4.7605,-4.7864,-4.7653,-4.6892,-4.6876,-4.6876,-4.6876,-4.6876,-4.5741,-4.3654,-4.5701,0.0,0.0,0.0,0.0,0.0,-4.5342,-4.5085,-4.4129,-4.5338,-4.5807,-4.5807,-4.5807,-4.5807,-4.5807,-4.592,-4.5992,-4.6028,-4.6171,-4.6223,-4.6223,-4.6223,-4.6008,-4.5823,-4.5952,-4.6004,-4.606,-4.6404,-4.6493,-4.6563,-4.6842,-4.6876,-4.6876,-4.6876,-4.6876,-4.6876,-4.6876,-4.6876,-4.6876,-4.6876,-4.6876,-4.6876,-4.6876,-4.6858,-4.6807,-4.6876,-4.6842,-4.6807,-4.6876,-4.6876,-4.6876,-4.6807,-4.6772,-4.6772,-4.6772,-4.6598,-4.6493,-4.6493,-4.6314,-4.6207,-4.6207,-4.6132,-4.6132,-4.6203,-4.6044,-4.59,-4.5807,-4.5807,-4.5807,0.0,-2.4963,0.0,0.0,0.0,0.0,0.0,0.0,0.0,0.0,0.0,0.0,0.0,0.0,0.0,0.0,0.0,0.0,0.0,0.0,0.0,0.0,0.0,0.0,0.0,0.0,0.0,0.0,0.0,0.0,0.0,-4.6892,-4.6858,-4.6858,-4.7537,-4.7589,-4.6892,-4.6876,-4.6811,-4.6649,-4.6811,-4.5577,-4.325,-4.5518,0.0,0.0,0.0,0.0,0.0,-4.5807,-4.5807,-4.5807,-4.5807,-4.5807,-4.5844,-4.5844,-4.5844,-4.59,-4.6246,-4.6321,-4.6391,-4.6772,-4.6876,-4.6876,-4.6876,-4.642,-4.5844,-4.5844,-4.5807,-4.588,-4.6207,-4.6298,-4.6404,-4.6807,-4.6876,-4.6876,-4.6876,-4.6876,-4.6876,-4.6876,-4.6876,-4.6876,-4.6876,-4.6876,-4.6892,-4.6876,-4.6738,-4.6687,-4.6858,-4.6738,-4.6703,-4.6876,-4.6892,-4.6807,-4.6633,-4.6582,-4.6582,-4.6582,-4.6404,-4.6278,-4.6278,-4.6168,-4.6076,-4.6076,-4.6112,-4.6168,-4.6298,-4.6298,-4.6152,-4.5807,-4.5807,-4.5807,-2.059,0.0,-2.0203,-2.0273,-1.9955,-1.959,0.0,0.0,0.0,0.0,0.0,0.0,0.0,0.0,0.0,0.0,0.0,0.0,0.0,0.0,0.0,0.0,0.0,0.0,0.0,0.0,0.0,0.0,0.0,0.0,0.0,-4.6528,-4.6439,-4.6439,-4.6775,-4.6915,-4.6876,-4.6876,-4.6067,-4.448,-4.5963,-4.4652,-4.1079,-4.4619,0.0,0.0,0.0,0.0,-4.5807,-4.5807,-4.5807,-4.5807,-4.5807,-4.5972,-4.6175,-4.6175,-4.6388,-4.6649,-4.6738,-4.6772,-4.6772,-4.6876,-4.6876,-4.6876,-4.6876,-4.6563,-4.6175,-4.6175,-4.5992,-4.588,-4.6207,-4.6298,-4.6404,-4.6807,-4.6876,-4.6876,-4.6876,-4.6876,-4.6876,-4.6876,-4.6876,-4.6876,-4.6876,-4.6876,-4.6842,-4.6703,-4.6772,-4.6772,-4.6687,-4.6772,-4.6842,-4.6876,-4.6772,-4.6652,-4.6582,-4.6582,-4.6528,-4.6369,-4.6223,-4.6132,-4.6132,-4.5952,-4.588,-4.588,-4.6024,-4.6168,-4.6298,-4.6298,-4.6223,-4.604,-4.604,-4.5952,-1.9336,-1.9233,-1.9226,-2.0279,-1.9803,-1.9249,0.0,0.0,0.0,0.0,0.0,0.0,0.0,0.0,0.0,0.0,0.0,0.0,0.0,0.0,0.0,0.0,0.0,0.0,0.0,0.0,0.0,0.0,0.0,0.0,0.0,-4.6404,-4.6298,-4.6298,-4.6404,-4.6493,-4.6598,-4.6703,-4.5672,-4.3606,-4.5516,-4.4741,-4.1644,-4.4705,-4.5405,0.0,0.0,0.0,-4.5744,-4.4851,-4.5009,-4.5807,-4.5956,-4.614,-4.6321,-4.6512,-4.6703,-4.6911,-4.7082,-4.7252,-4.7404,-4.7404,-4.7404,-4.7404,-4.7404,-4.7116,-4.6775,-4.6617,-4.6423,-4.6349,-4.6545,-4.658,-4.6615,-4.6738,-4.6772,-4.6738,-4.6633,-4.6703,-4.6738,-4.6633,-4.6703,-4.6738,-4.6649,-4.6598,-4.658,-4.6458,-4.6509,-4.6561,-4.6582,-4.658,-4.658,-4.6738,-4.6598,-4.6439,-4.6385,-4.6385,-4.6314,-4.6223,-4.606,-4.5952,-4.5952,-4.5952,-4.6024,-4.6171,-4.6171,-4.6278,-4.6423,-4.6333,-4.6207,-4.6112,-4.6004,-4.588,-1.9111,-1.9823,-2.0673,-2.2647,-2.1477,-2.0275,-2.1932,0.0,0.0,0.0,0.0,0.0,0.0,0.0,0.0,0.0,0.0,0.0,0.0,0.0,0.0,0.0,0.0,0.0,0.0,0.0,0.0,0.0,0.0,0.0,0.0,-4.6333,-4.6227,-4.6227,-4.6243,-4.6243,-4.6227,-4.6423,-4.5486,-4.3394,-4.5325,-4.516,-4.3146,-4.5126,-4.5968,0.0,0.0,0.0,-4.5681,-4.4034,-4.4335,-4.588,-4.6156,-4.6337,-4.6477,-4.6807,-4.6996,-4.7132,-4.7387,-4.7704,-4.8001,-4.8001,-4.8001,-4.8001,-4.8001,-4.7737,-4.7421,-4.7167,-4.6996,-4.6927,-4.6927,-4.6911,-4.6858,-4.6703,-4.6617,-4.6547,-4.6333,-4.6423,-4.6493,-4.6333,-4.6423,-4.6493,-4.6333,-4.6298,-4.6298,-4.6262,-4.6223,-4.6259,-4.6493,-4.6314,-4.6259,-4.6528,-4.6369,-4.6207,-4.6112,-4.6076,-4.6076,-4.6112,-4.5952,-4.5859,-4.5859,-4.6004,-4.6259,-4.6563,-4.6404,-4.6404,-4.6582,-4.6439,-4.6243,-4.6112,-4.5932,-4.5807,-2.0746,-2.1126,-2.1329,-2.2224,-2.0537,-1.9305,-2.1735,0.0,0.0,0.0,0.0,0.0,0.0,0.0,0.0,0.0,0.0,0.0,0.0,0.0,0.0,0.0,0.0,0.0,0.0,0.0,0.0,0.0,0.0,0.0,0.0,0.0,-4.588,-4.588,-4.6024,-4.606,-4.588,-4.6207,-4.5261,-4.3181,-4.5183,-4.4999,-4.3011,-4.495,-4.5807,0.0,0.0,-4.5507,-4.5792,-4.546,-4.5631,-4.6076,-4.6096,-4.649,-4.7064,-4.7132,-4.7454,-4.782,-4.7886,-4.7968,-4.8001,-4.8001,-4.8001,-4.8001,-4.8001,-4.7968,-4.7902,-4.7869,-4.737,-4.6927,-4.7098,-4.703,-4.6876,-4.6842,-4.6722,-4.6547,-4.6333,-4.6333,-4.6333,-4.6298,-4.6333,-4.6333,-4.6298,-4.6298,-4.6243,-4.6168,-4.6349,-4.6439,-4.6203,-4.6385,-4.6458,-4.6369,-4.6223,-4.6096,-4.6112,-4.5952,-4.5916,-4.6112,-4.6076,-4.606,-4.606,-4.6076,-4.6203,-4.6333,-4.6333,-4.6404,-4.6582,-4.6547,-4.6404,-4.6112,-4.6076,-4.5952,-2.0498,-2.0626,-2.1107,-2.4394,-2.289,-2.1729,-2.5979,0.0,0.0,0.0,0.0,0.0,0.0,0.0,0.0,0.0,0.0,0.0,0.0,0.0,0.0,0.0,0.0,0.0,0.0,0.0,0.0,0.0,0.0,0.0,0.0,0.0,-4.5634,-4.5238,-4.5294,-4.512,-4.4685,-4.4811,-4.4252,-4.3014,-4.4973,-4.4858,-4.296,-4.493,-4.5807,-4.5744,0.0,-4.4835,-4.5713,-4.484,-4.517,-4.6227,-4.6561,-4.6943,-4.732,-4.7554,-4.7803,-4.8001,-4.8001,-4.8001,-4.8001,-4.8001,-4.8001,-4.8001,-4.8001,-4.8001,-4.8001,-4.8001,-4.777,-4.7471,-4.7471,-4.7268,-4.7064,-4.7064,-4.67,-4.6314,-4.6317,-4.6227,-4.6152,-4.6044,-4.6116,-4.6152,-4.6044,-4.6044,-4.6008,-4.5952,-4.608,-4.6136,-4.6112,-4.6152,-4.6171,-4.6187,-4.6024,-4.5932,-4.5932,-4.5844,-4.5896,-4.6076,-4.6168,-4.6259,-4.6385,-4.6259,-4.6278,-4.6458,-4.6369,-4.6333,-4.6423,-4.6385,-4.6259,-4.6112,-4.6004,-4.6158,-2.0237,-2.0352,-2.1186,-2.6119,-2.4467,-2.3238,-2.9475,0.0,0.0,0.0,0.0,0.0,0.0,0.0,0.0,0.0,0.0,0.0,0.0,0.0,0.0,0.0,0.0,0.0,0.0,0.0,0.0,0.0,0.0,0.0,0.0,0.0,-4.5286,-4.4733,-4.4559,-4.4243,-4.3703,-4.3687,-4.3487,-4.3117,-4.4594,-4.4515,-4.3149,-4.4626,-4.5317,-4.5238,-4.373,-4.3971,-4.5334,-4.4285,-4.4809,-4.6322,-4.6965,-4.7302,-4.7521,-4.7853,-4.8001,-4.8001,-4.8001,-4.8001,-4.8001,-4.8001,-4.8001,-4.8001,-4.8001,-4.8001,-4.8001,-4.8001,-4.8001,-4.7968,-4.782,-4.7538,-4.7319,-4.7268,-4.6805,-4.6365,-4.6407,-4.6369,-4.6223,-4.5972,-4.6044,-4.608,-4.5844,-4.5807,-4.5807,-4.5807,-4.5844,-4.5916,-4.604,-4.5932,-4.5916,-4.604,-4.588,-4.5807,-4.5807,-4.588,-4.5988,-4.6132,-4.6278,-4.6423,-4.6582,-4.6458,-4.6423,-4.6528,-4.6369,-4.6262,-4.6243,-4.6168,-4.6076,-4.604,-4.6074,-4.6459,-2.0949,-2.1534,-2.2312,-2.552,-2.26,0.0,-2.9085,-2.5172,0.0,-3.1487,0.0,0.0,0.0,0.0,0.0,0.0,0.0,0.0,0.0,0.0,0.0,0.0,0.0,0.0,0.0,0.0,0.0,0.0,0.0,0.0,0.0,0.0,0.0,-4.4717,-4.4082,-4.3734,-4.3687,-4.3687,-4.369,-4.3643,-4.3766,-4.3801,-4.3658,-4.3801,-4.3845,-4.3829,-4.3722,-4.3894,-4.4345,-4.4925,-4.5522,-4.6205,-4.6922,-4.7404,-4.7704,-4.7935,-4.8001,-4.8001,-4.8001,-4.8001,-4.8001,-4.8001,-4.8001,-4.8001,-4.8001,-4.8001,-4.8001,-4.8001,-4.8001,-4.8001,-4.7968,-4.782,-4.7638,-4.7421,-4.7268,-4.7064,-4.6892,-4.6858,-4.6738,-4.6337,-4.6266,-4.6175,-4.588,-4.5807,-4.5807,-4.5807,-4.5968,-4.604,-4.5844,-4.5952,-4.6004,-4.5844,-4.5807,-4.5807,-4.5807,-4.608,-4.6262,-4.6262,-4.6458,-4.6582,-4.6582,-4.6582,-4.6493,-4.6333,-4.6298,-4.6243,-4.6096,-4.6096,-4.5988,-4.5823,-4.6639,-4.705,-2.0673,-2.1053,-2.2189,-2.683,-2.4065,0.0,0.0,-2.7654,-2.5753,-3.5387,0.0,0.0,0.0,0.0,0.0,0.0,0.0,0.0,0.0,0.0,0.0,0.0,0.0,0.0,0.0,0.0,0.0,0.0,0.0,0.0,0.0,0.0,0.0,-4.3469,-4.3216,-4.2853,-4.2394,-4.2595,-4.2695,-4.2711,-4.3586,-4.3999,-4.4034,-4.4237,-4.4305,-4.4305,-4.4305,-4.4406,-4.4555,-4.508,-4.544,-4.5701,-4.6618,-4.6996,-4.7078,-4.7753,-4.8001,-4.8001,-4.8001,-4.8001,-4.8001,-4.8001,-4.8001,-4.8001,-4.8001,-4.8001,-4.8001,-4.8001,-4.8001,-4.8001,-4.8001,-4.7737,-4.7555,-4.7737,-4.737,-4.7064,-4.7184,-4.7048,-4.6858,-4.6687,-4.6652,-4.6563,-4.6175,-4.6104,-4.6048,-4.5844,-4.5844,-4.5896,-4.5807,-4.588,-4.588,-4.5807,-4.5807,-4.5844,-4.5968,-4.6171,-4.6369,-4.6493,-4.6668,-4.6772,-4.6772,-4.6668,-4.6493,-4.6298,-4.6223,-4.6096,-4.5916,-4.5916,-4.6138,-4.6623,-4.695,-4.7706,-2.0156,-2.0347,-2.1527,-2.6493,0.0,0.0,-3.1662,-2.9421,-2.79,0.0,0.0,0.0,0.0,0.0,0.0,0.0,0.0,0.0,0.0,0.0,0.0,0.0,0.0,0.0,0.0,0.0,0.0,0.0,0.0,0.0,0.0,0.0,0.0,0.0,-4.2457,-4.2094,-4.1588,-4.1948,-4.2109,-4.2109,-4.3282,-4.3814,-4.3699,-4.3945,-4.4042,-4.4042,-4.4042,-4.4124,-4.422,-4.4754,-4.5142,-4.5532,-4.6266,-4.648,-4.6433,-4.7074,-4.7454,-4.7653,-4.7653,-4.7819,-4.8001,-4.8001,-4.8001,-4.8001,-4.8001,-4.8001,-4.8001,-4.8001,-4.8001,-4.8001,-4.8001,-4.7787,-4.7671,-4.7935,-4.7621,-4.7302,-4.7538,-4.7404,-4.7201,-4.7082,-4.7048,-4.6911,-4.6407,-4.6285,-4.6211,-4.5844,-4.5807,-4.5807,-4.5807,-4.5807,-4.5807,-4.5807,-4.5807,-4.588,-4.6076,-4.6207,-4.6404,-4.6582,-4.6772,-4.6876,-4.6807,-4.6652,-4.6493,-4.6243,-4.6132,-4.5988,-4.5807,-4.6013,-4.6434,-4.704,-4.758,-4.852,-1.9528,-1.9593,-2.0442,0.0,0.0,0.0,0.0,-2.9909,0.0,0.0,0.0,0.0,0.0,0.0,0.0,0.0,0.0,0.0,0.0,0.0,0.0,0.0,0.0,0.0,0.0,0.0,0.0,0.0,0.0,0.0,0.0,0.0,0.0,0.0,-4.1968,-4.1588,-4.1588,-4.1948,-4.2109,-4.2109,-4.2789,-4.2943,-4.2617,-4.2617,-4.2617,-4.2617,-4.2617,-4.2803,-4.3162,-4.3883,-4.484,-4.5765,-4.5781,-4.5781,-4.5781,-4.5798,-4.6245,-4.6891,-4.6891,-4.7371,-4.7984,-4.7984,-4.8001,-4.8001,-4.8001,-4.8001,-4.8001,-4.8001,-4.8001,-4.8001,-4.8001,-4.8001,-4.8001,-4.8001,-4.8001,-4.8001,-4.8001,-4.8001,-4.7886,-4.7488,-4.7404,-4.7168,-4.6426,-4.6285,-4.6211,-4.588,-4.5807,-4.5807,-4.5807,-4.5807,-4.5807,-4.5807,-4.5807,-4.588,-4.6112,-4.6223,-4.6404,-4.6582,-4.6772,-4.6807,-4.6617,-4.6582,-4.6439,-4.6112,-4.6112,-4.6004,-4.5823,-4.6487,-4.6803,-4.685,-4.8679,-4.9523,-2.2697,-2.1978,0.0,0.0,0.0,0.0,0.0,0.0,0.0,0.0,0.0,0.0,0.0,0.0,0.0,0.0,0.0,0.0,0.0,0.0,0.0,0.0,0.0,0.0,0.0,0.0,0.0,0.0,0.0,0.0,0.0,0.0,0.0,0.0,-4.1699,-4.172,-4.1948,-4.227,-4.2555,-4.2789,-4.3235,-4.3265,-4.2943,-4.3204,-4.3295,-4.3295,-4.3295,-4.3372,-4.3449,-4.3572,-4.3817,-4.4155,-4.4684,-4.4927,-4.5086,-4.5599,-4.593,-4.6129,-4.6129,-4.6609,-4.7222,-4.7222,-4.7587,-4.8001,-4.8001,-4.8001,-4.8001,-4.8001,-4.8001,-4.8001,-4.8001,-4.8001,-4.8001,-4.8001,-4.8001,-4.8001,-4.8001,-4.8001,-4.7968,-4.7853,-4.782,-4.7671,-4.7168,-4.686,-4.6598,-4.6211,-4.5956,-4.5807,-4.5807,-4.5807,-4.5844,-4.6004,-4.6004,-4.6116,-4.6439,-4.6493,-4.6598,-4.6807,-4.6876,-4.6807,-4.6617,-4.6458,-4.6314,-4.6096,-4.5968,-4.6081,-4.6503,-4.6856,-4.7532,-4.8517,-4.9331,-4.9984,-2.4008,0.0,0.0,0.0,0.0,0.0,0.0,0.0,0.0,0.0,0.0,0.0,0.0,0.0,0.0,0.0,0.0,0.0,0.0,0.0,0.0,0.0,0.0,0.0,0.0,0.0,0.0,0.0,0.0,0.0,0.0,0.0,0.0,0.0,-4.1932,-4.2093,-4.2285,-4.2649,-4.2898,-4.3096,-4.3432,-4.3462,-4.3235,-4.3462,-4.3598,-4.3598,-4.3598,-4.3568,-4.3492,-4.3432,-4.3342,-4.3314,-4.3758,-4.3984,-4.4125,-4.4632,-4.5026,-4.5305,-4.5351,-4.5847,-4.646,-4.646,-4.6957,-4.7554,-4.7554,-4.7769,-4.8001,-4.8001,-4.8001,-4.8001,-4.8001,-4.8001,-4.8001,-4.8001,-4.8001,-4.8001,-4.8001,-4.8001,-4.8001,-4.8001,-4.8001,-4.7853,-4.7488,-4.7116,-4.6772,-4.6372,-4.6012,-4.5807,-4.5916,-4.5916,-4.5988,-4.6152,-4.6187,-4.6278,-4.6598,-4.6582,-4.6703,-4.6892,-4.6876,-4.6772,-4.6493,-4.6369,-4.6207,-4.6004,-4.6112,-4.6408,-4.6803,-4.7468,-4.8294,-4.9213,-4.9827,-5.0402,0.0,0.0,0.0,0.0,0.0,0.0,0.0,0.0,0.0,0.0,0.0,0.0,0.0,0.0,0.0,0.0,0.0,0.0,0.0,0.0,0.0,0.0,0.0,0.0,0.0,0.0,0.0,0.0,0.0,0.0,0.0,0.0,0.0,-4.2109,-4.2444,-4.2617,-4.2648,-4.2943,-4.3113,0.0,-4.3432,-4.3539,-4.3402,-4.3539,-4.3598,-4.3598,-4.3598,-4.3509,-4.3342,-4.3342,-4.3251,-4.3082,-4.3082,-4.3082,-4.3113,-4.3312,-4.38,-4.4408,-4.4544,-4.5069,-4.5698,-4.5698,-4.6195,-4.6792,-4.6792,-4.7305,-4.7901,-4.7901,-4.7951,-4.8001,-4.8001,-4.8001,-4.8001,-4.8001,-4.8001,-4.8001,-4.8001,-4.8001,-4.8001,-4.8001,-4.8001,-4.7886,-4.7521,-4.7184,-4.6807,-4.6407,-4.6112,-4.6011,-4.6227,-4.6279,-4.6299,-4.6429,-4.6381,-4.6404,-4.6617,-4.6617,-4.6703,-4.6892,-4.6876,-4.6735,-4.6394,-4.6346,-4.6168,-4.5902,-4.6487,-4.6866,-4.6992,-4.8295,-4.9036,-4.927,-5.0208,-5.0705,0.0,0.0,0.0,0.0,0.0,0.0,0.0,0.0,0.0,0.0,0.0,0.0,0.0,0.0,0.0,0.0,0.0,0.0,0.0,0.0,0.0,0.0,0.0,0.0,0.0,0.0,0.0,0.0,0.0,0.0,0.0,0.0,0.0,-4.2109,-4.2444,-4.271,-4.3005,-4.3066,-4.3174,0.0,-4.3402,-4.3449,-4.3402,-4.3539,-4.3539,-4.3432,-4.3432,-4.3298,-4.3023,-4.3023,-4.2992,-4.2945,-4.2945,-4.3007,-4.3113,-4.3143,-4.3363,-4.3649,-4.3663,-4.4233,-4.492,-4.492,-4.5433,-4.603,-4.603,-4.6543,-4.7139,-4.7139,-4.7554,-4.8001,-4.8001,-4.8001,-4.8001,-4.8001,-4.8001,-4.8001,-4.8001,-4.8001,-4.8001,-4.8001,-4.8001,-4.7968,-4.7886,-4.7571,-4.7168,-4.6842,-4.6924,-4.7185,-4.7539,-4.7452,-4.7416,-4.7629,-4.6972,-4.6633,-4.6807,-4.6858,-4.6842,-4.6876,-4.6876,-4.6977,-4.7149,-4.6602,-4.6391,-4.6582,-4.6724,-4.734,-4.8446,-4.89,-4.9367,-4.9789,-5.0509,-5.0781,0.0,0.0,0.0,0.0,0.0,0.0,0.0,0.0,0.0,0.0,0.0,0.0,0.0,0.0,0.0,0.0,0.0,0.0,0.0,0.0,0.0,0.0,0.0,0.0,0.0,0.0,0.0,0.0,0.0,0.0,0.0,-4.2061,-4.2523,-4.2586,-4.2912,-4.3174,-4.3342,-4.3281,-4.3312,-4.3402,-4.3312,-4.3281,-4.3265,-4.3432,-4.3402,-4.3281,-4.3281,-4.3129,-4.2899,-4.2899,-4.2837,-4.2775,-4.2775,-4.279,-4.2867,-4.2976,-4.3113,-4.3265,-4.3372,-4.374,-4.4175,-4.4175,-4.4671,-4.5251,-4.5251,-4.5781,-4.6444,-4.6792,-4.7173,-4.7554,-4.7918,-4.8001,-4.7968,-4.7886,-4.7935,-4.8001,-4.8001,-4.8001,-4.8001,-4.8001,-4.8001,-4.8001,-4.8001,-4.7671,-4.7286,-4.6945,-4.7351,-4.7803,-4.8102,-4.7961,-4.7926,-4.8118,-4.7313,-4.6772,-4.6876,-4.6876,-4.6876,-4.6876,-4.6876,-4.7042,-4.7373,-4.7017,-4.6964,-4.7308,-4.764,-4.8162,-4.8889,-4.9337,-4.974,-5.0089,-5.0457,-5.0666,0.0,0.0,0.0,0.0,0.0,0.0,0.0,0.0,0.0,0.0,0.0,0.0,0.0,0.0,0.0,0.0,0.0,0.0,0.0,0.0,0.0,0.0,0.0,0.0,0.0,0.0,0.0,0.0,0.0,0.0,-4.1245,-4.2279,-4.2914,-4.3052,-4.3372,-4.3539,-4.3568,-4.3432,-4.3342,-4.3312,-4.3143,-4.3052,-4.3021,-4.3221,-4.3221,-4.3082,-4.3082,-4.2976,-4.2837,-4.2837,-4.2728,-4.2602,-4.2602,-4.2602,-4.2634,-4.2806,-4.2945,-4.3113,-4.3281,-4.3462,-4.3598,-4.3598,-4.4026,-4.4506,-4.4475,-4.5019,-4.5732,-4.6313,-4.6709,-4.704,-4.7653,-4.7901,-4.7968,-4.7754,-4.782,-4.7968,-4.7968,-4.7968,-4.8001,-4.8001,-4.8001,-4.8001,-4.8001,-4.7671,-4.7354,-4.7116,-4.7779,-4.8367,-4.8593,-4.8551,-4.8532,-4.8523,-4.7682,-4.7091,-4.6927,-4.6876,-4.6876,-4.6876,-4.7006,-4.7184,-4.7565,-4.7673,-4.7888,-4.8241,-4.8667,-4.8952,-4.9062,-4.9647,-5.001,-5.0223,-5.0262,-5.0457,0.0,0.0,0.0,0.0,0.0,0.0,0.0,0.0,0.0,0.0,0.0,0.0,0.0,0.0,0.0,0.0,0.0,0.0,0.0,0.0,0.0,0.0,0.0,0.0,0.0,0.0,0.0,0.0,0.0,0.0,-4.1917,-4.238,-4.2728,-4.293,-4.3082,-4.3235,-4.3449,-4.3251,-4.3082,-4.2961,-4.293,-4.2837,-4.2649,-4.2868,-4.2961,-4.293,-4.293,-4.2837,-4.2634,-4.2634,-4.2634,-4.2602,-4.2602,-4.2602,-4.2602,-4.2634,-4.2836,-4.3096,-4.3143,-4.3325,-4.3598,-4.3598,-4.3664,-4.3731,-4.3611,-4.4167,-4.4854,-4.4832,-4.582,-4.6924,-4.7023,-4.752,-4.7968,-4.7754,-4.7704,-4.7737,-4.7737,-4.7886,-4.8001,-4.8001,-4.8001,-4.8001,-4.8001,-4.7671,-4.7488,-4.782,-4.8737,-4.9538,-4.9883,-5.0342,-5.0282,-4.9517,-4.864,-4.7781,-4.6975,-4.6876,-4.6876,-4.6876,-4.7351,-4.7814,-4.8248,-4.8706,-4.9168,-4.9631,-4.9141,-4.9189,-4.9789,-4.9844,-4.9931,-4.9971,-5.0184,-5.034,0.0,0.0,0.0,0.0,0.0,0.0,0.0,0.0,0.0,0.0,0.0,0.0,0.0,0.0,0.0,0.0,0.0,0.0,0.0,0.0,0.0,0.0,0.0,0.0,0.0,0.0,0.0,0.0,0.0,-4.115,-4.1801,-4.2423,-4.2852,-4.3007,-4.3082,-4.3143,-4.3235,-4.3068,-4.2914,-4.2728,-4.2728,-4.2696,-4.2619,-4.3118,-4.3117,-4.2728,-4.2728,-4.2665,-4.2602,-4.2602,-4.2602,-4.2602,-4.2602,-4.2602,-4.2602,-4.2602,-4.2805,-4.3113,-4.3113,-4.3325,-4.3598,-4.3598,-4.3539,-4.3479,-4.3402,-4.3663,-4.4054,-4.4391,-4.5045,-4.5847,-4.6676,-4.7139,-4.7455,-4.7638,-4.7704,-4.7671,-4.7588,-4.7721,-4.7853,-4.7968,-4.8332,-4.8498,-4.8084,-4.82,-4.8249,-4.8034,-4.9108,-4.9981,-5.0186,-5.0677,-5.0834,-5.0451,-4.9567,-4.8672,-4.7765,-4.7682,-4.7468,-4.6943,-4.7413,-4.7907,-4.8392,-4.9117,-4.963,-4.9916,-4.9615,-4.9615,-4.9876,-4.9876,-4.9876,-4.9876,-5.001,-5.0184,0.0,0.0,0.0,0.0,0.0,0.0,0.0,0.0,0.0,0.0,0.0,0.0,0.0,0.0,0.0,0.0,0.0,0.0,0.0,0.0,0.0,0.0,0.0,0.0,0.0,0.0,0.0,0.0,0.0,-4.1483,-4.184,-4.2483,-4.2883,-4.3052,-4.299,-4.299,-4.3052,-4.3052,-4.299,-4.282,-4.282,-4.2743,-4.2619,-4.3153,-4.3217,-4.2877,-4.2877,-4.2877,-4.2861,-4.2683,-4.2602,-4.2602,-4.2602,-4.2602,-4.2602,-4.2602,-4.2774,-4.3052,-4.3082,-4.3312,-4.3568,-4.3598,-4.3509,-4.3372,-4.3342,-4.3312,-4.3457,-4.397,-4.4372,-4.4922,-4.6046,-4.6609,-4.7008,-4.7342,-4.7572,-4.7671,-4.7537,-4.7604,-4.777,-4.8134,-4.8663,-4.8911,-4.863,-4.8862,-4.8978,-4.8614,-4.9508,-5.0286,-5.0469,-5.0993,-5.127,-5.1018,-5.0366,-4.9583,-4.8705,-4.864,-4.8325,-4.7633,-4.8071,-4.8538,-4.887,-4.971,-5.0133,-5.0198,-5.0214,-5.0097,-4.9876,-4.9876,-4.9876,-4.9876,-4.9876,-5.001,0.0,0.0,0.0,0.0,0.0,0.0,0.0,0.0,0.0,0.0,0.0,0.0,0.0,0.0,0.0,0.0,0.0,0.0,0.0,0.0,0.0,0.0,0.0,0.0,0.0,0.0,0.0,0.0,0.0,-4.2173,-4.2538,-4.2586,-4.2696,-4.2899,-4.2728,-4.2728,-4.2899,-4.3276,-4.3453,-4.3453,-4.3453,-4.3155,-4.2602,-4.2635,-4.3007,-4.3654,-4.3654,-4.3654,-4.3605,-4.2877,-4.2602,-4.2602,-4.2602,-4.2602,-4.2602,-4.2602,-4.2728,-4.293,-4.3052,-4.3251,-4.3432,-4.3568,-4.3509,-4.3372,-4.3174,-4.3113,-4.3113,-4.3146,-4.3824,-4.4554,-4.4757,-4.5847,-4.6876,-4.6699,-4.7194,-4.7671,-4.7537,-4.752,-4.7784,-4.8593,-4.8775,-4.909,-4.9954,-4.9558,-4.9326,-5.0005,-5.0171,-5.0452,-5.1166,-5.186,-5.1971,-5.1102,-5.0968,-5.0533,-4.9599,-4.9534,-4.9517,-4.945,-4.9978,-5.0277,-5.0274,-5.0772,-5.1032,-5.1043,-5.1043,-5.0663,-4.9876,-4.9876,-4.9876,-4.9876,-4.9876,-4.9916,0.0,0.0,0.0,0.0,0.0,0.0,0.0,0.0,0.0,0.0,0.0,0.0,0.0,0.0,0.0,0.0,0.0,0.0,0.0,0.0,0.0,0.0,0.0,0.0,0.0,0.0,0.0,0.0,0.0,0.0,-4.2522,-4.1355,-4.1255,-4.2648,-4.3019,-4.338,-4.3852,-4.4009,-4.4095,-4.4095,-4.4095,-4.3963,-4.3764,-4.3845,-4.4302,-4.4977,-4.4578,-4.414,-4.3686,-4.3395,-4.3023,-4.2602,-4.2602,-4.2602,-4.2602,-4.2602,-4.2728,-4.293,-4.3052,-4.3235,-4.3402,-4.3568,-4.3509,-4.3372,-4.3295,-4.3204,-4.3143,-4.3281,-4.3523,-4.3927,-4.4542,-4.5355,-4.6188,-4.6831,-4.719,-4.7517,-4.7923,-4.8073,-4.8326,-4.8876,-4.9754,-5.0367,-5.0203,-5.0369,-5.0436,-5.0237,-5.0601,-5.0982,-5.1282,-5.1962,-5.2274,-5.1922,-5.1905,-5.152,-5.0566,-5.05,-5.0232,-4.9632,-5.0076,-5.0411,-5.0411,-5.1149,-5.1413,-5.1118,-5.1413,-5.1151,-5.0292,-5.0292,-5.0136,-4.9876,-4.9876,-5.0034,0.0,0.0,0.0,0.0,0.0,0.0,0.0,0.0,0.0,0.0,0.0,0.0,0.0,0.0,0.0,0.0,0.0,0.0,0.0,0.0,0.0,0.0,0.0,0.0,0.0,0.0,0.0,0.0,0.0,0.0,-4.2522,-4.1485,-4.1563,-4.3136,-4.3601,-4.4078,-4.4712,-4.4695,-4.4695,-4.4695,-4.4695,-4.4473,-4.4112,-4.4394,-4.4716,-4.501,-4.508,-4.4838,-4.4383,-4.3897,-4.3538,-4.3224,-4.2778,-4.2711,-4.2881,-4.268,-4.2665,-4.2837,-4.2976,-4.316,-4.3342,-4.3462,-4.3432,-4.3312,-4.3312,-4.3113,-4.299,-4.3221,-4.3312,-4.3457,-4.4147,-4.4913,-4.5812,-4.706,-4.7498,-4.7809,-4.8368,-4.8449,-4.87,-4.9553,-5.0532,-5.1163,-5.0982,-5.1131,-5.1232,-5.0966,-5.1131,-5.1398,-5.1647,-5.2111,-5.2409,-5.2409,-5.2409,-5.2139,-5.152,-5.1487,-5.1201,-5.0582,-5.0886,-5.1077,-5.1077,-5.1661,-5.1835,-5.1545,-5.1835,-5.1651,-5.0962,-5.0794,-5.0547,-5.0292,-5.0292,-5.0525,0.0,0.0,0.0,0.0,0.0,0.0,0.0,0.0,0.0,0.0,0.0,0.0,0.0,0.0,0.0,0.0,0.0,0.0,0.0,0.0,0.0,0.0,0.0,0.0,0.0,0.0,0.0,0.0,0.0,-4.2584,-4.2649,-4.3199,-4.3789,-4.4406,-4.4434,-4.4739,-4.5303,-4.5346,-4.5346,-4.5346,-4.5346,-4.4705,-4.3601,-4.4164,-4.4193,-4.3863,-4.5153,-4.5764,-4.5729,-4.4334,-4.4083,-4.4475,-4.3173,-4.3019,-4.3423,-4.2851,-4.2634,-4.2634,-4.2837,-4.2976,-4.3143,-4.3342,-4.3281,-4.3113,-4.3096,-4.2867,-4.2696,-4.3021,-4.3113,-4.3174,-4.3525,-4.4552,-4.5876,-4.7358,-4.8079,-4.8553,-4.8823,-4.86,-4.8905,-5.065,-5.1018,-5.1336,-5.2258,-5.1812,-5.1597,-5.231,-5.1796,-5.1597,-5.2326,-5.2409,-5.2409,-5.2409,-5.2409,-5.2409,-5.2409,-5.2409,-5.2409,-5.2409,-5.2409,-5.2409,-5.2409,-5.2409,-5.2409,-5.2409,-5.2409,-5.2194,-5.1815,-5.1359,-5.1118,-5.1118,-5.1118,-5.1359,-2.0411,0.0,0.0,0.0,0.0,0.0,0.0,0.0,0.0,0.0,0.0,0.0,0.0,0.0,0.0,0.0,0.0,0.0,0.0,0.0,0.0,0.0,0.0,0.0,0.0,0.0,0.0,0.0,-4.2209,-4.2245,-4.381,-4.4066,-4.4418,-4.5037,-4.5064,-4.5346,-4.5938,-4.5938,-4.5938,-4.5938,-4.5938,-4.5786,-4.5425,-4.5171,-4.5285,-4.5637,-4.5568,-4.5941,-4.6458,-4.5628,-4.5013,-4.4575,-4.4282,-4.3901,-4.3482,-4.3423,-4.3064,-4.2634,-4.2837,-4.2976,-4.3143,-4.3342,-4.3372,-4.3342,-4.3432,-4.316,-4.2899,-4.3342,-4.3295,-4.3258,-4.3984,-4.4761,-4.5749,-4.7193,-4.7976,-4.8709,-5.0107,-5.0338,-5.0453,-5.1076,-5.1659,-5.2089,-5.234,-5.2243,-5.2177,-5.2393,-5.2243,-5.2177,-5.2393,-5.2409,-5.2409,-5.2409,-5.2409,-5.2409,-5.2409,-5.2409,-5.2409,-5.2409,-5.2409,-5.2409,-5.2409,-5.2409,-5.2409,-5.2409,-5.2409,-5.2338,-5.223,-5.1798,-5.145,-5.1118,-5.145,-5.1704,0.0,0.0,0.0,0.0,0.0,0.0,0.0,-2.4897,0.0,0.0,0.0,0.0,0.0,0.0,0.0,0.0,0.0,0.0,0.0,0.0,0.0,0.0,0.0,0.0,0.0,0.0,0.0,-4.3905,-4.3036,-4.3182,-4.4698,-4.4794,-4.5064,-4.5649,-4.5674,-4.5844,-4.6214,-4.6196,-4.6196,-4.6196,-4.6196,-4.6055,-4.5819,-4.5717,-4.5658,-4.5586,-4.5783,-4.6043,-4.633,-4.63,-4.5993,-4.5476,-4.4917,-4.4589,-4.4384,-4.4175,-4.3643,-4.3094,-4.3202,-4.3188,-4.3113,-4.3251,-4.3342,-4.3402,-4.3402,-4.316,-4.2961,-4.3312,-4.3372,-4.3506,-4.4323,-4.5185,-4.6142,-4.7292,-4.8538,-4.9735,-5.0785,-5.1319,-5.1621,-5.1728,-5.2127,-5.2409,-5.2409,-5.2409,-5.2409,-5.2409,-5.2409,-5.2409,-5.2409,-5.2409,-5.2409,-5.2409,-5.2409,-5.2409,-5.2409,-5.2409,-5.2409,-5.2409,-5.2409,-5.2409,-5.2409,-5.2409,-5.2409,-5.2409,-5.2409,-5.2409,-5.2409,-5.2158,-5.1924,-5.1672,-5.1924,-5.2033,0.0,0.0,0.0,0.0,0.0,0.0,-2.1323,-2.636,0.0,0.0,0.0,0.0,0.0,0.0,0.0,0.0,0.0,0.0,0.0,0.0,0.0,0.0,0.0,0.0,0.0,-4.449,-4.4529,-4.4406,-4.4518,-4.4848,-4.5355,-4.5399,-4.5649,-4.6172,-4.6196,-4.6196,-4.6196,-4.6196,-4.6196,-4.6196,-4.6196,-4.5912,-4.5425,-4.5955,-4.5615,-4.4663,-4.5866,-4.6152,-4.5819,-4.6499,-4.6795,-4.6673,-4.5367,-4.5216,-4.5622,-4.4976,-4.4356,-4.3814,-4.3814,-4.3601,-4.3292,-4.3218,-4.3325,-4.3416,-4.3157,-4.3007,-4.2899,-4.3052,-4.3325,-4.3747,-4.4475,-4.5639,-4.6815,-4.7638,-4.9468,-5.1018,-5.1135,-5.1822,-5.2409,-5.2409,-5.2409,-5.2409,-5.2409,-5.2409,-5.2409,-5.2409,-5.2409,-5.2409,-5.2409,-5.2409,-5.2409,-5.2409,-5.2409,-5.2409,-5.2409,-5.2378,-5.2383,-5.2383,-5.237,-5.2389,-5.2472,-5.2472,-5.2522,-5.264,-5.264,-5.257,-5.2516,-5.2445,-5.2409,-5.2409,-5.2409,-5.2445,0.0,0.0,0.0,0.0,0.0,0.0,-2.0925,-2.2016,0.0,0.0,0.0,0.0,0.0,0.0,0.0,0.0,0.0,0.0,0.0,0.0,0.0,0.0,0.0,0.0,0.0,-4.4984,-4.5442,-4.4473,-4.5294,-4.5887,-4.603,-4.603,-4.608,-4.6214,-4.6196,-4.6196,-4.6196,-4.6196,-4.6196,-4.6196,-4.6196,-4.6147,-4.603,-4.6147,-4.6055,-4.5862,-4.6137,-4.6252,-4.6284,-4.6539,-4.6707,-4.6784,-4.6601,-4.6182,-4.5716,-4.5673,-4.5198,-4.4599,-4.4599,-4.4633,-4.4601,-4.4026,-4.3852,-4.3764,-4.3279,-4.2898,-4.2728,-4.3021,-4.3325,-4.3734,-4.4292,-4.5513,-4.6946,-4.8281,-4.9831,-5.1201,-5.1955,-5.2274,-5.2409,-5.2409,-5.2409,-5.2409,-5.2409,-5.2409,-5.2409,-5.2409,-5.2409,-5.2409,-5.2409,-5.2409,-5.2409,-5.2409,-5.2409,-5.2409,-5.2409,-5.23,-5.2236,-5.2236,-5.2121,-5.2372,-5.3019,-5.3036,-5.3359,-5.4008,-5.4008,-5.3731,-5.3196,-5.2659,-5.2409,-5.2409,-5.2409,-5.2694,0.0,0.0,0.0,-2.0778,0.0,0.0,0.0,-2.2619,-2.4666,0.0,0.0,0.0,0.0,0.0,0.0,0.0,0.0,0.0,0.0,0.0,0.0,0.0,0.0,0.0,0.0,-4.5666,-4.5955,-4.532,-4.5862,-4.6196,-4.6196,-4.6196,-4.6196,-4.6196,-4.6196,-4.6196,-4.6196,-4.6196,-4.6196,-4.6196,-4.6196,-4.6196,-4.6196,-4.6196,-4.6196,-4.6196,-4.6196,-4.6295,-4.6423,-4.6453,-4.6613,-4.6819,-4.6865,-4.6666,-4.6346,-4.6346,-4.5925,-4.5338,-4.5338,-4.5242,-4.5054,-4.4684,-4.4584,-4.4501,-4.3764,-4.3232,-4.2898,-4.3052,-4.3528,-4.4059,-4.4329,-4.6041,-4.7885,-4.8627,-5.0222,-5.1742,-5.2279,-5.23,-5.2219,-5.2301,-5.2253,-5.2219,-5.2383,-5.2659,-5.2886,-5.2886,-5.3162,-5.3382,-5.3382,-5.3061,-5.2808,-5.2808,-5.2436,-5.2217,-5.2217,-5.2138,-5.2092,-5.2092,-5.2046,-5.2351,-5.3156,-5.3191,-5.3584,-5.4374,-5.4391,-5.4232,-5.3895,-5.3566,-5.3382,-5.3382,-5.3382,-5.3583,0.0,0.0,0.0,0.0,0.0,-2.0893,0.0,0.0,0.0,-2.6385,0.0,0.0,0.0,0.0,0.0,0.0,0.0,0.0,0.0,0.0,0.0,0.0,0.0,0.0,0.0,-4.4725,-4.545,-4.6161,-4.6196,-4.6196,-4.6196,-4.6196,-4.6196,-4.6196,-4.6196,-4.6196,-4.6196,-4.6196,-4.6196,-4.6196,-4.6196,-4.6196,-4.6196,-4.6196,-4.6196,-4.6196,-4.6196,-4.627,-4.6374,-4.6423,-4.6566,-4.6754,-4.6795,-4.6888,-4.6998,-4.6888,-4.6531,-4.6116,-4.6116,-4.5817,-4.5451,-4.5303,-4.5224,-4.5074,-4.439,-4.3764,-4.3292,-4.3292,-4.3883,-4.4492,-4.4531,-4.6682,-4.8845,-4.8927,-5.0592,-5.2182,-5.23,-5.2141,-5.2042,-5.2155,-5.2064,-5.2079,-5.2284,-5.2893,-5.3362,-5.3362,-5.3954,-5.4391,-5.4391,-5.3687,-5.3191,-5.3191,-5.2471,-5.2006,-5.2006,-5.2007,-5.198,-5.198,-5.1961,-5.2379,-5.3311,-5.3641,-5.4061,-5.4593,-5.4734,-5.4734,-5.461,-5.4734,-5.4641,-5.4391,-5.4391,-5.4454,0.0,0.0,0.0,0.0,-2.0794,0.0,0.0,0.0,-2.1531,-2.1598,0.0,0.0,0.0,0.0,0.0,0.0,0.0,0.0,0.0,0.0,0.0,0.0,0.0,0.0,0.0,0.0,-4.2738,-4.5961,-4.6196,-4.6196,-4.6196,-4.6196,-4.6196,-4.6196,-4.6196,-4.6196,-4.6196,-4.6196,-4.6196,-4.6196,-4.6196,-4.6196,-4.6196,-4.6196,-4.6196,-4.6196,-4.6196,-4.6196,-4.6246,-4.6471,-4.659,-4.6637,-4.6754,-4.6888,-4.6998,-4.698,-4.6934,-4.6888,-4.6888,-4.6842,-4.6666,-4.6017,-4.5382,-4.4844,-4.4736,-4.4401,-4.41,-4.41,-4.436,-4.4762,-4.5093,-4.7032,-4.8969,-4.9338,-5.0769,-5.2025,-5.2049,-5.2022,-5.201,-5.2004,-5.2014,-5.2014,-5.2032,-5.2709,-5.3218,-5.3218,-5.388,-5.4391,-5.4391,-5.3687,-5.3191,-5.3191,-5.2471,-5.2006,-5.2006,-5.1952,-5.191,-5.191,-5.1803,-5.2394,-5.3851,-5.5273,-5.5794,-5.5296,-5.5872,-5.5901,-5.5296,-5.5883,-5.5549,-5.4391,-5.4391,-5.4658,0.0,0.0,0.0,0.0,0.0,0.0,-2.3925,0.0,-2.1316,0.0,0.0,0.0,0.0,0.0,0.0,0.0,0.0,0.0,0.0,0.0,0.0,0.0,0.0,0.0,0.0,0.0,0.0,0.0,0.0,-4.3125,-4.3564,-4.5256,-4.6196,-4.6196,-4.6196,-4.6196,-4.6196,-4.6196,-4.6196,-4.6196,-4.6196,-4.6196,-4.6196,-4.6196,-4.6196,-4.6196,-4.6196,-4.6196,-4.6196,-4.6398,-4.6542,-4.6613,-4.6731,-4.6888,-4.6998,-4.6998,-4.6998,-4.6998,-4.6998,-4.6998,-4.6957,-4.6643,-4.6042,-4.5433,-4.5433,-4.5402,-4.5352,-4.5352,-4.6107,-4.6933,-4.7106,-4.8531,-4.9981,-5.015,-5.1098,-5.1964,-5.1981,-5.1923,-5.1846,-5.1945,-5.1864,-5.1833,-5.1833,-5.2536,-5.3246,-5.3699,-5.442,-5.5038,-5.5496,-5.4862,-5.4183,-5.3725,-5.2986,-5.2335,-5.1868,-5.1794,-5.1776,-5.1776,-5.2578,-5.3306,-5.3966,-5.5544,-5.6273,-5.5986,-5.6273,-5.6273,-5.5986,-5.6273,-5.606,-5.5449,-5.5449,-5.5613,-2.7903,0.0,0.0,0.0,0.0,0.0,0.0,0.0,0.0,0.0,0.0,0.0,0.0,0.0,0.0,0.0,0.0,0.0,0.0,0.0,0.0,0.0,0.0,0.0,0.0,0.0,0.0,0.0,-4.0143,-4.0731,-4.1358,-4.4454,-4.6196,-4.6196,-4.6196,-4.6196,-4.6196,-4.6196,-4.6196,-4.6196,-4.6196,-4.6196,-4.6196,-4.6196,-4.6196,-4.6196,-4.6196,-4.6221,-4.627,-4.6398,-4.6525,-4.6661,-4.6795,-4.6911,-4.6998,-4.6998,-4.6998,-4.6998,-4.6998,-4.6998,-4.6998,-4.6998,-4.6643,-4.6207,-4.6207,-4.6315,-4.6443,-4.6496,-4.7465,-4.8512,-4.8495,-4.9608,-5.0725,-5.0649,-5.1259,-5.1851,-5.1899,-5.1793,-5.1724,-5.1838,-5.1765,-5.169,-5.169,-5.2414,-5.3158,-5.3767,-5.4632,-5.5419,-5.599,-5.5562,-5.4902,-5.409,-5.3332,-5.2572,-5.1762,-5.169,-5.169,-5.169,-5.3153,-5.4001,-5.4001,-5.5544,-5.6401,-5.6401,-5.6401,-5.6401,-5.6401,-5.6373,-5.629,-5.6197,-5.6253,-5.6235,0.0,0.0,0.0,-2.917,0.0,0.0,0.0,0.0,-2.2961,0.0,0.0,0.0,0.0,0.0,-2.2028,-2.1976,0.0,0.0,0.0,0.0,0.0,0.0,0.0,0.0,0.0,0.0,0.0,-3.454,-3.7934,-4.0189,-4.0623,-4.4173,-4.6196,-4.6196,-4.6196,-4.6196,-4.6196,-4.6196,-4.6196,-4.6196,-4.6196,-4.6196,-4.6196,-4.6196,-4.6196,-4.6196,-4.6196,-4.6253,-4.6405,-4.6542,-4.6661,-4.6819,-4.6934,-4.6998,-4.6998,-4.6998,-4.6998,-4.6998,-4.6998,-4.6998,-4.6998,-4.6998,-4.698,-4.6957,-4.6957,-4.7007,-4.7106,-4.7224,-4.7854,-4.8501,-4.8512,-4.9625,-5.0757,-5.055,-5.1114,-5.1719,-5.1711,-5.1701,-5.1708,-5.1701,-5.1708,-5.169,-5.169,-5.2368,-5.2921,-5.2939,-5.4242,-5.5223,-5.5241,-5.5223,-5.4902,-5.409,-5.3332,-5.2572,-5.1762,-5.169,-5.169,-5.169,-5.3153,-5.4001,-5.4001,-5.5544,-5.6401,-5.6401,-5.6401,-5.6401,-5.6401,-5.6281,-5.6197,-5.6197,-5.6318,-5.6134,0.0,0.0,-3.7386,-3.5963,0.0,0.0,0.0,0.0,0.0,0.0,0.0,0.0,0.0,0.0,-2.2694,-2.2658,-2.2392,-2.215,0.0,0.0,0.0,0.0,0.0,0.0,0.0,0.0,0.0,-3.1098,-3.2266,-3.3142,0.0,-3.9362,-4.2497,-4.2497,-4.4887,-4.6295,-4.6447,-4.6295,-4.6295,-4.6447,-4.6295,-4.6295,-4.6447,-4.627,-4.6392,-4.6702,-4.6343,-4.6392,-4.6661,-4.6613,-4.6684,-4.6801,-4.6934,-4.6998,-4.6998,-4.6998,-4.6998,-4.6998,-4.6998,-4.6998,-4.6998,-4.6998,-4.6998,-4.7087,-4.7529,-4.8087,-4.8657,-4.9146,-4.993,-5.0638,-5.062,-5.1007,-5.1393,-5.1305,-5.1503,-5.169,-5.169,-5.169,-5.169,-5.169,-5.169,-5.169,-5.169,-5.1922,-5.2304,-5.2822,-5.3358,-5.4045,-5.508,-5.5205,-5.4902,-5.409,-5.3769,-5.31,-5.1797,-5.169,-5.169,-5.169,-5.3153,-5.4001,-5.4001,-5.5544,-5.6401,-5.6401,-5.6318,-5.6318,-5.6401,-5.6134,-5.5993,-5.5993,-5.6032,-5.5975,-4.1163,-4.1869,0.0,-4.0313,-3.8639,0.0,-3.4841,0.0,0.0,0.0,0.0,0.0,0.0,0.0,0.0,-2.386,-2.3238,-2.2834,0.0,-2.2275,0.0,0.0,0.0,0.0,0.0,0.0,-2.5286,-2.7225,-2.8383,-2.9274,0.0,0.0,-4.0609,-4.0609,-4.4243,-4.6343,-4.659,-4.644,-4.6423,-4.659,-4.6536,-4.6536,-4.659,-4.6512,-4.6678,-4.698,-4.6631,-4.6631,-4.6865,-4.6795,-4.6778,-4.6888,-4.6975,-4.6998,-4.6998,-4.6998,-4.6998,-4.6998,-4.6998,-4.6998,-4.6998,-4.6998,-4.7153,-4.7422,-4.7868,-4.8733,-4.9735,-5.046,-5.1139,-5.1686,-5.1953,-5.1861,-5.169,-5.169,-5.169,-5.169,-5.169,-5.169,-5.169,-5.169,-5.169,-5.169,-5.169,-5.169,-5.1869,-5.2411,-5.2733,-5.3268,-5.4242,-5.4616,-5.4554,-5.4055,-5.3778,-5.31,-5.1797,-5.169,-5.169,-5.169,-5.3153,-5.4001,-5.4001,-5.5544,-5.6401,-5.6401,-5.6318,-5.629,-5.6318,-5.6032,-5.589,-5.5833,-5.5793,-5.5764]},{"header":{"parameterUnit":"m.s-1","parameterCategory":1,"la1":30.6,"la2":29.2853,"lo1":-89.7004,"lo2":-87.6739,"dy":0.0162,"dx":0.0183,"nx":112,"ny":82,"refTime":"2023-06-19T12:00:00:Z","depth":0,"parameterNumber":3,"parameterNumberName":"V-component_of_WINDS"},"data":[0.0,0.0,0.0,0.0,0.0,0.0,0.0,0.0,0.0,0.0,0.0,0.0,0.0,0.0,0.0,0.0,0.0,0.0,0.0,0.0,0.0,0.0,0.0,0.0,0.0,0.0,0.0,0.0,0.0,0.0,0.0,0.0,0.0,0.0,0.0,0.0,0.0,0.0,0.0,0.0,0.0,0.0,0.0,0.0,0.0,0.0,0.0,0.0,0.0,0.0,0.0,0.0,0.0,0.0,0.0,0.0,0.0,0.0,0.0,0.0,0.0,0.0,0.0,0.0,0.0,0.0,0.0,0.0,0.0,0.0,0.0,0.0,0.0,0.0,0.0,0.0,0.0,0.0,0.0,0.0,0.0,0.0,0.0,0.0,0.0,0.0,0.0,0.0,0.0,0.0,0.0,-2.1441,-2.3236,-2.4164,-2.4043,-2.3787,-2.2788,-2.0863,0.0,0.0,0.0,0.0,0.0,0.0,0.0,0.0,0.0,0.0,0.0,0.0,0.0,0.0,0.0,0.0,0.0,0.0,0.0,0.0,0.0,0.0,0.0,0.0,0.0,0.0,0.0,0.0,0.0,0.0,0.0,0.0,0.0,0.0,0.0,0.0,0.0,0.0,0.0,0.0,0.0,0.0,0.0,0.0,0.0,0.0,0.0,0.0,0.0,0.0,0.0,0.0,0.0,0.0,0.0,0.0,0.0,0.0,0.0,0.0,0.0,0.0,0.0,0.0,0.0,0.0,0.0,0.0,0.0,0.0,0.0,0.0,0.0,0.0,0.0,0.0,0.0,0.0,0.0,0.0,0.0,0.0,0.0,0.0,0.0,0.0,0.0,0.0,0.0,0.0,0.0,0.0,0.0,0.0,0.0,0.0,0.0,0.0,0.0,0.0,0.0,0.0,0.0,0.0,-2.0741,-2.3688,-2.4125,-2.4309,-2.4646,-2.4007,-2.2823,-2.1076,0.0,0.0,0.0,0.0,0.0,0.0,0.0,0.0,0.0,0.0,0.0,0.0,0.0,0.0,0.0,0.0,0.0,0.0,0.0,0.0,0.0,0.0,0.0,0.0,0.0,0.0,0.0,0.0,0.0,0.0,0.0,0.0,0.0,0.0,0.0,0.0,0.0,0.0,0.0,0.0,0.0,0.0,0.0,0.0,0.0,0.0,0.0,0.0,0.0,0.0,0.0,0.0,0.0,0.0,0.0,0.0,0.0,0.0,0.0,0.0,0.0,0.0,0.0,0.0,0.0,0.0,0.0,0.0,0.0,0.0,0.0,0.0,0.0,0.0,0.0,0.0,0.0,0.0,0.0,0.0,0.0,0.0,0.0,0.0,0.0,0.0,0.0,0.0,0.0,0.0,0.0,0.0,0.0,0.0,0.0,0.0,0.0,0.0,0.0,0.0,0.0,0.0,0.0,-2.1146,-2.3525,-2.5583,-2.5921,-2.6129,-2.6421,-2.6396,-2.5228,-2.2536,-2.1929,0.0,0.0,0.0,0.0,0.0,0.0,0.0,0.0,0.0,0.0,0.0,0.0,0.0,0.0,0.0,0.0,0.0,0.0,0.0,0.0,0.0,0.0,0.0,0.0,0.0,0.0,0.0,0.0,0.0,0.0,0.0,0.0,0.0,0.0,0.0,0.0,0.0,0.0,0.0,0.0,0.0,0.0,0.0,0.0,0.0,0.0,0.0,0.0,0.0,0.0,0.0,0.0,0.0,0.0,0.0,0.0,0.0,0.0,0.0,0.0,0.0,0.0,0.0,0.0,0.0,0.0,0.0,0.0,0.0,0.0,0.0,0.0,0.0,0.0,0.0,0.0,0.0,0.0,0.0,0.0,0.0,0.0,0.0,0.0,0.0,0.0,0.0,0.0,0.0,0.0,0.0,0.0,0.0,0.0,0.0,0.0,0.0,0.0,0.0,0.0,0.0,0.0,-2.3379,-2.5212,-2.6614,-2.7086,-2.7458,-2.7903,-2.827,-2.7152,-2.3995,-2.3649,0.0,0.0,0.0,0.0,0.0,0.0,0.0,0.0,0.0,0.0,0.0,0.0,0.0,0.0,0.0,0.0,0.0,0.0,0.0,0.0,0.0,0.0,0.0,0.0,0.0,0.0,0.0,0.0,0.0,0.0,0.0,0.0,0.0,0.0,0.0,0.0,0.0,0.0,0.0,0.0,0.0,0.0,0.0,0.0,0.0,0.0,0.0,0.0,0.0,0.0,0.0,0.0,0.0,0.0,0.0,0.0,0.0,0.0,0.0,0.0,0.0,0.0,0.0,0.0,0.0,0.0,0.0,0.0,0.0,0.0,0.0,0.0,0.0,0.0,0.0,0.0,0.0,0.0,0.0,0.0,0.0,0.0,0.0,0.0,0.0,0.0,0.0,0.0,0.0,0.0,0.0,0.0,0.0,0.0,0.0,0.0,0.0,0.0,0.0,0.0,0.0,0.0,-2.3211,-2.4648,-2.6179,-2.6534,-2.7103,-2.8247,-2.8031,-2.6952,-2.4845,-2.4403,0.0,0.0,0.0,0.0,0.0,0.0,0.0,0.0,0.0,0.0,0.0,0.0,0.0,0.0,0.0,0.0,0.0,0.0,0.0,0.0,0.0,0.0,0.0,0.0,0.0,0.0,0.0,0.0,0.0,0.0,0.0,0.0,0.0,0.0,0.0,0.0,0.0,0.0,0.0,0.0,0.0,0.0,0.0,0.0,0.0,0.0,0.0,0.0,0.0,0.0,0.0,0.0,0.0,0.0,0.0,0.0,0.0,0.0,0.0,0.0,0.0,0.0,0.0,0.0,0.0,0.0,0.0,0.0,0.0,0.0,0.0,0.0,0.0,0.0,0.0,0.0,0.0,0.0,0.0,0.0,0.0,0.0,0.0,0.0,0.0,0.0,0.0,0.0,0.0,0.0,0.0,0.0,0.0,0.0,0.0,0.0,0.0,0.0,0.0,0.0,0.0,0.0,-2.4885,-2.6614,0.0,-2.8811,-2.9566,-3.0284,-3.0655,-2.9276,-2.553,0.0,0.0,0.0,0.0,0.0,0.0,0.0,0.0,0.0,0.0,0.0,0.0,0.0,0.0,0.0,0.0,0.0,0.0,0.0,0.0,0.0,0.0,0.0,0.0,0.0,0.0,0.0,0.0,0.0,0.0,0.0,0.0,0.0,0.0,0.0,0.0,0.0,0.0,0.0,0.0,0.0,0.0,0.0,0.0,0.0,0.0,0.0,0.0,0.0,0.0,0.0,0.0,0.0,0.0,0.0,0.0,0.0,0.0,0.0,0.0,0.0,0.0,0.0,0.0,0.0,0.0,0.0,0.0,0.0,0.0,0.0,0.0,0.0,0.0,0.0,0.0,0.0,0.0,0.0,0.0,0.0,0.0,0.0,0.0,0.0,0.0,0.0,0.0,0.0,0.0,0.0,0.0,0.0,0.0,0.0,0.0,0.0,0.0,0.0,0.0,0.0,0.0,-2.3692,-2.6129,-2.8132,0.0,-2.9948,-3.0898,-3.1545,-3.2092,-3.0549,-2.6194,0.0,0.0,0.0,0.0,0.0,0.0,0.0,0.0,0.0,0.0,0.0,0.0,0.0,0.0,0.0,0.0,0.0,0.0,0.0,0.0,0.0,0.0,0.0,0.0,0.0,0.0,0.0,0.0,0.0,0.0,0.0,0.0,0.0,0.0,0.0,0.0,0.0,0.0,0.0,0.0,0.0,0.0,0.0,0.0,0.0,0.0,0.0,0.0,0.0,0.0,0.0,0.0,0.0,0.0,0.0,0.0,0.0,0.0,0.0,0.0,0.0,0.0,0.0,0.0,0.0,0.0,0.0,0.0,0.0,0.0,0.0,0.0,0.0,0.0,0.0,0.0,0.0,0.0,0.0,0.0,0.0,0.0,0.0,0.0,0.0,0.0,0.0,0.0,0.0,0.0,0.0,0.0,0.0,0.0,0.0,0.0,0.0,0.0,0.0,0.0,0.0,0.0,-2.3735,-2.6698,-2.8791,-2.8791,-2.9537,-3.0522,-3.1693,-3.1822,-3.0313,0.0,0.0,0.0,0.0,0.0,0.0,0.0,0.0,0.0,0.0,0.0,0.0,0.0,0.0,0.0,0.0,0.0,0.0,0.0,0.0,0.0,0.0,0.0,0.0,0.0,0.0,0.0,0.0,0.0,0.0,0.0,0.0,0.0,0.0,0.0,0.0,0.0,0.0,0.0,0.0,0.0,0.0,0.0,0.0,0.0,0.0,0.0,0.0,0.0,0.0,0.0,0.0,0.0,0.0,0.0,0.0,0.0,0.0,0.0,0.0,0.0,0.0,0.0,0.0,0.0,0.0,0.0,0.0,0.0,0.0,0.0,0.0,0.0,0.0,0.0,0.0,0.0,0.0,0.0,0.0,0.0,0.0,0.0,0.0,0.0,0.0,0.0,0.0,0.0,0.0,0.0,0.0,0.0,0.0,0.0,0.0,0.0,0.0,0.0,0.0,0.0,0.0,0.0,-2.4117,-2.7208,-2.9433,-2.9433,-3.0796,-3.1853,-3.2175,-3.2226,-3.0384,-2.6108,0.0,0.0,0.0,0.0,0.0,0.0,0.0,0.0,0.0,0.0,0.0,0.0,0.0,0.0,0.0,0.0,0.0,0.0,0.0,0.0,0.0,0.0,0.0,0.0,0.0,0.0,0.0,0.0,0.0,0.0,0.0,0.0,0.0,0.0,0.0,0.0,0.0,0.0,0.0,0.0,0.0,0.0,0.0,0.0,0.0,0.0,0.0,0.0,0.0,0.0,0.0,0.0,0.0,0.0,0.0,0.0,0.0,0.0,0.0,0.0,0.0,0.0,0.0,0.0,0.0,0.0,0.0,0.0,0.0,0.0,0.0,0.0,0.0,0.0,0.0,0.0,0.0,0.0,0.0,0.0,0.0,0.0,0.0,0.0,0.0,0.0,0.0,0.0,0.0,0.0,0.0,0.0,0.0,0.0,0.0,0.0,0.0,0.0,0.0,0.0,0.0,0.0,-2.4829,-2.7954,-3.019,-3.019,-3.1442,-3.2322,-3.2322,-3.2322,-3.0719,-2.7017,0.0,0.0,0.0,0.0,0.0,0.0,0.0,0.0,0.0,0.0,0.0,0.0,0.0,0.0,0.0,0.0,0.0,0.0,0.0,0.0,0.0,0.0,0.0,0.0,0.0,0.0,0.0,0.0,0.0,0.0,0.0,0.0,0.0,0.0,0.0,0.0,0.0,0.0,0.0,0.0,0.0,0.0,0.0,0.0,0.0,0.0,0.0,0.0,0.0,0.0,0.0,0.0,0.0,0.0,0.0,0.0,0.0,0.0,0.0,0.0,0.0,0.0,0.0,0.0,0.0,0.0,0.0,0.0,0.0,0.0,0.0,0.0,0.0,0.0,0.0,0.0,0.0,0.0,0.0,0.0,0.0,0.0,0.0,0.0,0.0,0.0,0.0,0.0,0.0,0.0,0.0,0.0,0.0,0.0,0.0,0.0,0.0,0.0,0.0,0.0,0.0,0.0,-2.5537,-2.8669,-3.0895,-3.0895,-3.169,-3.2205,-3.2205,-3.2205,-3.1208,-2.8871,0.0,0.0,0.0,0.0,0.0,0.0,0.0,0.0,0.0,0.0,0.0,0.0,0.0,0.0,0.0,0.0,0.0,0.0,0.0,0.0,0.0,0.0,0.0,0.0,0.0,0.0,0.0,0.0,0.0,0.0,0.0,0.0,0.0,0.0,0.0,0.0,0.0,0.0,0.0,0.0,0.0,0.0,0.0,0.0,0.0,0.0,0.0,0.0,0.0,0.0,0.0,0.0,0.0,0.0,0.0,0.0,0.0,0.0,0.0,0.0,-2.2823,0.0,0.0,0.0,0.0,0.0,0.0,0.0,0.0,0.0,0.0,0.0,0.0,0.0,0.0,0.0,0.0,0.0,0.0,0.0,0.0,0.0,0.0,0.0,0.0,0.0,0.0,0.0,0.0,0.0,0.0,0.0,0.0,0.0,0.0,0.0,0.0,0.0,0.0,0.0,0.0,0.0,-2.4988,-2.8443,-3.0895,-3.0895,-3.1773,-3.2359,-3.2359,-3.2359,-3.1369,-2.9027,-2.8193,0.0,0.0,0.0,0.0,0.0,0.0,0.0,0.0,0.0,0.0,0.0,0.0,0.0,0.0,0.0,0.0,0.0,0.0,0.0,0.0,0.0,0.0,0.0,0.0,0.0,0.0,0.0,0.0,0.0,0.0,0.0,0.0,0.0,0.0,0.0,0.0,0.0,0.0,0.0,0.0,0.0,0.0,0.0,0.0,0.0,0.0,0.0,0.0,0.0,0.0,0.0,0.0,0.0,0.0,0.0,0.0,0.0,0.0,0.0,0.0,-2.3111,0.0,0.0,0.0,0.0,0.0,0.0,0.0,0.0,0.0,0.0,0.0,0.0,0.0,0.0,0.0,0.0,0.0,0.0,0.0,0.0,0.0,0.0,0.0,0.0,0.0,0.0,0.0,0.0,0.0,0.0,0.0,0.0,0.0,0.0,0.0,0.0,0.0,0.0,0.0,0.0,-2.5329,-2.8951,-3.1529,-3.1529,-3.1982,-3.2286,-3.2286,-3.2286,-3.179,-3.0637,-2.9356,0.0,0.0,0.0,0.0,0.0,0.0,0.0,0.0,0.0,0.0,0.0,0.0,0.0,0.0,0.0,0.0,0.0,0.0,0.0,0.0,0.0,0.0,0.0,0.0,0.0,0.0,0.0,0.0,0.0,0.0,0.0,0.0,0.0,0.0,0.0,0.0,0.0,0.0,0.0,0.0,0.0,0.0,0.0,0.0,0.0,0.0,0.0,0.0,0.0,0.0,0.0,0.0,0.0,-2.3505,-2.3527,-2.3338,-2.3527,-2.323,-2.2633,-2.358,-2.4092,-2.4251,0.0,0.0,0.0,0.0,0.0,0.0,0.0,0.0,0.0,0.0,0.0,0.0,0.0,0.0,0.0,0.0,0.0,0.0,0.0,0.0,0.0,0.0,0.0,0.0,0.0,-2.3857,-2.4046,0.0,0.0,0.0,0.0,0.0,0.0,0.0,0.0,0.0,0.0,0.0,0.0,-2.5796,-2.9562,-3.2241,-3.2241,-3.2277,-3.2277,-3.2277,-3.2277,-3.2336,-3.2453,-3.0521,-2.9315,0.0,0.0,0.0,0.0,0.0,0.0,0.0,0.0,0.0,0.0,0.0,0.0,0.0,0.0,0.0,0.0,0.0,0.0,0.0,0.0,0.0,0.0,0.0,0.0,0.0,0.0,0.0,0.0,0.0,0.0,0.0,0.0,-2.1006,-2.302,0.0,0.0,0.0,0.0,0.0,0.0,0.0,0.0,0.0,0.0,0.0,0.0,0.0,-2.4819,-2.4942,-2.5027,-2.5094,-2.5181,-2.5978,-2.5907,-2.5096,-2.5981,-2.5833,-2.4914,-2.3918,0.0,-2.4701,-2.4314,0.0,0.0,0.0,0.0,0.0,0.0,0.0,0.0,0.0,0.0,0.0,0.0,0.0,0.0,0.0,0.0,0.0,0.0,0.0,0.0,0.0,0.0,-2.6424,-2.6644,-2.5697,-2.5131,0.0,-2.433,-2.2454,-2.3884,-2.3815,0.0,0.0,0.0,0.0,0.0,0.0,0.0,-2.5297,-2.9422,-3.2381,-3.2381,-3.2525,-3.2632,-3.2632,-3.2632,-3.2632,-3.2668,-3.2364,-3.1213,-2.9118,-3.1047,0.0,0.0,0.0,0.0,0.0,0.0,0.0,0.0,0.0,0.0,0.0,0.0,0.0,0.0,0.0,0.0,0.0,0.0,0.0,0.0,0.0,0.0,0.0,0.0,0.0,0.0,0.0,0.0,0.0,-2.1167,-2.2654,-2.4112,-2.4006,-2.3598,0.0,0.0,0.0,0.0,0.0,0.0,0.0,0.0,0.0,-2.5808,-2.6085,-2.643,-2.6942,-2.7246,-2.7341,-2.7201,-2.7607,-2.7297,-2.6445,-2.6888,-2.682,-2.636,-2.5776,-2.5622,-2.571,-2.5276,-2.5674,-2.6434,0.0,0.0,0.0,0.0,-2.1731,-2.2263,-2.2183,-2.2971,0.0,-2.4597,0.0,0.0,0.0,0.0,0.0,0.0,0.0,0.0,0.0,0.0,0.0,-2.7105,-2.7051,-2.7116,-2.7773,-2.636,-2.4938,0.0,-2.4466,-2.3483,-2.1842,0.0,0.0,0.0,0.0,0.0,-2.727,-3.0228,-3.2336,-3.2381,-3.2395,-3.2408,-3.2408,-3.2408,-3.2431,-3.2525,-3.2525,-3.2079,-3.1137,-3.2137,-3.1026,0.0,0.0,0.0,0.0,0.0,0.0,0.0,0.0,0.0,0.0,0.0,0.0,0.0,0.0,0.0,0.0,0.0,0.0,0.0,0.0,0.0,0.0,0.0,0.0,0.0,0.0,0.0,0.0,-2.263,-2.3938,-2.5545,-2.5396,-2.5175,0.0,0.0,0.0,0.0,0.0,0.0,-2.6365,-2.6501,-2.6923,-2.7673,-2.8118,-2.8611,-2.928,-2.9424,-2.9378,-2.9108,-2.9108,-2.8648,-2.7846,-2.8035,-2.8035,-2.7846,-2.7846,-2.758,-2.7093,-2.6637,-2.6469,-2.659,-2.6529,-2.5832,-2.4701,-2.3802,-2.3535,-2.3652,-2.3774,-2.4549,-2.5612,-2.6271,0.0,-2.5611,-2.6151,0.0,0.0,0.0,0.0,-2.4924,-2.5436,-2.6262,-2.712,-2.7695,-2.8355,-2.8806,-2.8806,-2.8089,-2.7295,0.0,-2.5947,-2.4772,-2.3038,0.0,0.0,0.0,0.0,-2.8522,-2.878,-3.0814,-3.2355,-3.2586,-3.2604,-3.2613,-3.2763,-3.2777,-3.2837,-3.2919,-3.2768,-3.2758,-3.2902,-3.2822,-3.1931,-3.0117,0.0,0.0,0.0,0.0,0.0,0.0,0.0,0.0,0.0,0.0,0.0,0.0,0.0,0.0,0.0,0.0,0.0,0.0,0.0,0.0,0.0,0.0,0.0,0.0,0.0,0.0,0.0,0.0,0.0,-2.7806,-2.8906,0.0,0.0,0.0,0.0,-2.5522,-2.5922,-2.6978,-2.8634,-2.92,-3.0275,-3.2012,-3.2121,-3.214,-3.2208,-3.1436,-3.0994,-3.0782,-3.0782,-3.0367,-2.9588,-3.0367,-3.0291,-2.9588,-2.9588,-2.9288,-2.8863,-2.8492,-2.8278,-2.8075,-2.6781,-2.6835,-2.7177,-2.3814,-2.3944,-2.5731,-2.492,-2.5714,-2.7075,-2.7157,-2.6733,-2.6109,-2.5462,-2.5202,0.0,0.0,-2.5765,-2.7133,-2.6718,-2.8044,-2.9526,-2.9563,-2.9626,-2.9626,-2.9626,-2.8862,-2.8431,0.0,-2.8805,-2.7913,-2.7048,0.0,-2.7575,-2.5093,-2.6938,-2.8587,-2.8619,-3.0835,-3.26,-3.3197,-3.3404,-3.3762,-3.4341,-3.4382,-3.4382,-3.4382,-3.3845,-3.3528,-3.3565,-3.3201,-3.2826,-3.2524,-3.0339,0.0,0.0,0.0,0.0,0.0,0.0,0.0,0.0,0.0,0.0,0.0,0.0,0.0,0.0,0.0,0.0,0.0,0.0,0.0,0.0,0.0,0.0,0.0,0.0,0.0,0.0,0.0,0.0,-2.8745,-2.8384,0.0,0.0,-2.9327,-2.9075,-2.8549,-2.9698,-3.0807,-3.1699,-3.1924,-3.2441,-3.3343,-3.304,-3.2836,-3.2836,-3.2199,-3.1542,-3.0895,-3.102,-3.0683,-2.9922,-3.0317,-3.0355,-3.0101,-3.0101,-2.9732,-2.9187,-2.991,-2.9189,-2.7517,-2.7689,-2.7413,-2.6842,-2.5858,-2.6043,-2.672,-2.6416,-2.7069,-2.8035,-2.8035,-2.8256,-2.8287,-2.7372,-2.7566,-2.8048,-2.7755,-2.827,-2.8856,-2.8672,-2.9152,-2.9704,-2.9704,-3.0114,-3.0481,-3.0481,-3.0621,-3.0868,-3.1238,-2.9679,-2.8061,-2.7455,-2.8851,-2.9576,-2.8098,-2.993,-3.1684,-3.2123,-3.2876,-3.3489,-3.3844,-3.381,-3.3867,-3.4085,-3.4099,-3.4099,-3.4099,-3.3895,-3.3646,-3.3301,-3.3225,-3.2996,-3.2525,-3.1687,-2.969,0.0,0.0,0.0,0.0,0.0,0.0,0.0,0.0,0.0,0.0,0.0,0.0,0.0,0.0,0.0,0.0,0.0,0.0,0.0,0.0,0.0,0.0,0.0,0.0,0.0,0.0,-2.6232,-2.9502,-2.8888,-2.8971,-3.0984,-3.1049,-3.1116,-3.142,-3.247,-3.3211,-3.3496,-3.351,-3.3663,-3.4009,-3.3642,-3.3475,-3.3475,-3.3081,-3.2567,-3.1914,-3.204,-3.1813,-3.1305,-3.1445,-3.1312,-3.0945,-3.1204,-3.0745,-2.9882,-3.1183,-3.0302,-2.8171,-2.869,-2.8234,-2.7245,-2.7215,-2.7383,-2.7696,-2.7966,-2.8116,-2.834,-2.9086,-2.9498,-2.9626,-2.9174,-2.9524,-3.0075,-2.9948,-3.0228,-3.0545,-3.0545,-3.0545,-3.0596,-3.079,-3.1102,-3.1437,-3.1834,-3.1575,-3.1558,-3.2576,-3.1181,-2.9561,-2.8562,-2.9693,-3.0344,-2.9143,-3.01,-3.1167,-3.1703,-3.2323,-3.2857,-3.3283,-3.3922,-3.4456,-3.4737,-3.3925,-3.3726,-3.445,-3.3645,-3.3302,-3.3647,-3.2928,-3.2346,-3.1948,-3.1055,-2.9433,-2.6977,0.0,0.0,0.0,0.0,0.0,0.0,0.0,0.0,0.0,0.0,0.0,0.0,0.0,0.0,0.0,0.0,0.0,0.0,0.0,0.0,0.0,0.0,0.0,-2.4705,-2.5861,-2.7613,-3.0271,-3.0795,-3.1734,-3.3742,-3.3583,-3.352,-3.3905,-3.3908,-3.3908,-3.3935,-3.3894,-3.3971,-3.4162,-3.4148,-3.4186,-3.4186,-3.4162,-3.4099,-3.3908,-3.3908,-3.3908,-3.3908,-3.3908,-3.3322,-3.2336,-3.3065,-3.2456,-3.1102,-3.2275,-3.1774,-3.0229,-2.9857,-2.9279,-2.8536,-2.7563,-2.7725,-2.8581,-2.9369,-2.8853,-2.8149,-3.0264,-3.047,-2.9973,-3.0722,-3.0985,-3.0985,-3.0985,-3.1582,-3.2236,-3.2236,-3.2236,-3.2422,-3.2993,-3.268,-3.2548,-3.3664,-3.1667,-3.0473,-3.3352,-3.3498,-3.2599,-3.0812,-3.0527,-2.9964,-2.8352,-2.7509,0.0,-2.7247,-2.9195,-3.0868,-3.165,-3.3731,-3.5425,-3.631,-3.3991,-3.3397,-3.556,-3.3196,-3.2673,-3.4733,-3.2456,-3.1108,-3.1094,-2.8532,-2.831,-3.0658,0.0,0.0,0.0,0.0,0.0,0.0,0.0,0.0,0.0,0.0,0.0,0.0,0.0,0.0,0.0,0.0,0.0,0.0,0.0,0.0,0.0,0.0,-2.6194,-2.6598,-2.7121,-2.865,-3.178,-3.2071,-3.2658,-3.4372,-3.4329,-3.4211,-3.4314,-3.4327,-3.4481,-3.4751,-3.3932,-3.3622,-3.3971,-3.3615,-3.3421,-3.3421,-3.3805,-3.3946,-3.3908,-3.4061,-3.4137,-3.4137,-3.4441,-3.4375,-3.4108,-3.452,-3.4334,-3.3829,-3.4163,-3.402,-3.3331,-3.0877,-2.9197,-2.8091,-2.7435,-2.7342,-2.7718,-2.8691,-2.94,-3.0077,-3.1695,-3.2448,-3.2692,-3.2318,-3.2602,-3.3089,-3.3089,-3.3255,-3.342,-3.342,-3.342,-3.346,-3.3623,-3.3542,-3.3515,-3.384,-3.3257,-3.2918,-3.3745,-3.4124,-3.4054,-3.3094,-3.2932,-3.2918,-3.2925,-3.2738,0.0,-3.3251,-3.4017,-3.4533,-3.4566,-3.3295,-3.3461,-3.596,-3.3444,-3.2969,-3.6013,-3.5487,-3.5168,-3.5283,-3.4613,-3.3853,-3.2905,-3.04,-2.924,0.0,0.0,0.0,0.0,0.0,0.0,0.0,0.0,0.0,0.0,0.0,0.0,0.0,0.0,0.0,0.0,0.0,0.0,0.0,0.0,0.0,0.0,-2.625,-2.7589,-2.8182,-2.7996,-2.8725,-3.1337,-3.178,-3.2455,-3.3914,-3.4457,-3.4832,-3.4977,-3.4991,-3.5102,-3.5339,-3.4685,-3.4088,-3.3593,-3.4333,-3.4358,-3.3632,-3.5008,-3.5691,-3.5678,-3.555,-3.5505,-3.5505,-3.5477,-3.519,0.0,-3.5246,-3.5102,-3.4566,-3.4892,-3.5041,0.0,0.0,0.0,0.0,0.0,-2.9358,-2.9003,-3.0573,-3.115,-3.1422,-3.2777,-3.3301,-3.3301,-3.2843,-3.2499,-3.227,-3.227,-3.1796,-3.1536,-3.2539,-3.262,-3.2742,-3.3989,-3.4084,-3.4043,-3.4531,-3.3677,-3.32,-3.4578,-3.4215,0.0,-3.4701,-3.3916,-3.3064,-3.2717,-3.2409,-3.2381,-3.2868,-3.3885,-3.4605,-3.4615,-3.4032,-3.4406,-3.6304,-3.3808,0.0,0.0,0.0,-3.4857,-3.452,-3.4506,0.0,0.0,0.0,-2.9544,-3.0279,0.0,0.0,0.0,-2.7823,-2.6326,0.0,0.0,0.0,0.0,0.0,0.0,0.0,0.0,0.0,0.0,0.0,0.0,0.0,0.0,0.0,0.0,-2.6981,-2.8557,-2.9438,-2.8519,-2.8382,-3.0062,-3.0996,-3.1954,-3.308,-3.4388,-3.5312,-3.5683,-3.571,-3.575,-3.5818,0.0,0.0,0.0,0.0,-3.6098,-3.4399,-3.6822,-3.8021,-3.7952,-3.7414,-3.7206,-3.7178,-3.668,-3.5836,-3.4865,-3.5624,-3.5324,-3.4407,-3.5101,-3.54,-3.526,-3.3856,-3.335,-3.3362,-3.3049,-3.2163,-3.1396,-3.3405,0.0,0.0,-3.3754,-3.3618,-3.2909,-3.2909,-3.1719,-3.0381,-3.0455,-2.9477,-2.8938,-3.1211,-3.1373,-3.1608,-3.4235,-3.4451,-3.4356,-3.5439,-3.3609,-3.2649,-3.5512,-3.4181,-3.3329,-3.5716,-3.4178,-3.2141,-3.0672,-2.9874,-2.9599,-2.9881,-3.1715,-3.3087,-3.3447,0.0,0.0,-3.6925,-3.4477,-3.3946,-3.6318,-3.4622,-3.3555,-3.3555,-3.3555,-3.2382,-2.989,-2.9294,-3.006,-3.2203,-3.173,-3.2537,-3.4326,-2.8818,-2.7512,0.0,0.0,0.0,0.0,0.0,0.0,0.0,0.0,0.0,0.0,0.0,0.0,0.0,0.0,0.0,-2.698,-2.8495,-2.9726,-2.9831,-2.8913,-2.9184,-3.1574,-3.271,-3.358,-3.4308,-3.513,-3.5628,-3.571,-3.571,-3.5927,-3.6402,-3.552,0.0,-3.5512,-3.6004,-3.5879,-3.5055,-3.6495,-3.6989,-3.6509,0.0,0.0,-3.6571,-3.6619,-3.6503,-3.632,-3.6612,-3.6645,-3.642,-3.6585,-3.6666,-3.6452,-3.418,-3.2843,-3.2041,-3.0997,-3.106,-3.1752,-3.2546,-3.3255,-3.4019,-3.5471,-3.5197,-3.4293,-3.4293,-3.3442,0.0,-3.3344,-3.3194,-3.3106,-3.4497,-3.4498,-3.4366,-3.509,-3.5184,-3.5157,-3.5426,-3.5156,-3.5031,-3.5655,-3.5357,-3.526,-3.6004,-3.5689,-3.5225,-3.4908,-3.4873,-3.4906,-3.4996,-3.5512,-3.5856,-3.5778,-3.4103,-3.4019,-3.6537,-3.3684,-3.3192,-3.6693,-3.6466,-3.6238,-3.6238,-3.6238,-3.5502,-3.3897,-3.3975,-3.3648,-3.2918,-3.3333,-3.3749,-3.416,-3.3169,-3.2804,0.0,0.0,0.0,0.0,0.0,0.0,0.0,0.0,0.0,0.0,0.0,-2.4585,0.0,0.0,-2.6593,-2.6899,-2.8336,-2.9794,-3.0944,-3.026,-3.0068,-3.1339,-3.2401,-3.3459,-3.4652,-3.5723,-3.647,-3.677,-3.6907,-3.7044,-3.7262,-3.6511,-3.5824,-3.5377,-3.631,-3.6239,-3.4895,-3.6913,-3.7715,-3.7316,-3.7092,-3.7059,-3.7139,-3.6951,-3.685,-3.685,-3.6954,-3.6978,-3.6978,-3.6978,-3.6978,-3.6883,-3.5503,-3.4774,-3.4311,-3.3617,-3.3738,-3.4206,-3.3872,-3.4285,-3.4969,-3.5156,-3.5046,-3.4909,-3.4909,-3.388,-3.2783,-3.3251,-3.2423,-3.1818,-3.359,-3.3684,-3.362,-3.4955,-3.5236,-3.5236,-3.5236,-3.5318,-3.548,-3.5669,-3.5562,-3.5521,-3.5858,-3.5817,-3.5858,-3.6206,-3.6325,-3.6445,-3.6563,-3.6642,-3.6642,-3.6445,-3.5114,-3.4772,-3.6094,-3.4585,-3.4353,-3.6213,-3.635,-3.635,-3.635,-3.635,-3.6017,-3.5372,-3.5059,-3.4522,-3.3738,-3.3852,-3.3894,-3.3894,-3.4275,-3.4392,0.0,0.0,0.0,0.0,0.0,0.0,0.0,0.0,-2.5854,-2.469,-2.4664,-2.4964,-2.5426,-2.5903,-2.6422,-2.7034,-2.831,-2.9897,-3.1824,-3.1336,-3.0839,-3.1006,-3.1675,-3.2958,-3.501,-3.6061,-3.6962,-3.773,-3.7827,-3.7814,-3.7771,-3.7483,-3.6707,-3.5377,-3.692,-3.696,-3.5208,-3.7468,-3.8486,-3.8128,-3.7802,-3.7697,-3.7709,-3.7203,-3.6978,-3.6978,-3.6978,-3.6978,-3.6978,-3.6978,-3.6978,-3.6978,-3.6693,-3.6733,-3.6993,-3.6786,-3.6712,-3.6636,-3.571,-3.5683,-3.5872,-3.4831,-3.4763,-3.5054,-3.4934,-3.37,-3.2411,-3.2579,-3.1235,-3.0184,-3.2372,-3.2352,-3.2278,-3.4281,-3.4771,-3.4771,-3.4771,-3.4949,-3.5195,-3.5521,-3.5318,-3.5236,-3.5602,-3.5521,-3.5562,-3.6112,-3.6232,-3.6312,-3.647,-3.651,-3.6431,-3.6272,-3.6272,-3.6113,-3.5764,-3.5805,-3.59,-3.5927,-3.5981,-3.6022,-3.6022,-3.6022,-3.5886,-3.5615,-3.4984,-3.4473,-3.4189,-3.3979,-3.3839,-3.3852,-3.423,-3.4522,-2.6966,-2.4733,-2.3631,-2.395,-2.5923,-2.714,0.0,0.0,-2.8552,-2.5972,-2.6607,-2.766,-2.7715,-2.8759,-2.9533,-2.9467,-3.0356,-3.117,-3.1304,-3.104,-3.1117,-3.2037,-3.2061,-3.322,-3.629,-3.5768,-3.5804,-3.7262,-3.6902,-3.6847,-3.7331,-3.733,-3.7536,-3.8073,-3.8268,-3.8018,-3.7278,-3.7583,-3.7458,-3.6916,-3.6847,-3.6923,-3.7091,-3.7021,-3.6978,-3.6978,-3.6978,-3.6978,-3.6978,-3.6978,-3.6978,-3.694,-3.631,-3.6468,-3.6993,-3.6786,-3.6763,-3.6866,-3.6947,-3.7085,-3.7118,-3.6507,-3.5692,-3.4825,-3.4276,-3.325,-3.2461,-3.3334,-3.321,-3.3165,-3.4468,-3.3825,-3.2933,-3.3386,-3.3479,-3.3479,-3.3479,-3.433,-3.5127,-3.5154,-3.5127,-3.5154,-3.5399,-3.5399,-3.544,-3.548,-3.5642,-3.5804,-3.5804,-3.5804,-3.5804,-3.5804,-3.5804,-3.5818,-3.5847,-3.6262,-3.6561,-3.6676,-3.7001,-3.7199,-3.7199,-3.7199,-3.6632,-3.5378,-3.5394,-3.4835,-3.3526,-3.4063,-3.4314,-3.4314,-3.4397,-3.4522,-2.8892,-2.8226,0.0,0.0,-2.8782,-2.9596,-2.7595,-2.8368,-2.9035,-2.7404,-2.7607,-2.821,-2.8524,-2.8573,-2.895,0.0,-3.0288,-3.0913,-3.2491,-3.1791,-3.1909,-3.4085,-3.2333,-3.2075,-3.5015,-3.6035,-3.6577,-3.675,-3.7475,-3.7891,-3.7978,-3.8156,-3.8223,-3.8137,-3.8137,-3.7803,-3.7083,-3.7174,-3.7063,-3.6721,-3.6811,-3.6811,-3.6654,-3.6654,-3.6676,-3.6754,-3.6754,-3.6946,-3.7208,-3.6905,-3.6754,-3.6712,-3.6088,-3.621,-3.6712,-3.6141,-3.6223,-3.6509,-3.564,-3.5875,-3.6385,-3.547,-3.468,-3.4021,-3.3794,-3.2742,-3.1753,-3.2103,-3.2302,-3.2605,-3.3602,-3.3023,-3.2494,-3.3674,-3.3505,-3.328,-3.3814,-3.3898,-3.3898,-3.4024,-3.3505,-3.3152,-3.3339,-3.3267,-3.3295,-3.3525,-3.4331,-3.4705,-3.4126,-3.4857,-3.5658,-3.6255,-3.6113,-3.5966,-3.5989,-3.6174,-3.6323,-3.6401,-3.6545,-3.6618,-3.6618,-3.6618,-3.6383,-3.577,-3.5726,-3.5436,-3.4799,-3.5245,-3.5331,-3.5072,-3.5331,-3.5404,-2.9926,0.0,0.0,-2.9841,-3.0361,-3.0624,-2.9271,-2.8986,-2.8859,-2.8408,-2.8335,-2.8461,-2.8862,-2.8423,-2.8519,-3.0263,-3.0041,-3.0448,-3.2902,-3.2033,-3.1934,-3.3951,-3.1908,-3.0994,-3.2511,-3.5012,-3.6436,-3.6371,-3.7599,-3.8371,-3.8349,-3.8359,-3.8215,-3.7906,-3.7906,-3.7536,-3.6839,-3.7137,-3.7181,-3.6888,-3.7115,-3.7075,-3.6781,-3.6781,-3.6838,-3.6946,-3.6849,-3.7052,-3.7362,-3.6984,-3.6808,-3.6754,-3.621,-3.6346,-3.6712,-3.5907,-3.6073,-3.6606,-3.54,-3.5667,-3.6213,-3.4957,-3.4306,-3.3956,-3.3481,-3.2816,-3.2155,-3.2155,-3.2289,-3.2555,-3.3271,-3.2511,-3.1932,-3.3314,-3.3127,-3.2776,-3.3488,-3.3189,-3.286,-3.3021,-3.2245,-3.1713,-3.1978,-3.1882,-3.1839,-3.2071,-3.2941,-3.3512,-3.3382,-3.4585,-3.5772,-3.6505,-3.6284,-3.6175,-3.6332,-3.6358,-3.6423,-3.6593,-3.6606,-3.6606,-3.6606,-3.6606,-3.6483,-3.627,-3.6137,-3.5984,-3.5903,-3.6048,-3.596,-3.5784,-3.6048,-3.6092,0.0,0.0,-2.6923,-2.8472,-2.8871,-2.8774,-2.8242,-2.8146,-2.8297,-2.875,-2.8863,-2.8925,-2.9086,-2.9055,-2.9358,-3.0284,-3.0008,-3.0179,-3.156,-3.133,-3.0759,-3.0159,-3.0491,-3.0294,0.0,-3.1823,-3.4403,-3.6072,-3.6721,-3.7302,-3.7906,-3.7372,-3.7302,-3.7878,-3.7906,-3.7692,-3.7179,-3.7758,-3.7853,-3.739,-3.7629,-3.7769,-3.7769,-3.7769,-3.7782,-3.7754,-3.7473,-3.7375,-3.7402,-3.7375,-3.7375,-3.7333,-3.6936,-3.7035,-3.7277,-3.6405,-3.6744,-3.7656,-3.7599,-3.7685,-3.758,-3.5881,-3.5357,-3.5073,-3.3494,-3.3704,-3.449,-3.449,-3.449,-3.4535,-3.4535,-3.3094,-3.1603,-3.1698,-3.1651,-3.1651,-3.1698,-3.2041,-3.2301,-3.2313,-3.1925,-3.1745,-3.2217,-3.2256,-3.2128,-3.1688,-3.1662,-3.2394,-3.4297,-3.5441,-3.6083,-3.6096,-3.6096,-3.6345,-3.692,-3.6972,-3.722,-3.7808,-3.7848,-3.7848,-3.7848,-3.7848,-3.7495,-3.6683,-3.6683,-3.6532,-3.6192,-3.5947,-3.6035,-3.6484,-3.6197,-3.6109,0.0,0.0,-2.7472,-2.8101,-2.8675,-2.898,-2.871,-2.8612,-2.8812,-2.939,-2.8612,-2.786,-2.7901,-2.7299,-2.7188,-2.8468,-2.8321,-2.8768,-3.0848,-2.9775,-2.9136,-3.0261,-2.9642,0.0,0.0,0.0,0.0,-3.4511,-3.6417,-3.7681,-3.7892,-3.8496,-3.843,-3.7478,-3.8255,-3.8269,-3.7356,-3.6858,-3.6552,-3.6392,-3.6175,-3.6462,-3.7088,-3.614,-3.5851,-3.6186,-3.6129,-3.5927,-3.5692,-3.5967,-3.5665,-3.5023,-3.4491,-3.4612,-3.5061,-3.4752,-3.5112,-3.5884,-3.6436,-3.645,-3.6159,-3.5575,-3.4417,-3.3111,-3.2563,-3.1949,-3.1435,-3.1435,-3.1542,-3.1839,-3.2442,-3.1649,-3.1001,-3.2253,-3.2065,-3.1792,-3.2395,-3.216,-3.1856,-3.1856,-3.1212,-3.0731,-3.0864,-3.0886,-3.0959,-3.1111,-3.0874,-3.1536,-3.3879,-3.3916,-3.4342,-3.6041,-3.5662,-3.5303,-3.5501,-3.6137,-3.6612,-3.6849,-3.7505,-3.79,-3.79,-3.79,-3.7763,-3.7521,-3.7508,-3.7417,-3.7312,-3.7363,-3.7408,-3.7447,-3.7453,-3.7408,-2.7195,-2.7688,-2.8206,-2.9045,-2.9463,-2.9572,-2.9303,-2.9114,-2.9101,-2.9517,-2.8609,-2.7523,-2.6686,-2.6019,-2.5933,-2.6944,-2.7057,-2.7931,-3.0408,-2.9662,-2.9226,-3.0213,-2.9362,0.0,0.0,0.0,0.0,-3.3122,-3.4981,-3.6233,-3.6564,-3.6989,-3.7122,-3.6768,-3.7391,-3.7487,-3.6953,-3.6128,-3.5723,-3.562,-3.6064,-3.6302,-3.6328,-3.6026,-3.5388,-3.4616,-3.5793,-3.5642,-3.4664,-3.5388,-3.5335,-3.4686,-3.3933,-3.3863,-3.4198,-3.4198,-3.4475,-3.4872,-3.5445,-3.542,-3.51,-3.4757,-3.3658,-3.2423,-3.2027,-3.1517,-3.1025,-3.1025,-3.1135,-3.143,-3.2005,-3.143,-3.0998,-3.2225,-3.2042,-3.175,-3.237,-3.1894,-3.1345,-3.1345,-3.0747,-3.0264,-3.0428,-3.0603,-3.0821,-3.1105,-3.0908,-3.1444,-3.3429,-3.3476,-3.3957,-3.5605,-3.521,-3.4775,-3.4775,-3.5403,-3.5941,-3.6273,-3.6956,-3.7505,-3.79,-3.79,-3.79,-3.79,-3.79,-3.7946,-3.8024,-3.8044,-3.8044,-3.8024,-3.8057,-3.8011,-2.8962,-2.917,-2.8916,-3.0936,-3.0977,-3.0338,-2.9846,-2.9467,-2.9162,-2.8985,-2.8624,-2.7611,0.0,0.0,-2.5451,-2.5647,-2.6221,-2.7526,-3.0055,-3.0623,-3.0549,0.0,0.0,0.0,0.0,0.0,0.0,-3.2072,0.0,-3.3353,-3.4246,-3.3376,-3.379,-3.5851,-3.5529,-3.5521,-3.6042,-3.5605,-3.5233,-3.5041,-3.6985,-3.7091,-3.5533,-3.7183,-3.6127,-3.3195,-3.6312,-3.6302,-3.4155,-3.5574,-3.6131,-3.5976,-3.5017,-3.4629,-3.4629,-3.4629,-3.4629,-3.4629,-3.4629,-3.4678,-3.4532,-3.3549,-3.3151,-3.2951,-3.1924,-3.2319,-3.3101,-3.3101,-3.3101,-3.3101,-3.3101,-3.2359,-3.1618,-3.1618,-3.1618,-3.1618,-3.1618,-3.1258,-3.093,-3.093,-3.0581,-3.0417,-3.0854,-3.1323,-3.1618,-3.1618,-3.1618,-3.1964,-3.3051,-3.4042,-3.4678,-3.4727,-3.4678,-3.4629,-3.4629,-3.469,-3.5162,-3.6178,-3.6273,-3.6769,-3.7854,-3.79,-3.79,-3.79,-3.79,-3.7965,-3.8167,-3.7979,-3.8024,-3.8167,-3.7979,-3.79,-2.7853,-2.8473,-2.9135,-3.0436,-3.049,-2.9998,-2.9176,-2.9101,-2.8543,-2.6195,-2.5091,-2.3845,0.0,0.0,0.0,-2.3958,-2.4472,0.0,-2.8728,-2.8522,0.0,0.0,0.0,-3.0611,-3.2249,-3.2212,0.0,0.0,-3.3951,-3.5306,-3.5544,-3.5397,-3.5157,-3.4904,-3.5231,-3.5336,-3.5135,-3.4253,-3.3773,-3.3674,-3.4215,-3.4654,-3.4957,-3.4654,-3.399,-3.3212,-3.4049,-3.3611,-3.2355,-3.3522,-3.3537,-3.275,-3.251,-3.242,-3.242,-3.242,-3.242,-3.242,-3.242,-3.2962,-3.3549,-3.33,-3.2661,-3.1964,-3.1669,-3.1772,-3.2015,-3.2015,-3.2015,-3.2015,-3.2015,-3.1823,-3.1618,-3.1618,-3.1618,-3.1618,-3.1618,-3.1531,-3.1433,-3.1433,-3.1345,-3.1302,-3.1422,-3.1542,-3.1618,-3.1618,-3.1618,-3.1964,-3.3051,-3.2762,-3.2711,-3.3499,-3.2901,-3.242,-3.242,-3.3151,-3.4042,-3.5114,-3.5893,-3.6769,-3.7854,-3.79,-3.79,-3.79,-3.79,-3.7946,-3.7979,-3.7946,-3.7946,-3.7979,-3.79,-3.79,-2.8425,-2.8839,-2.9299,-3.0123,-2.9882,-2.9051,-2.7614,-2.7118,-2.6202,-2.3692,-2.2648,0.0,0.0,0.0,0.0,0.0,0.0,0.0,-2.8361,-2.829,-2.8285,0.0,-2.9985,0.0,-3.2816,-3.2977,-3.2901,0.0,-3.3186,-3.3475,-3.3603,-3.3535,-3.3565,-3.3585,-3.3684,-3.3662,-3.34,-3.3747,-3.3449,-3.251,-3.3449,-3.3747,-3.34,-3.3747,-3.303,-3.1675,0.0,-3.292,-3.1442,-3.2677,-3.2862,-3.2269,-3.1772,-3.1618,-3.1618,-3.1618,-3.1618,-3.1618,-3.1618,-3.2015,-3.251,-3.251,-3.2066,-3.1618,-3.1618,-3.1618,-3.1618,-3.1618,-3.1618,-3.1618,-3.1618,-3.1618,-3.1618,-3.1618,-3.1618,-3.1618,-3.1618,-3.1618,-3.1618,-3.1618,-3.1618,-3.1618,-3.1618,-3.1618,-3.1618,-3.1618,-3.1618,-3.1823,-3.2409,-3.1964,-3.2015,-3.3112,-3.2661,-3.251,-3.2951,-3.3549,-3.4337,-3.5403,-3.5988,-3.6769,-3.7854,-3.79,-3.79,-3.79,-3.79,-3.79,-3.79,-3.79,-3.79,-3.79,-3.79,-3.79,-2.9424,-2.9479,-2.9339,-2.9796,-2.9277,-2.8114,-2.6086,-2.4828,-2.3559,-2.1672,0.0,-2.0163,-1.8731,0.0,-2.0543,-2.2587,0.0,-2.5276,-2.802,-2.8678,-2.9041,-2.9422,-3.0155,-3.1137,-3.24,-3.3217,-3.373,-3.3889,-3.1777,-3.0646,-3.1029,-3.0625,-3.0994,-3.2224,-3.1823,-3.1618,-3.1618,-3.3449,-3.3449,-3.1618,-3.3499,-3.34,-3.1669,-3.3549,-3.2684,-2.9935,0.0,0.0,-3.1188,-3.2465,-3.3001,-3.2912,-3.1964,-3.1618,-3.1618,-3.1618,-3.1618,-3.1629,-3.1618,-3.1618,-3.1618,-3.1618,-3.1618,-3.1618,-3.1618,-3.1618,-3.1618,-3.1618,-3.1618,-3.1618,-3.1618,-3.1618,-3.1618,-3.1618,-3.1618,-3.1618,-3.1618,-3.1618,-3.1618,-3.1618,-3.1618,-3.1618,-3.1618,-3.1618,-3.1618,-3.1618,-3.1618,-3.1618,-3.1618,-3.1618,-3.1964,-3.2901,-3.3001,-3.335,-3.4288,-3.4385,-3.4872,-3.6036,-3.6083,-3.6615,-3.7854,-3.79,-3.79,-3.79,-3.79,-3.79,-3.79,-3.79,-3.79,-3.79,-3.7946,-3.7946,-2.799,-2.8604,-2.9362,-2.8963,-2.8913,-2.8462,-2.6673,-2.5336,0.0,0.0,0.0,-1.8754,-1.7986,-1.9419,0.0,-2.3323,0.0,0.0,0.0,0.0,-2.8215,0.0,0.0,0.0,0.0,0.0,0.0,0.0,0.0,-3.2778,-3.3294,-3.2502,-3.1907,-3.1721,-3.1669,-3.1618,-3.1618,-3.1964,-3.1964,-3.1618,-3.1975,-3.1964,-3.1618,-3.1964,-3.1832,-3.1269,-3.1905,0.0,-3.151,-3.1763,-3.1874,-3.1874,-3.1669,-3.1618,-3.1618,-3.1874,-3.1772,-3.1618,-3.1874,-3.1772,-3.1618,-3.1618,-3.1618,-3.1618,-3.1618,-3.1618,-3.1618,-3.1618,-3.1618,-3.1618,-3.1618,-3.1618,-3.1618,-3.1618,-3.1618,-3.1618,-3.1618,-3.1618,-3.1618,-3.1618,-3.1618,-3.1618,-3.1618,-3.1618,-3.1618,-3.1618,-3.1618,-3.1618,-3.1618,-3.1618,-3.1669,-3.1874,-3.1874,-3.1975,-3.2117,-3.2167,-3.3001,-3.4921,-3.5066,-3.5893,-3.7808,-3.79,-3.79,-3.79,-3.79,-3.79,-3.79,-3.79,-3.79,-3.79,-3.8044,-3.8167,-2.7498,-2.7847,-2.8511,-2.8139,-2.7854,-2.6842,-2.3806,0.0,0.0,0.0,-1.6726,-1.6596,-1.6466,0.0,0.0,0.0,0.0,0.0,0.0,0.0,0.0,0.0,0.0,0.0,0.0,0.0,0.0,0.0,0.0,-3.2944,-3.3475,-3.2792,-3.2274,-3.2022,-3.176,-3.1618,-3.1618,-3.1618,-3.1618,-3.1618,-3.1618,-3.1618,-3.1618,-3.1618,-3.1618,-3.1618,-3.1618,0.0,-3.057,-3.1464,-3.1282,-3.0581,-3.1475,-3.1823,-3.1823,-3.1975,-3.2026,-3.2088,-3.224,-3.219,-3.2037,-3.1874,-3.1721,-3.1618,-3.1618,-3.1618,-3.1618,-3.1618,-3.1618,-3.1618,-3.1618,-3.1618,-3.1618,-3.1618,-3.1618,-3.1618,-3.1618,-3.1618,-3.1618,-3.1618,-3.1618,-3.1618,-3.1618,-3.1618,-3.1618,-3.1618,-3.1618,-3.1618,-3.1618,-3.1618,-3.1823,-3.2359,-3.2409,-3.2661,-3.3201,-3.325,-3.3697,-3.4727,-3.4775,-3.5271,-3.6238,-3.6298,-3.6298,-3.6298,-3.6298,-3.6298,-3.6298,-3.6439,-3.6769,-3.7281,-3.75,-3.7926,-2.722,-2.7357,-2.7717,-2.7299,-2.681,-2.5375,-2.1435,-2.0285,0.0,0.0,-1.4846,-1.5195,-1.5963,0.0,0.0,0.0,0.0,0.0,0.0,0.0,0.0,0.0,0.0,0.0,0.0,0.0,0.0,0.0,0.0,0.0,-3.3245,-3.2885,-3.259,-3.2394,-3.2001,-3.1738,-3.1618,-3.1618,-3.1618,-3.1618,-3.1618,-3.1618,-3.1618,-3.1618,-3.1618,-3.1618,-3.1618,0.0,0.0,-3.1329,-3.1064,-2.9763,-3.1462,-3.2128,-3.2128,-3.2179,-3.2342,-3.2505,-3.2555,-3.2555,-3.2443,-3.2179,-3.1924,-3.1669,-3.1629,-3.1618,-3.1618,-3.1618,-3.1618,-3.1618,-3.1618,-3.1618,-3.1618,-3.1618,-3.1618,-3.1618,-3.1618,-3.1618,-3.1618,-3.1618,-3.1618,-3.1618,-3.1618,-3.1618,-3.1618,-3.1618,-3.1618,-3.1618,-3.1618,-3.1618,-3.1924,-3.2762,-3.2862,-3.3201,-3.4042,-3.4091,-3.419,-3.4434,-3.4434,-3.4581,-3.4775,-3.4775,-3.4775,-3.4775,-3.4775,-3.4836,-3.4884,-3.5078,-3.5642,-3.6483,-3.6964,-3.7592,-2.6842,-2.7236,-2.7557,-2.6469,-2.6324,-2.5631,-2.2669,0.0,0.0,-1.7344,-1.6079,-1.6103,-1.8336,-1.888,0.0,0.0,0.0,0.0,0.0,0.0,0.0,0.0,0.0,0.0,0.0,0.0,0.0,0.0,0.0,0.0,-3.3748,-3.3683,-3.3268,-3.2416,-3.2339,-3.2088,-3.1578,-3.1618,-3.1618,-3.1618,-3.1618,-3.1618,-3.1618,-3.1618,-3.1618,-3.1618,-3.1618,0.0,0.0,-3.1329,-3.1163,-3.0049,-3.1772,-3.2443,-3.2493,-3.2718,-3.2667,-3.2544,-3.2779,-3.2718,-3.2493,-3.2443,-3.2229,-3.1924,-3.1669,-3.1618,-3.1618,-3.1618,-3.1618,-3.1618,-3.1618,-3.1618,-3.1618,-3.1618,-3.1618,-3.1618,-3.1618,-3.1618,-3.1618,-3.1618,-3.1618,-3.1618,-3.1618,-3.1618,-3.1618,-3.1618,-3.1618,-3.1618,-3.1618,-3.1618,-3.1618,-3.1721,-3.1772,-3.1772,-3.1874,-3.1863,-3.2319,-3.33,-3.335,-3.3796,-3.4775,-3.4775,-3.4775,-3.4775,-3.4775,-3.4933,-3.5174,-3.5174,-3.5367,-3.575,-3.6858,-3.7415,-2.5537,-2.6094,-2.6714,-2.6125,-2.597,-2.5059,-2.171,0.0,0.0,-1.635,-1.5573,-1.5728,-1.654,-1.6736,-1.7612,0.0,0.0,0.0,0.0,0.0,0.0,0.0,0.0,0.0,0.0,0.0,0.0,0.0,0.0,0.0,-3.4185,-3.3956,-3.3486,-3.2862,-3.2525,-3.2143,-3.1629,-3.1618,-3.1618,-3.1618,-3.1618,-3.1618,-3.1618,-3.1618,-3.1618,-3.1618,-3.1772,0.0,0.0,-3.1332,-3.0946,-2.8854,-3.1634,-3.2718,-3.2768,-3.288,-3.293,-3.3019,-3.3081,-3.3081,-3.2969,-3.2768,-3.2667,-3.2505,-3.224,-3.2139,-3.2139,-3.2139,-3.1986,-3.1823,-3.1823,-3.1721,-3.1618,-3.1618,-3.1618,-3.1618,-3.1618,-3.1618,-3.1618,-3.1618,-3.1618,-3.1618,-3.1618,-3.1618,-3.1618,-3.1618,-3.1618,-3.1618,-3.1618,-3.1618,-3.1618,-3.1618,-3.1618,-3.1618,-3.1618,-3.1618,-3.1772,-3.2218,-3.2218,-3.2409,-3.2862,-3.2851,-3.2851,-3.2851,-3.3001,-3.3151,-3.325,-3.3633,-3.4164,-3.4872,-3.5534,-3.6141,-2.457,-2.5367,-2.6297,-2.6109,-2.5566,-2.4211,0.0,0.0,0.0,-1.5071,-1.4787,-1.5203,-1.522,-1.5131,-1.5867,-1.835,0.0,-2.004,0.0,0.0,0.0,0.0,0.0,0.0,0.0,0.0,0.0,0.0,0.0,0.0,0.0,-3.377,-3.342,-3.3135,-3.2807,-3.2274,-3.1629,-3.1618,-3.1618,-3.1618,-3.1618,-3.14,-3.1007,-3.1433,-3.144,-3.1107,0.0,0.0,0.0,-3.1619,-3.1216,-2.888,-3.1871,-3.3042,-3.3042,-3.3042,-3.3131,-3.3281,-3.3281,-3.3281,-3.3281,-3.3092,-3.3042,-3.298,-3.2807,-3.2656,-3.2493,-3.2493,-3.2331,-3.2128,-3.2015,-3.1874,-3.1721,-3.1629,-3.1618,-3.1618,-3.1618,-3.1618,-3.1618,-3.1618,-3.1618,-3.1618,-3.1618,-3.1618,-3.1618,-3.1618,-3.1618,-3.1618,-3.1618,-3.1618,-3.1618,-3.1618,-3.1618,-3.1618,-3.1618,-3.1618,-3.1618,-3.1618,-3.1618,-3.1618,-3.1618,-3.1669,-3.1721,-3.1721,-3.2026,-3.2128,-3.2128,-3.2667,-3.3258,-3.3967,-3.4544,-3.5343,-2.4296,-2.5421,-2.6673,-2.6432,-2.5113,-2.3184,0.0,0.0,0.0,-1.3994,-1.395,-1.4708,-1.5374,-1.5164,-1.5899,-1.8901,-1.938,0.0,0.0,0.0,0.0,0.0,0.0,0.0,0.0,0.0,0.0,0.0,0.0,0.0,0.0,-3.3135,-3.3124,-3.3124,-3.3113,-3.2601,-3.1629,-3.1618,-3.1618,-3.1618,-3.1618,-3.0876,-2.9554,-3.0974,-3.0992,0.0,0.0,0.0,0.0,-3.2146,-3.2033,-3.0853,-3.2586,-3.3281,-3.3281,-3.3281,-3.3281,-3.3281,-3.3281,-3.3281,-3.3281,-3.3281,-3.3281,-3.3281,-3.3281,-3.2919,-3.2493,-3.2493,-3.2493,-3.2443,-3.2077,-3.2015,-3.1913,-3.1669,-3.1618,-3.1618,-3.1618,-3.1618,-3.1618,-3.1618,-3.1618,-3.1618,-3.1618,-3.1618,-3.1618,-3.1618,-3.1618,-3.1618,-3.1618,-3.1618,-3.1618,-3.1618,-3.1618,-3.1618,-3.1618,-3.1618,-3.1618,-3.1618,-3.1618,-3.1618,-3.1618,-3.1874,-3.2015,-3.2015,-3.2342,-3.2493,-3.2493,-3.2779,-3.2891,-3.2942,-3.4213,-3.5343,-2.2171,-2.2504,-2.2721,-2.2383,-2.1696,-2.0499,-1.8384,0.0,0.0,0.0,-1.4205,-1.4549,-1.4776,-1.4867,-1.5761,-1.8362,-1.8779,0.0,0.0,0.0,0.0,0.0,0.0,0.0,0.0,0.0,0.0,0.0,0.0,0.0,0.0,-3.3124,-3.2971,-3.2612,-3.2601,-3.2285,-3.1629,-3.1618,-3.1618,-3.1618,-3.1618,-3.0876,-2.9532,-3.1163,0.0,0.0,0.0,0.0,0.0,-3.2393,-3.2191,-3.0876,-3.2635,-3.3281,-3.3281,-3.3281,-3.3281,-3.3281,-3.3281,-3.3281,-3.3281,-3.3281,-3.3281,-3.3281,-3.3281,-3.3181,-3.3019,-3.2818,-3.2768,-3.2667,-3.2128,-3.2015,-3.1913,-3.1669,-3.1618,-3.1618,-3.1618,-3.1618,-3.1618,-3.1618,-3.1618,-3.1618,-3.1618,-3.1618,-3.1618,-3.1618,-3.1618,-3.1618,-3.1618,-3.1618,-3.1618,-3.1618,-3.1618,-3.1618,-3.1618,-3.1618,-3.1618,-3.1618,-3.1772,-3.1863,-3.1863,-3.2179,-3.2331,-3.2331,-3.2617,-3.2768,-3.2768,-3.3031,-3.3181,-3.3181,-3.3568,-3.3941,0.0,-2.098,-2.1276,-2.0973,-2.0186,0.0,0.0,0.0,0.0,0.0,0.0,0.0,0.0,-1.5314,-1.6417,0.0,0.0,0.0,0.0,0.0,0.0,0.0,0.0,0.0,0.0,0.0,0.0,0.0,0.0,0.0,0.0,-3.2525,-3.2394,-3.211,-3.2285,-3.2143,-3.1629,-3.1618,-3.1618,-3.1618,-3.1618,-3.0926,-2.9723,-3.1263,0.0,0.0,0.0,0.0,0.0,-3.2792,-3.2681,-3.1769,-3.2864,-3.3281,-3.3281,-3.3281,-3.3281,-3.3281,-3.3058,-3.2958,-3.2908,-3.2706,-3.2667,-3.2667,-3.2667,-3.2969,-3.3292,-3.3081,-3.3042,-3.293,-3.2342,-3.2179,-3.2077,-3.1669,-3.1618,-3.1618,-3.1618,-3.1618,-3.1618,-3.1618,-3.1618,-3.1618,-3.1618,-3.1618,-3.1618,-3.1618,-3.168,-3.1721,-3.1618,-3.1669,-3.1721,-3.1618,-3.1618,-3.1618,-3.1721,-3.1772,-3.1772,-3.1772,-3.2026,-3.2179,-3.2179,-3.2505,-3.2656,-3.2656,-3.283,-3.283,-3.2729,-3.2919,-3.3119,-3.3281,-3.3281,-3.3281,0.0,-2.035,0.0,0.0,0.0,0.0,0.0,0.0,0.0,0.0,0.0,0.0,0.0,0.0,0.0,0.0,0.0,0.0,0.0,0.0,0.0,0.0,0.0,0.0,0.0,0.0,0.0,0.0,0.0,0.0,0.0,-3.1629,-3.168,-3.168,-3.214,-3.2099,-3.1629,-3.1618,-3.1575,-3.1465,-3.1575,-3.0959,-2.9795,-3.1357,0.0,0.0,0.0,0.0,0.0,-3.3281,-3.3281,-3.3281,-3.3281,-3.3281,-3.3231,-3.3231,-3.3231,-3.3119,-3.2533,-3.2359,-3.2258,-3.1772,-3.1618,-3.1618,-3.1618,-3.2353,-3.3231,-3.3231,-3.3281,-3.3181,-3.2656,-3.2493,-3.2342,-3.1721,-3.1618,-3.1618,-3.1618,-3.1618,-3.1618,-3.1618,-3.1618,-3.1618,-3.1618,-3.1618,-3.1629,-3.1618,-3.1823,-3.1863,-3.168,-3.1823,-3.1874,-3.1618,-3.1629,-3.1721,-3.1975,-3.2015,-3.2015,-3.2015,-3.2342,-3.2555,-3.2555,-3.2779,-3.2942,-3.2942,-3.2891,-3.2779,-3.2493,-3.2493,-3.2768,-3.3281,-3.3281,-3.3281,-1.6935,0.0,-1.6142,-1.6054,-1.5731,-1.5374,0.0,0.0,0.0,0.0,0.0,0.0,0.0,0.0,0.0,0.0,0.0,0.0,0.0,0.0,0.0,0.0,0.0,0.0,0.0,0.0,0.0,0.0,0.0,0.0,0.0,-3.2128,-3.2291,-3.2291,-3.2148,-3.1944,-3.1618,-3.1618,-3.1072,-3.0002,-3.1295,-3.0617,-2.8299,-3.1315,0.0,0.0,0.0,0.0,-3.3281,-3.3281,-3.3281,-3.3281,-3.3281,-3.3019,-3.2633,-3.2633,-3.2331,-3.1986,-3.1823,-3.1772,-3.1772,-3.1618,-3.1618,-3.1618,-3.1618,-3.2077,-3.2633,-3.2633,-3.2958,-3.3181,-3.2656,-3.2493,-3.2342,-3.1721,-3.1618,-3.1618,-3.1618,-3.1618,-3.1618,-3.1618,-3.1618,-3.1618,-3.1618,-3.1618,-3.1669,-3.1874,-3.1772,-3.1772,-3.1863,-3.1772,-3.1669,-3.1618,-3.1772,-3.1913,-3.2015,-3.2015,-3.2128,-3.2392,-3.2667,-3.283,-3.283,-3.3081,-3.3181,-3.3181,-3.298,-3.2779,-3.2493,-3.2493,-3.2667,-3.2992,-3.2992,-3.3081,-1.5693,-1.554,-1.5362,-1.5951,-1.5577,-1.5175,0.0,0.0,0.0,0.0,0.0,0.0,0.0,0.0,0.0,0.0,0.0,0.0,0.0,0.0,0.0,0.0,0.0,0.0,0.0,0.0,0.0,0.0,0.0,0.0,0.0,-3.2342,-3.2493,-3.2493,-3.2342,-3.2179,-3.2026,-3.1874,-3.1097,-2.969,-3.1429,-3.1038,-2.8957,-3.1668,-3.2537,0.0,0.0,0.0,-3.3235,-3.2437,-3.2551,-3.3281,-3.3008,-3.2684,-3.2359,-3.2117,-3.1874,-3.1567,-3.1311,-3.1054,-3.0858,-3.0858,-3.0858,-3.0858,-3.0858,-3.1259,-3.1699,-3.1964,-3.228,-3.2454,-3.2139,-3.2088,-3.2037,-3.1823,-3.1772,-3.1823,-3.1975,-3.1874,-3.1823,-3.1975,-3.1874,-3.1823,-3.1986,-3.2026,-3.2088,-3.2229,-3.219,-3.215,-3.2015,-3.2088,-3.2088,-3.1823,-3.2026,-3.2291,-3.2403,-3.2403,-3.2505,-3.2667,-3.293,-3.3081,-3.3081,-3.3081,-3.298,-3.2706,-3.2706,-3.2555,-3.228,-3.2443,-3.2656,-3.2891,-3.3042,-3.3181,-1.5066,-1.5803,-1.6555,-1.7774,-1.6893,-1.6019,-1.7135,0.0,0.0,0.0,0.0,0.0,0.0,0.0,0.0,0.0,0.0,0.0,0.0,0.0,0.0,0.0,0.0,0.0,0.0,0.0,0.0,0.0,0.0,0.0,0.0,-3.2443,-3.2594,-3.2594,-3.2606,-3.2606,-3.2594,-3.228,-3.1335,-2.9964,-3.1737,-3.1768,-3.0422,-3.2188,-3.3092,0.0,0.0,0.0,-3.3189,-3.17,-3.1917,-3.3181,-3.2695,-3.237,-3.2167,-3.1721,-3.1476,-3.127,-3.0847,-3.0391,-2.9994,-2.9994,-2.9994,-2.9994,-2.9994,-3.0339,-3.0795,-3.1219,-3.1476,-3.1578,-3.1578,-3.1567,-3.168,-3.1874,-3.1964,-3.2066,-3.2443,-3.228,-3.2179,-3.2443,-3.228,-3.2179,-3.2443,-3.2493,-3.2493,-3.2544,-3.2667,-3.2617,-3.2179,-3.2505,-3.2617,-3.2128,-3.2392,-3.2656,-3.2891,-3.2942,-3.2942,-3.2891,-3.3081,-3.3242,-3.3242,-3.3042,-3.2617,-3.2077,-3.2342,-3.2342,-3.2015,-3.2291,-3.2606,-3.2891,-3.3142,-3.3281,-1.5955,-1.6358,-1.6701,-1.7364,-1.5938,-1.4914,-1.6943,0.0,0.0,0.0,0.0,0.0,0.0,0.0,0.0,0.0,0.0,0.0,0.0,0.0,0.0,0.0,0.0,0.0,0.0,0.0,0.0,0.0,0.0,0.0,0.0,0.0,-3.3181,-3.3181,-3.298,-3.293,-3.3181,-3.2656,-3.1692,-3.0236,-3.2006,-3.2097,-3.068,-3.2434,-3.3281,0.0,0.0,-3.3063,-3.3269,-3.3028,-3.2925,-3.2942,-3.288,-3.2252,-3.1373,-3.127,-3.0817,-3.0245,-3.0141,-3.0047,-2.9994,-2.9994,-2.9994,-2.9994,-2.9994,-3.0047,-3.0151,-3.0203,-3.0909,-3.1578,-3.1322,-3.1424,-3.1618,-3.1669,-3.1812,-3.2066,-3.2443,-3.2443,-3.2443,-3.2493,-3.2443,-3.2443,-3.2493,-3.2493,-3.2606,-3.2779,-3.2454,-3.2291,-3.2729,-3.2403,-3.2229,-3.2392,-3.2667,-3.288,-3.2891,-3.3081,-3.3131,-3.2891,-3.2942,-3.293,-3.293,-3.2942,-3.2729,-3.2443,-3.2443,-3.2342,-3.2015,-3.2066,-3.2342,-3.2891,-3.2942,-3.3081,-1.5765,-1.5791,-1.6159,-1.8676,-1.7524,-1.6598,-1.9755,0.0,0.0,0.0,0.0,0.0,0.0,0.0,0.0,0.0,0.0,0.0,0.0,0.0,0.0,0.0,0.0,0.0,0.0,0.0,0.0,0.0,0.0,0.0,0.0,0.0,-3.3155,-3.2868,-3.2757,-3.2632,-3.2466,-3.2259,-3.1564,-3.0541,-3.2301,-3.2293,-3.0785,-3.2494,-3.3281,-3.3235,0.0,-3.2426,-3.3212,-3.1984,-3.1923,-3.2594,-3.215,-3.1589,-3.095,-3.0661,-3.0308,-2.9994,-2.9994,-2.9994,-2.9994,-2.9994,-2.9994,-2.9994,-2.9994,-2.9994,-2.9994,-2.9994,-3.036,-3.0754,-3.0754,-3.1064,-3.1373,-3.1373,-3.1947,-3.2505,-3.2432,-3.2594,-3.2768,-3.2919,-3.2818,-3.2768,-3.2919,-3.2919,-3.2969,-3.3081,-3.2869,-3.2757,-3.2891,-3.2768,-3.2706,-3.2718,-3.298,-3.3142,-3.3142,-3.3231,-3.3192,-3.2942,-3.2779,-3.2617,-3.2403,-3.2617,-3.2555,-3.2229,-3.2392,-3.2443,-3.228,-3.2403,-3.2617,-3.2891,-3.3042,-3.3229,-1.5528,-1.5441,-1.5892,-1.9504,-1.8354,-1.7551,-2.206,0.0,0.0,0.0,0.0,0.0,0.0,0.0,0.0,0.0,0.0,0.0,0.0,0.0,0.0,0.0,0.0,0.0,0.0,0.0,0.0,0.0,0.0,0.0,0.0,0.0,-3.2902,-3.25,-3.2374,-3.2144,-3.1825,-3.1813,-3.1523,-3.0968,-3.2325,-3.2268,-3.0991,-3.2348,-3.2925,-3.2868,-3.1554,-3.1654,-3.2636,-3.1009,-3.094,-3.1911,-3.1381,-3.1013,-3.064,-3.0193,-2.9994,-2.9994,-2.9994,-2.9994,-2.9994,-2.9994,-2.9994,-2.9994,-2.9994,-2.9994,-2.9994,-2.9994,-2.9994,-3.0047,-3.0245,-3.0651,-3.1023,-3.1064,-3.1794,-3.2465,-3.2269,-3.2392,-3.2667,-3.3019,-3.2919,-3.2869,-3.3231,-3.3281,-3.3281,-3.3281,-3.3231,-3.3131,-3.2992,-3.3142,-3.3131,-3.2992,-3.3181,-3.3281,-3.3281,-3.3181,-3.3031,-3.283,-3.2555,-3.228,-3.2015,-3.2229,-3.228,-3.2128,-3.2392,-3.2544,-3.2606,-3.2779,-3.2942,-3.2992,-3.3245,-3.3446,-1.5786,-1.608,-1.6473,-1.8372,-1.6344,0.0,-2.1669,-1.8584,0.0,-2.272,0.0,0.0,0.0,0.0,0.0,0.0,0.0,0.0,0.0,0.0,0.0,0.0,0.0,0.0,0.0,0.0,0.0,0.0,0.0,0.0,0.0,0.0,0.0,-3.2489,-3.2101,-3.1848,-3.1813,-3.1813,-3.1743,-3.1708,-3.1871,-3.1823,-3.172,-3.1823,-3.1928,-3.1917,-3.1766,-3.1527,-3.1195,-3.1457,-3.1213,-3.0655,-3.1057,-3.0858,-3.0391,-3.0099,-2.9994,-2.9994,-2.9994,-2.9994,-2.9994,-2.9994,-2.9994,-2.9994,-2.9994,-2.9994,-2.9994,-2.9994,-2.9994,-2.9994,-3.0047,-3.0245,-3.0495,-3.0795,-3.1064,-3.1373,-3.1629,-3.168,-3.1823,-3.237,-3.2471,-3.2633,-3.3181,-3.3281,-3.3281,-3.3281,-3.3092,-3.2992,-3.3231,-3.3081,-3.3042,-3.3231,-3.3281,-3.3281,-3.3281,-3.2869,-3.2544,-3.2544,-3.2229,-3.2015,-3.2015,-3.2015,-3.2179,-3.2443,-3.2493,-3.2606,-3.288,-3.288,-3.3031,-3.3292,-3.3498,-3.356,-1.5437,-1.5614,-1.6344,-1.9493,-1.7284,0.0,0.0,-1.9954,-1.8583,-2.5358,0.0,0.0,0.0,0.0,0.0,0.0,0.0,0.0,0.0,0.0,0.0,0.0,0.0,0.0,0.0,0.0,0.0,0.0,0.0,0.0,0.0,0.0,0.0,-3.1582,-3.1398,-3.1134,-3.0801,-3.0523,-3.0384,-3.0395,-3.1018,-3.1312,-3.1264,-3.0975,-3.0879,-3.0879,-3.0879,-3.0734,-3.0551,-3.0335,-3.0076,-2.9821,-2.9986,-3.0012,-2.9992,-2.9985,-2.9994,-2.9994,-2.9994,-2.9994,-2.9994,-2.9994,-2.9994,-2.9994,-2.9994,-2.9994,-2.9994,-2.9994,-2.9994,-2.9994,-2.9994,-3.0339,-3.0588,-3.0339,-3.0909,-3.1373,-3.1157,-3.1362,-3.168,-3.1863,-3.1913,-3.2077,-3.2633,-3.2734,-3.2846,-3.3231,-3.3231,-3.3192,-3.3281,-3.3181,-3.3181,-3.3281,-3.3281,-3.3231,-3.3092,-3.2706,-3.2392,-3.2179,-3.1924,-3.1772,-3.1772,-3.1924,-3.2179,-3.2493,-3.2667,-3.288,-3.3131,-3.3131,-3.3291,-3.3486,-3.3566,-3.3716,-1.5085,-1.509,-1.5893,-1.9425,0.0,0.0,-2.2273,-2.0841,-1.9947,0.0,0.0,0.0,0.0,0.0,0.0,0.0,0.0,0.0,0.0,0.0,0.0,0.0,0.0,0.0,0.0,0.0,0.0,0.0,0.0,0.0,0.0,0.0,0.0,0.0,-3.0847,-3.0583,-3.0216,-2.9715,-2.9485,-2.9485,-2.9886,-3.0112,-3.0244,-2.9921,-2.9777,-2.9777,-2.9777,-2.9692,-2.9547,-2.9272,-2.9176,-2.9147,-2.9121,-2.9185,-2.9368,-2.9487,-2.9653,-2.9777,-2.9777,-2.988,-2.9994,-2.9994,-2.9994,-2.9994,-2.9994,-2.9994,-2.9994,-2.9994,-2.9994,-2.9994,-2.9994,-3.0297,-3.0443,-3.0099,-3.0557,-3.1013,-3.0651,-3.0858,-3.1167,-3.1311,-3.1362,-3.1567,-3.2269,-3.2409,-3.2583,-3.3231,-3.3281,-3.3281,-3.3281,-3.3281,-3.3281,-3.3281,-3.3281,-3.3181,-3.2942,-3.2656,-3.2342,-3.2015,-3.1772,-3.1618,-3.1721,-3.1913,-3.2179,-3.2606,-3.283,-3.3031,-3.3281,-3.343,-3.3582,-3.3709,-3.386,-3.4053,-1.4815,-1.4664,-1.5126,0.0,0.0,0.0,0.0,-2.0894,0.0,0.0,0.0,0.0,0.0,0.0,0.0,0.0,0.0,0.0,0.0,0.0,0.0,0.0,0.0,0.0,0.0,0.0,0.0,0.0,0.0,0.0,0.0,0.0,0.0,0.0,-3.0491,-3.0216,-3.0216,-2.9715,-2.9485,-2.9485,-2.8456,-2.8222,-2.8678,-2.8678,-2.8678,-2.8678,-2.8678,-2.8398,-2.803,-2.8498,-2.8635,-2.8597,-2.8607,-2.8607,-2.8607,-2.8618,-2.8897,-2.9301,-2.9301,-2.9601,-2.9984,-2.9984,-2.9994,-2.9994,-2.9994,-2.9994,-2.9994,-2.9994,-2.9994,-2.9994,-2.9994,-2.9994,-2.9994,-2.9994,-2.9994,-2.9994,-2.9994,-2.9994,-3.0141,-3.0692,-3.0785,-3.1146,-3.2207,-3.2409,-3.2583,-3.3181,-3.3281,-3.3281,-3.3281,-3.3281,-3.3281,-3.3281,-3.3281,-3.3181,-3.2891,-3.2667,-3.2342,-3.2015,-3.1772,-3.1721,-3.1964,-3.2015,-3.2291,-3.2891,-3.2891,-3.3042,-3.3292,-3.3775,-3.4004,-3.4039,-3.4403,-3.4596,-1.6642,-1.6004,0.0,0.0,0.0,0.0,0.0,0.0,0.0,0.0,0.0,0.0,0.0,0.0,0.0,0.0,0.0,0.0,0.0,0.0,0.0,0.0,0.0,0.0,0.0,0.0,0.0,0.0,0.0,0.0,0.0,0.0,0.0,0.0,-3.0296,-3.0034,-2.9715,-2.9255,-2.8839,-2.8456,-2.7809,-2.7762,-2.8222,-2.7857,-2.7715,-2.7715,-2.7715,-2.7631,-2.7547,-2.7825,-2.7914,-2.7927,-2.8261,-2.8278,-2.8173,-2.8493,-2.87,-2.8825,-2.8825,-2.9125,-2.9508,-2.9508,-2.9735,-2.9994,-2.9994,-2.9994,-2.9994,-2.9994,-2.9994,-2.9994,-2.9994,-2.9994,-2.9994,-2.9994,-2.9994,-2.9994,-2.9994,-2.9994,-3.0047,-3.0193,-3.0245,-3.0443,-3.1146,-3.1607,-3.2026,-3.2583,-3.3008,-3.3281,-3.3281,-3.3281,-3.3231,-3.3042,-3.3042,-3.2818,-3.2291,-3.2179,-3.2026,-3.1721,-3.1618,-3.1721,-3.1964,-3.2229,-3.2505,-3.288,-3.3092,-3.3403,-3.3786,-3.3731,-3.4061,-3.4767,-3.4462,-3.4514,-1.7563,0.0,0.0,0.0,0.0,0.0,0.0,0.0,0.0,0.0,0.0,0.0,0.0,0.0,0.0,0.0,0.0,0.0,0.0,0.0,0.0,0.0,0.0,0.0,0.0,0.0,0.0,0.0,0.0,0.0,0.0,0.0,0.0,0.0,-2.9703,-2.9474,-2.9198,-2.8699,-2.8326,-2.7987,-2.7536,-2.7489,-2.7809,-2.7489,-2.7309,-2.7309,-2.7309,-2.7357,-2.7441,-2.7536,-2.7678,-2.7794,-2.8079,-2.8088,-2.7976,-2.8161,-2.8341,-2.8447,-2.8338,-2.8649,-2.9032,-2.9032,-2.9342,-2.9715,-2.9715,-2.9849,-2.9994,-2.9994,-2.9994,-2.9994,-2.9994,-2.9994,-2.9994,-2.9994,-2.9994,-2.9994,-2.9994,-2.9994,-2.9994,-2.9994,-2.9994,-3.0193,-3.0692,-3.1259,-3.1772,-3.2319,-3.2896,-3.3281,-3.3131,-3.3131,-3.3031,-3.2768,-3.2718,-3.2555,-3.2026,-3.2015,-3.1874,-3.1629,-3.1618,-3.1772,-3.2179,-3.2392,-3.2656,-3.3042,-3.3426,-3.3717,-3.4004,-3.4251,-3.4607,-3.5103,-3.4808,-3.4802,0.0,0.0,0.0,0.0,0.0,0.0,0.0,0.0,0.0,0.0,0.0,0.0,0.0,0.0,0.0,0.0,0.0,0.0,0.0,0.0,0.0,0.0,0.0,0.0,0.0,0.0,0.0,0.0,0.0,0.0,0.0,0.0,0.0,-2.9485,-2.8967,-2.8678,-2.8631,-2.8222,-2.7998,0.0,-2.7536,-2.7404,-2.7584,-2.7404,-2.7309,-2.7309,-2.7309,-2.7452,-2.7678,-2.7678,-2.782,-2.8045,-2.8045,-2.8045,-2.7998,-2.7726,-2.7904,-2.8223,-2.797,-2.8162,-2.8556,-2.8556,-2.8866,-2.9239,-2.9239,-2.9559,-2.9932,-2.9932,-2.9963,-2.9994,-2.9994,-2.9994,-2.9994,-2.9994,-2.9994,-2.9994,-2.9994,-2.9994,-2.9994,-2.9994,-2.9994,-3.0141,-3.064,-3.1157,-3.1721,-3.2269,-3.2891,-3.3199,-3.2898,-3.2858,-3.2797,-3.251,-3.2476,-3.2342,-3.1964,-3.1964,-3.1874,-3.1629,-3.1618,-3.1896,-3.2561,-3.2527,-3.2779,-3.335,-3.3775,-3.405,-3.4142,-3.5008,-3.5382,-3.5225,-3.532,-3.5257,0.0,0.0,0.0,0.0,0.0,0.0,0.0,0.0,0.0,0.0,0.0,0.0,0.0,0.0,0.0,0.0,0.0,0.0,0.0,0.0,0.0,0.0,0.0,0.0,0.0,0.0,0.0,0.0,0.0,0.0,0.0,0.0,0.0,-2.9485,-2.8967,-2.8538,-2.8128,-2.8034,-2.7904,0.0,-2.7584,-2.7547,-2.7584,-2.7404,-2.7404,-2.7536,-2.7536,-2.7783,-2.8207,-2.8207,-2.8254,-2.829,-2.829,-2.8196,-2.7998,-2.7951,-2.7826,-2.7741,-2.7683,-2.7841,-2.8069,-2.8069,-2.839,-2.8763,-2.8763,-2.9083,-2.9456,-2.9456,-2.9715,-2.9994,-2.9994,-2.9994,-2.9994,-2.9994,-2.9994,-2.9994,-2.9994,-2.9994,-2.9994,-2.9994,-2.9994,-3.0047,-3.0141,-3.0599,-3.1146,-3.1669,-3.2552,-3.2963,-3.252,-3.2613,-3.2664,-3.2353,-3.2207,-3.1975,-3.1721,-3.168,-3.1669,-3.1618,-3.1618,-3.2061,-3.3014,-3.2707,-3.2938,-3.3843,-3.3947,-3.4395,-3.5198,-3.5203,-3.5458,-3.6008,-3.5367,-3.5146,0.0,0.0,0.0,0.0,0.0,0.0,0.0,0.0,0.0,0.0,0.0,0.0,0.0,0.0,0.0,0.0,0.0,0.0,0.0,0.0,0.0,0.0,0.0,0.0,0.0,0.0,0.0,0.0,0.0,0.0,0.0,-2.9179,-2.8885,-2.8792,-2.8269,-2.7904,-2.7678,-2.7773,-2.7726,-2.7584,-2.7726,-2.7773,-2.7762,-2.7536,-2.7584,-2.7773,-2.7773,-2.8008,-2.8395,-2.8395,-2.8488,-2.8581,-2.8581,-2.8524,-2.8373,-2.8243,-2.7998,-2.7762,-2.7631,-2.7598,-2.7603,-2.7603,-2.7914,-2.8276,-2.8276,-2.8607,-2.9021,-2.9239,-2.9477,-2.9715,-2.9942,-2.9994,-3.0047,-3.0141,-3.0099,-2.9994,-2.9994,-2.9994,-2.9994,-2.9994,-2.9994,-2.9994,-2.9994,-3.0443,-3.1002,-3.1516,-3.224,-3.2548,-3.2141,-3.235,-3.2402,-3.2151,-3.1913,-3.1772,-3.1618,-3.1618,-3.1618,-3.1618,-3.1618,-3.2105,-3.3171,-3.2998,-3.3345,-3.4372,-3.4613,-3.4992,-3.552,-3.5599,-3.5808,-3.6059,-3.5577,-3.5312,0.0,0.0,0.0,0.0,0.0,0.0,0.0,0.0,0.0,0.0,0.0,0.0,0.0,0.0,0.0,0.0,0.0,0.0,0.0,0.0,0.0,0.0,0.0,0.0,0.0,0.0,0.0,0.0,0.0,0.0,-2.888,-2.8585,-2.8337,-2.8092,-2.7631,-2.7404,-2.7357,-2.7536,-2.7678,-2.7726,-2.7951,-2.8092,-2.8139,-2.7867,-2.7867,-2.8045,-2.8045,-2.8243,-2.8488,-2.8488,-2.8617,-2.8803,-2.8803,-2.8803,-2.8757,-2.8535,-2.829,-2.7998,-2.7773,-2.7489,-2.7309,-2.7309,-2.751,-2.781,-2.7859,-2.8131,-2.8576,-2.901,-2.9187,-2.9394,-2.9777,-2.9932,-3.0047,-3.0349,-3.0245,-3.0047,-3.0047,-3.0047,-2.9994,-2.9994,-2.9994,-2.9994,-2.9994,-3.0443,-3.0899,-3.1259,-3.185,-3.2165,-3.1859,-3.2135,-3.2199,-3.1965,-3.1785,-3.1614,-3.1578,-3.1618,-3.1618,-3.1618,-3.1706,-3.2277,-3.3305,-3.3458,-3.4,-3.5049,-3.5359,-3.5566,-3.5646,-3.6071,-3.6168,-3.5906,-3.5852,-3.5577,0.0,0.0,0.0,0.0,0.0,0.0,0.0,0.0,0.0,0.0,0.0,0.0,0.0,0.0,0.0,0.0,0.0,0.0,0.0,0.0,0.0,0.0,0.0,0.0,0.0,0.0,0.0,0.0,0.0,0.0,-2.9419,-2.8991,-2.8617,-2.8348,-2.8045,-2.7809,-2.7547,-2.782,-2.8045,-2.8301,-2.8348,-2.8488,-2.8699,-2.8441,-2.8301,-2.8348,-2.8348,-2.8488,-2.8757,-2.8757,-2.8757,-2.8803,-2.8803,-2.8803,-2.8803,-2.8757,-2.842,-2.7987,-2.7951,-2.7668,-2.7309,-2.7309,-2.7351,-2.7392,-2.7583,-2.78,-2.8028,-2.8355,-2.884,-2.9321,-2.9384,-2.9694,-3.0047,-3.0349,-3.0391,-3.0339,-3.0339,-3.0141,-2.9994,-2.9994,-2.9994,-2.9994,-2.9994,-3.0443,-3.0692,-3.0245,-3.1349,-3.2017,-3.155,-3.1994,-3.2342,-3.2157,-3.1965,-3.1776,-3.1611,-3.1618,-3.1618,-3.1618,-3.224,-3.3016,-3.3862,-3.4501,-3.5233,-3.6059,-3.5703,-3.5738,-3.6174,-3.6297,-3.6277,-3.6223,-3.5961,-3.5742,0.0,0.0,0.0,0.0,0.0,0.0,0.0,0.0,0.0,0.0,0.0,0.0,0.0,0.0,0.0,0.0,0.0,0.0,0.0,0.0,0.0,0.0,0.0,0.0,0.0,0.0,0.0,0.0,0.0,-2.8948,-2.8662,-2.8615,-2.843,-2.8196,-2.8045,-2.7951,-2.7809,-2.8102,-2.8337,-2.8617,-2.8617,-2.8664,-2.8814,-2.8947,-2.8878,-2.8617,-2.8617,-2.871,-2.8803,-2.8803,-2.8803,-2.8803,-2.8803,-2.8803,-2.8803,-2.8803,-2.8466,-2.7998,-2.7998,-2.7668,-2.7309,-2.7309,-2.7404,-2.7499,-2.7584,-2.7683,-2.7796,-2.8212,-2.8421,-2.8649,-2.9166,-2.9456,-2.9725,-3.0276,-3.0391,-3.0443,-3.0609,-3.0401,-3.0193,-3.0047,-3.0201,-3.0305,-3.0046,-3.0412,-3.059,-3.0088,-3.0985,-3.1688,-3.1436,-3.1975,-3.2385,-3.2296,-3.2189,-3.1987,-3.1765,-3.1785,-3.1717,-3.1589,-3.2358,-3.3157,-3.3963,-3.4392,-3.5156,-3.6266,-3.6048,-3.6048,-3.632,-3.632,-3.632,-3.632,-3.6168,-3.5961,0.0,0.0,0.0,0.0,0.0,0.0,0.0,0.0,0.0,0.0,0.0,0.0,0.0,0.0,0.0,0.0,0.0,0.0,0.0,0.0,0.0,0.0,0.0,0.0,0.0,0.0,0.0,0.0,0.0,-2.8711,-2.8222,-2.8386,-2.8384,-2.8092,-2.8186,-2.8186,-2.8092,-2.8092,-2.8186,-2.8409,-2.8409,-2.856,-2.8814,-2.9175,-2.9219,-2.8989,-2.8989,-2.8989,-2.8978,-2.8858,-2.8803,-2.8803,-2.8803,-2.8803,-2.8803,-2.8803,-2.8513,-2.8092,-2.8045,-2.7726,-2.7357,-2.7309,-2.7452,-2.7631,-2.7678,-2.7726,-2.7752,-2.8147,-2.8132,-2.8139,-2.8773,-2.9125,-2.9445,-3.0087,-3.0307,-3.0443,-3.0724,-3.062,-3.0433,-3.0297,-3.0556,-3.0712,-3.0387,-3.0532,-3.0605,-3.0377,-3.0936,-3.1422,-3.1536,-3.2097,-3.2427,-3.2424,-3.2319,-3.22,-3.2008,-3.1965,-3.191,-3.1752,-3.2501,-3.3204,-3.3824,-3.4085,-3.4779,-3.5806,-3.5817,-3.5982,-3.632,-3.632,-3.632,-3.632,-3.632,-3.6168,0.0,0.0,0.0,0.0,0.0,0.0,0.0,0.0,0.0,0.0,0.0,0.0,0.0,0.0,0.0,0.0,0.0,0.0,0.0,0.0,0.0,0.0,0.0,0.0,0.0,0.0,0.0,0.0,0.0,-2.9257,-2.876,-2.8792,-2.8664,-2.8395,-2.8617,-2.8617,-2.8395,-2.7636,-2.7284,-2.7284,-2.7284,-2.7825,-2.8803,-2.8825,-2.9077,-2.9445,-2.9445,-2.9445,-2.9412,-2.8989,-2.8803,-2.8803,-2.8803,-2.8803,-2.8803,-2.8803,-2.8617,-2.8348,-2.8092,-2.782,-2.7536,-2.7357,-2.7452,-2.7631,-2.7904,-2.7998,-2.7998,-2.8019,-2.8121,-2.8247,-2.8035,-2.8649,-2.9362,-2.9679,-3.0066,-3.0443,-3.0724,-3.0786,-3.0809,-3.1032,-3.1073,-3.1123,-3.1291,-3.0967,-3.0822,-3.1247,-3.135,-3.1526,-3.1895,-3.2406,-3.2633,-3.2399,-3.2392,-3.2348,-3.221,-3.2168,-3.2157,-3.219,-3.2845,-3.3278,-3.3354,-3.4085,-3.4503,-3.4591,-3.4591,-3.5146,-3.632,-3.632,-3.632,-3.632,-3.632,-3.6266,0.0,0.0,0.0,0.0,0.0,0.0,0.0,0.0,0.0,0.0,0.0,0.0,0.0,0.0,0.0,0.0,0.0,0.0,0.0,0.0,0.0,0.0,0.0,0.0,0.0,0.0,0.0,0.0,0.0,0.0,-2.8749,-2.7894,-2.7762,-2.8631,-2.807,-2.7437,-2.6675,-2.6378,-2.6234,-2.6234,-2.6234,-2.6416,-2.6819,-2.7798,-2.8496,-2.9,-2.9645,-2.9773,-2.9467,-2.9339,-2.9088,-2.8803,-2.8803,-2.8803,-2.8803,-2.8803,-2.8617,-2.8348,-2.8092,-2.7809,-2.7584,-2.7357,-2.7452,-2.7631,-2.7715,-2.7857,-2.7951,-2.7773,-2.7794,-2.785,-2.79,-2.8479,-2.9354,-3.0412,-3.0792,-3.1006,-3.142,-3.1368,-3.1159,-3.0913,-3.1316,-3.1626,-3.1446,-3.1474,-3.1516,-3.1391,-3.1619,-3.1857,-3.1967,-3.239,-3.2664,-3.2602,-3.2591,-3.2507,-3.2369,-3.2327,-3.231,-3.2231,-3.2909,-3.3288,-3.3288,-3.3695,-3.411,-3.448,-3.411,-3.4502,-3.5708,-3.5708,-3.5927,-3.632,-3.632,-3.6102,0.0,0.0,0.0,0.0,0.0,0.0,0.0,0.0,0.0,0.0,0.0,0.0,0.0,0.0,0.0,0.0,0.0,0.0,0.0,0.0,0.0,0.0,0.0,0.0,0.0,0.0,0.0,0.0,0.0,0.0,-2.8749,-2.7523,-2.7121,-2.7746,-2.7047,-2.6224,-2.5168,-2.5158,-2.5158,-2.5158,-2.5158,-2.5548,-2.6244,-2.6873,-2.7806,-2.9021,-2.9486,-2.9818,-2.9936,-2.9609,-2.9091,-2.8541,-2.8718,-2.8606,-2.8315,-2.8653,-2.871,-2.8488,-2.8243,-2.7961,-2.7678,-2.7489,-2.7536,-2.7726,-2.7726,-2.7998,-2.8186,-2.7867,-2.7726,-2.7752,-2.772,-2.8338,-2.9326,-3.0634,-3.1141,-3.1345,-3.1561,-3.1614,-3.1551,-3.1341,-3.1729,-3.2048,-3.1857,-3.195,-3.1936,-3.1847,-3.195,-3.2039,-3.2194,-3.2483,-3.2669,-3.2669,-3.2669,-3.2659,-3.2507,-3.2486,-3.2462,-3.238,-3.281,-3.3091,-3.3091,-3.323,-3.3501,-3.3875,-3.3501,-3.3784,-3.478,-3.4991,-3.5312,-3.5708,-3.5708,-3.5378,0.0,0.0,0.0,0.0,0.0,0.0,0.0,0.0,0.0,0.0,0.0,0.0,0.0,0.0,0.0,0.0,0.0,0.0,0.0,0.0,0.0,0.0,0.0,0.0,0.0,0.0,0.0,0.0,0.0,-2.8656,-2.8699,-2.772,-2.6703,-2.5703,-2.5654,-2.5119,-2.4088,-2.4048,-2.4048,-2.4048,-2.4048,-2.51,-2.7047,-2.6079,-2.7016,-2.9308,-2.8835,-2.9437,-3.07,-2.9833,-2.8834,-2.7859,-2.8441,-2.807,-2.7332,-2.8362,-2.8757,-2.8757,-2.8488,-2.8243,-2.7951,-2.7678,-2.7773,-2.7998,-2.7987,-2.8373,-2.8664,-2.8139,-2.7998,-2.7904,-2.7462,-2.8178,-2.9226,-3.0171,-3.1,-3.1455,-3.1179,-3.1561,-3.1987,-3.2346,-3.2424,-3.2469,-3.2654,-3.2297,-3.2163,-3.2607,-3.2287,-3.2163,-3.2618,-3.2669,-3.2669,-3.2669,-3.2669,-3.2669,-3.2669,-3.2669,-3.2669,-3.2669,-3.2669,-3.2669,-3.2669,-3.2669,-3.2669,-3.2669,-3.2669,-3.3012,-3.3568,-3.4155,-3.448,-3.448,-3.448,-3.4155,-1.5069,0.0,0.0,0.0,0.0,0.0,0.0,0.0,0.0,0.0,0.0,0.0,0.0,0.0,0.0,0.0,0.0,0.0,0.0,0.0,0.0,0.0,0.0,0.0,0.0,0.0,0.0,0.0,-2.5993,-2.5446,-2.6519,-2.6282,-2.5644,-2.4581,-2.4531,-2.4048,-2.3029,-2.3029,-2.3029,-2.3029,-2.3029,-2.3329,-2.3899,-2.4335,-2.5102,-2.615,-2.6774,-2.7332,-2.7915,-2.8373,-2.7584,-2.5995,-2.5954,-2.6444,-2.7237,-2.7332,-2.7966,-2.8757,-2.8488,-2.8243,-2.7951,-2.7678,-2.7631,-2.7678,-2.7536,-2.7961,-2.8395,-2.7678,-2.7715,-2.8025,-2.8088,-2.8722,-2.9568,-3.0501,-3.1231,-3.1859,-3.1999,-3.2146,-3.2219,-3.2149,-3.2359,-3.2628,-3.2706,-3.2566,-3.2525,-3.2659,-3.2566,-3.2525,-3.2659,-3.2669,-3.2669,-3.2669,-3.2669,-3.2669,-3.2669,-3.2669,-3.2669,-3.2669,-3.2669,-3.2669,-3.2669,-3.2669,-3.2669,-3.2669,-3.2669,-3.2784,-3.2955,-3.3558,-3.4054,-3.448,-3.4054,-3.3738,0.0,0.0,0.0,0.0,0.0,0.0,0.0,-1.6912,0.0,0.0,0.0,0.0,0.0,0.0,0.0,0.0,0.0,0.0,0.0,0.0,0.0,0.0,0.0,0.0,0.0,0.0,0.0,-2.6512,-2.5224,-2.4618,-2.5032,-2.5022,-2.4531,-2.3511,-2.3461,-2.317,-2.2603,-2.2594,-2.2594,-2.2594,-2.2594,-2.2837,-2.322,-2.342,-2.4085,-2.5204,-2.5574,-2.5588,-2.5352,-2.6129,-2.5758,-2.4756,-2.4962,-2.5227,-2.5625,-2.6021,-2.6941,-2.7919,-2.7788,-2.7846,-2.7998,-2.782,-2.7678,-2.7584,-2.7584,-2.7961,-2.8301,-2.7726,-2.7631,-2.7783,-2.8101,-2.8856,-2.9751,-3.0492,-3.137,-3.2144,-3.2353,-3.2458,-3.2492,-3.2323,-3.2494,-3.2669,-3.2669,-3.2669,-3.2669,-3.2669,-3.2669,-3.2669,-3.2669,-3.2669,-3.2669,-3.2669,-3.2669,-3.2669,-3.2669,-3.2669,-3.2669,-3.2669,-3.2669,-3.2669,-3.2669,-3.2669,-3.2669,-3.2669,-3.2669,-3.2669,-3.2669,-3.3069,-3.3399,-3.3717,-3.3399,-3.3229,0.0,0.0,0.0,0.0,0.0,0.0,-1.4281,-1.6233,0.0,0.0,0.0,0.0,0.0,0.0,0.0,0.0,0.0,0.0,0.0,0.0,0.0,0.0,0.0,0.0,0.0,-2.5557,-2.545,-2.5703,-2.5509,-2.4924,-2.3989,-2.3949,-2.3511,-2.2644,-2.2594,-2.2594,-2.2594,-2.2594,-2.2594,-2.2594,-2.2594,-2.3079,-2.3899,-2.3038,-2.3619,-2.5333,-2.4774,-2.4025,-2.322,-2.3565,-2.3715,-2.3781,-2.4505,-2.4168,-2.3434,-2.4611,-2.5673,-2.6587,-2.6587,-2.7047,-2.7647,-2.7799,-2.7668,-2.7526,-2.7893,-2.8196,-2.8395,-2.8092,-2.7668,-2.7403,-2.7859,-2.8796,-2.9824,-3.0349,-3.1439,-3.2424,-3.242,-3.254,-3.2669,-3.2669,-3.2669,-3.2669,-3.2669,-3.2669,-3.2669,-3.2669,-3.2669,-3.2669,-3.2669,-3.2669,-3.2669,-3.2669,-3.2669,-3.2669,-3.2669,-3.2571,-3.2416,-3.2416,-3.225,-3.2183,-3.2234,-3.2234,-3.2264,-3.2258,-3.2258,-3.2373,-3.2498,-3.2612,-3.2669,-3.2669,-3.2669,-3.2612,0.0,0.0,0.0,0.0,0.0,0.0,-1.4926,-1.5344,0.0,0.0,0.0,0.0,0.0,0.0,0.0,0.0,0.0,0.0,0.0,0.0,0.0,0.0,0.0,0.0,0.0,-2.4679,-2.3908,-2.5548,-2.4146,-2.3129,-2.2887,-2.2887,-2.2787,-2.2603,-2.2594,-2.2594,-2.2594,-2.2594,-2.2594,-2.2594,-2.2594,-2.2695,-2.2887,-2.2695,-2.2837,-2.3179,-2.3066,-2.2746,-2.2325,-2.2198,-2.2028,-2.1816,-2.1793,-2.24,-2.3294,-2.3335,-2.4159,-2.5169,-2.5169,-2.5188,-2.5363,-2.6388,-2.6675,-2.6819,-2.7704,-2.8326,-2.8617,-2.8139,-2.7668,-2.7461,-2.8149,-2.8995,-2.9908,-3.0758,-3.1669,-3.2462,-3.2623,-3.2664,-3.2669,-3.2669,-3.2669,-3.2669,-3.2669,-3.2669,-3.2669,-3.2669,-3.2669,-3.2669,-3.2669,-3.2669,-3.2669,-3.2669,-3.2669,-3.2669,-3.2669,-3.1502,-3.0769,-3.0769,-2.9564,-2.8956,-2.9238,-2.9247,-2.935,-2.963,-2.963,-3.0168,-3.1179,-3.219,-3.2669,-3.2669,-3.2669,-3.2133,0.0,0.0,0.0,-1.5131,0.0,0.0,0.0,-1.5329,-1.6095,0.0,0.0,0.0,0.0,0.0,0.0,0.0,0.0,0.0,0.0,0.0,0.0,0.0,0.0,0.0,0.0,-2.352,-2.3038,-2.4097,-2.3179,-2.2594,-2.2594,-2.2594,-2.2594,-2.2594,-2.2594,-2.2594,-2.2594,-2.2594,-2.2594,-2.2594,-2.2594,-2.2594,-2.2594,-2.2594,-2.2594,-2.2594,-2.2594,-2.2392,-2.208,-2.1971,-2.1674,-2.1275,-2.1173,-2.1514,-2.2106,-2.2106,-2.2835,-2.3854,-2.3854,-2.4119,-2.459,-2.5217,-2.5353,-2.5499,-2.6819,-2.7741,-2.8326,-2.8092,-2.7931,-2.7934,-2.8309,-2.9402,-3.0506,-3.0979,-3.123,-3.163,-3.2509,-3.1425,-3.0529,-3.1348,-3.0856,-3.0836,-3.2416,-3.219,-3.1777,-3.1777,-3.1237,-3.082,-3.082,-3.0635,-3.0565,-3.0565,-3.0427,-3.0299,-3.0299,-2.9573,-2.9098,-2.9098,-2.8332,-2.8055,-2.8413,-2.8431,-2.8566,-2.8911,-2.892,-2.9216,-2.9874,-3.0461,-3.082,-3.082,-3.082,-3.047,0.0,0.0,0.0,0.0,0.0,-1.4937,0.0,0.0,0.0,-1.5815,0.0,0.0,0.0,0.0,0.0,0.0,0.0,0.0,0.0,0.0,0.0,0.0,0.0,0.0,0.0,-2.2177,-2.2475,-2.2577,-2.2594,-2.2594,-2.2594,-2.2594,-2.2594,-2.2594,-2.2594,-2.2594,-2.2594,-2.2594,-2.2594,-2.2594,-2.2594,-2.2594,-2.2594,-2.2594,-2.2594,-2.2594,-2.2594,-2.2443,-2.2182,-2.208,-2.1776,-2.1369,-2.1326,-2.1121,-2.0925,-2.1121,-2.1759,-2.2492,-2.2492,-2.3094,-2.385,-2.4088,-2.4236,-2.4473,-2.5693,-2.6819,-2.7647,-2.7647,-2.7956,-2.8345,-2.8574,-2.9597,-3.0596,-3.0796,-3.0324,-3.0203,-3.1502,-2.9726,-2.8257,-2.9583,-2.8786,-2.8719,-3.1338,-3.1001,-3.0345,-3.0345,-2.9524,-2.892,-2.892,-2.8621,-2.8431,-2.8431,-2.812,-2.7871,-2.7871,-2.758,-2.7421,-2.7421,-2.7121,-2.7122,-2.7531,-2.7701,-2.7993,-2.8495,-2.8265,-2.8265,-2.8504,-2.8265,-2.8444,-2.892,-2.892,-2.8801,0.0,0.0,0.0,0.0,-1.5108,0.0,0.0,0.0,-1.5287,-1.5193,0.0,0.0,0.0,0.0,0.0,0.0,0.0,0.0,0.0,0.0,0.0,0.0,0.0,0.0,0.0,0.0,-2.1953,-2.2541,-2.2594,-2.2594,-2.2594,-2.2594,-2.2594,-2.2594,-2.2594,-2.2594,-2.2594,-2.2594,-2.2594,-2.2594,-2.2594,-2.2594,-2.2594,-2.2594,-2.2594,-2.2594,-2.2594,-2.2594,-2.2493,-2.1979,-2.1725,-2.1623,-2.1369,-2.1121,-2.0925,-2.0917,-2.1019,-2.1121,-2.1121,-2.1224,-2.1514,-2.2693,-2.3813,-2.473,-2.4925,-2.5635,-2.6302,-2.6302,-2.7117,-2.8174,-2.9144,-2.8962,-2.8773,-2.9719,-2.9017,-2.8247,-2.8408,-2.8172,-2.7946,-2.8163,-2.8021,-2.8021,-2.8398,-2.8544,-2.867,-2.867,-2.8799,-2.892,-2.892,-2.8621,-2.8431,-2.8431,-2.812,-2.7871,-2.7871,-2.6542,-2.567,-2.567,-2.4363,-2.3877,-2.4541,-2.5189,-2.6017,-2.7194,-2.6128,-2.6067,-2.7194,-2.6059,-2.6719,-2.892,-2.892,-2.8453,0.0,0.0,0.0,0.0,0.0,0.0,-1.7144,0.0,-1.5487,0.0,0.0,0.0,0.0,0.0,0.0,0.0,0.0,0.0,0.0,0.0,0.0,0.0,0.0,0.0,0.0,0.0,0.0,0.0,0.0,-2.0917,-2.113,-2.2073,-2.2594,-2.2594,-2.2594,-2.2594,-2.2594,-2.2594,-2.2594,-2.2594,-2.2594,-2.2594,-2.2594,-2.2594,-2.2594,-2.2594,-2.2594,-2.2594,-2.2594,-2.2131,-2.1827,-2.1674,-2.142,-2.1121,-2.0925,-2.0925,-2.0925,-2.0925,-2.0925,-2.0925,-2.0968,-2.1564,-2.2643,-2.3714,-2.3714,-2.4523,-2.5463,-2.5463,-2.6153,-2.7029,-2.7471,-2.7738,-2.7991,-2.8446,-2.7456,-2.6691,-2.7711,-2.6385,-2.5357,-2.6254,-2.5718,-2.5071,-2.5071,-2.6122,-2.7057,-2.7287,-2.6763,-2.6473,-2.6693,-2.6389,-2.6135,-2.5914,-2.5558,-2.5244,-2.5088,-2.4428,-2.4006,-2.4006,-2.3754,-2.3803,-2.4098,-2.473,-2.5349,-2.5884,-2.5349,-2.5349,-2.5884,-2.5349,-2.577,-2.6969,-2.6969,-2.6675,-1.6395,0.0,0.0,0.0,0.0,0.0,0.0,0.0,0.0,0.0,0.0,0.0,0.0,0.0,0.0,0.0,0.0,0.0,0.0,0.0,0.0,0.0,0.0,0.0,0.0,0.0,0.0,0.0,-1.9633,-1.9811,-1.9949,-2.1622,-2.2594,-2.2594,-2.2594,-2.2594,-2.2594,-2.2594,-2.2594,-2.2594,-2.2594,-2.2594,-2.2594,-2.2594,-2.2594,-2.2594,-2.2594,-2.2544,-2.2443,-2.2131,-2.1818,-2.1573,-2.1326,-2.107,-2.0925,-2.0925,-2.0925,-2.0925,-2.0925,-2.0925,-2.0925,-2.0925,-2.1564,-2.235,-2.235,-2.3408,-2.4564,-2.4463,-2.5304,-2.6203,-2.6194,-2.6516,-2.6829,-2.693,-2.5837,-2.508,-2.6302,-2.4704,-2.3368,-2.4518,-2.3796,-2.3014,-2.3014,-2.4302,-2.5426,-2.5646,-2.5041,-2.4674,-2.4928,-2.4738,-2.4444,-2.4153,-2.3745,-2.3338,-2.3046,-2.3014,-2.3014,-2.3014,-2.3665,-2.4114,-2.4114,-2.473,-2.5111,-2.5111,-2.5111,-2.5111,-2.5111,-2.5173,-2.5357,-2.561,-2.5488,-2.548,0.0,0.0,0.0,-1.7701,0.0,0.0,0.0,0.0,-1.6378,0.0,0.0,0.0,0.0,0.0,-1.5532,-1.5639,0.0,0.0,0.0,0.0,0.0,0.0,0.0,0.0,0.0,0.0,0.0,-1.7694,-1.938,-2.0202,-1.954,-2.1485,-2.2594,-2.2594,-2.2594,-2.2594,-2.2594,-2.2594,-2.2594,-2.2594,-2.2594,-2.2594,-2.2594,-2.2594,-2.2594,-2.2594,-2.2594,-2.2434,-2.2072,-2.1827,-2.1573,-2.1275,-2.1019,-2.0925,-2.0925,-2.0925,-2.0925,-2.0925,-2.0925,-2.0925,-2.0925,-2.0925,-2.0917,-2.0968,-2.0968,-2.217,-2.3486,-2.316,-2.4646,-2.6265,-2.6203,-2.5559,-2.4962,-2.5203,-2.4175,-2.3094,-2.3159,-2.3086,-2.3022,-2.3086,-2.3022,-2.3014,-2.3014,-2.3316,-2.3562,-2.357,-2.415,-2.4587,-2.4595,-2.4587,-2.4444,-2.4153,-2.3745,-2.3338,-2.3046,-2.3014,-2.3014,-2.3014,-2.3665,-2.4114,-2.4114,-2.473,-2.5111,-2.5111,-2.5111,-2.5111,-2.5111,-2.5426,-2.561,-2.561,-2.5296,-2.5656,0.0,0.0,-2.0088,-2.0244,0.0,0.0,0.0,0.0,0.0,0.0,0.0,0.0,0.0,0.0,-1.6113,-1.6162,-1.5282,-1.4661,0.0,0.0,0.0,0.0,0.0,0.0,0.0,0.0,0.0,-1.576,-1.5868,-1.5852,0.0,-1.8827,-2.0555,-2.0555,-2.1893,-2.2392,-2.203,-2.2392,-2.2392,-2.203,-2.2392,-2.2392,-2.203,-2.2443,-2.219,-2.153,-2.2291,-2.219,-2.1573,-2.1674,-2.1522,-2.1267,-2.1019,-2.0925,-2.0925,-2.0925,-2.0925,-2.0925,-2.0925,-2.0925,-2.0925,-2.0925,-2.0925,-2.0964,-2.141,-2.1978,-2.256,-2.2852,-2.3482,-2.4085,-2.4077,-2.3853,-2.3624,-2.372,-2.3336,-2.3014,-2.3014,-2.3014,-2.3014,-2.3014,-2.3014,-2.3014,-2.3014,-2.3117,-2.3219,-2.3449,-2.3687,-2.4063,-2.4523,-2.4579,-2.4444,-2.4153,-2.401,-2.3642,-2.3062,-2.3014,-2.3014,-2.3014,-2.3665,-2.4114,-2.4114,-2.473,-2.5111,-2.5111,-2.5296,-2.5296,-2.5111,-2.5656,-2.5961,-2.5961,-2.5831,-2.5953,-2.0523,-2.0989,0.0,-2.1491,-2.0437,0.0,-2.0625,0.0,0.0,0.0,0.0,0.0,0.0,0.0,0.0,-1.6284,-1.5564,-1.5042,0.0,-1.4362,0.0,0.0,0.0,0.0,0.0,0.0,-1.3516,-1.3723,-1.3805,-1.3845,0.0,0.0,-1.9478,-1.9478,-2.1519,-2.2291,-2.1725,-2.2089,-2.208,-2.1725,-2.1886,-2.1886,-2.1725,-2.1937,-2.1581,-2.0917,-2.1683,-2.1683,-2.1173,-2.1326,-2.1318,-2.1121,-2.0976,-2.0925,-2.0925,-2.0925,-2.0925,-2.0925,-2.0925,-2.0925,-2.0925,-2.0925,-2.1056,-2.1362,-2.1752,-2.2209,-2.26,-2.3129,-2.3238,-2.3215,-2.3335,-2.3158,-2.3014,-2.3014,-2.3014,-2.3014,-2.3014,-2.3014,-2.3014,-2.3014,-2.3014,-2.3014,-2.3014,-2.3014,-2.3093,-2.3267,-2.3409,-2.3647,-2.415,-2.4317,-2.436,-2.4137,-2.3943,-2.3642,-2.3062,-2.3014,-2.3014,-2.3014,-2.3665,-2.4114,-2.4114,-2.473,-2.5111,-2.5111,-2.5296,-2.5357,-2.5296,-2.5831,-2.6136,-2.6258,-2.6388,-2.6449]}]]